[[{"header":{"parameterUnit":"m.s-1","parameterCategory":1,"la1":30.6,"la2":28.766,"lo1":-90.7593,"lo2":-88.6598,"dx":0.0162,"dy":0.0183,"nx":116,"ny":114,"refTime":"2022-12-06T18:00:00:Z","depth":0,"parameterNumber":2,"parameterNumberName":"U-component_of_WINDS"},"data":[0.0,0.0,0.0,0.0,0.0,0.0,0.0,0.0,0.0,0.0,0.0,0.0,0.0,0.0,0.0,0.0,0.0,0.0,0.0,0.0,0.0,0.0,0.0,0.0,0.0,0.0,0.0,0.0,0.0,0.0,0.0,0.0,0.0,0.0,0.0,0.0,0.0,0.0,0.0,0.0,0.0,0.0,0.0,0.0,0.0,0.0,0.0,0.0,0.0,0.0,0.0,0.0,0.0,0.0,0.0,0.0,0.0,0.0,0.0,0.0,0.0,0.0,0.0,0.0,0.0,0.0,0.0,0.0,0.0,0.0,0.0,0.0,0.0,0.0,0.0,0.0,0.0,0.0,0.0,0.0,0.0,0.0,0.0,0.0,0.0,0.0,0.0,0.0,0.0,0.0,0.0,0.0,0.0,0.0,0.0,0.0,0.0,0.0,0.0,0.0,0.0,0.0,0.0,0.0,0.0,0.0,0.0,0.0,0.0,0.0,0.0,0.0,0.0,0.0,0.0,0.0,0.0,0.0,0.0,0.0,0.0,0.0,0.0,0.0,0.0,0.0,0.0,0.0,0.0,0.0,0.0,0.0,0.0,0.0,0.0,0.0,0.0,0.0,0.0,0.0,0.0,0.0,0.0,0.0,0.0,0.0,0.0,0.0,0.0,0.0,0.0,0.0,0.0,0.0,0.0,0.0,0.0,0.0,0.0,0.0,0.0,0.0,0.0,0.0,0.0,0.0,0.0,0.0,0.0,0.0,0.0,0.0,0.0,0.0,0.0,0.0,0.0,0.0,0.0,0.0,0.0,0.0,0.0,0.0,0.0,0.0,0.0,0.0,0.0,0.0,0.0,0.0,0.0,0.0,0.0,0.0,0.0,0.0,0.0,0.0,0.0,0.0,0.0,0.0,0.0,0.0,0.0,0.0,0.0,0.0,0.0,0.0,0.0,0.0,0.0,0.0,0.0,0.0,0.0,0.0,0.0,0.0,0.0,0.0,0.0,0.0,0.0,0.0,0.0,0.0,0.0,0.0,0.0,0.0,0.0,0.0,0.0,0.0,0.0,0.0,0.0,0.0,0.0,0.0,0.0,0.0,0.0,0.0,0.0,0.0,0.0,0.0,0.0,0.0,0.0,0.0,0.0,0.0,0.0,0.0,0.0,0.0,0.0,0.0,0.0,0.0,0.0,0.0,0.0,0.0,0.0,0.0,0.0,0.0,0.0,0.0,0.0,0.0,0.0,0.0,0.0,0.0,0.0,0.0,0.0,0.0,0.0,0.0,0.0,0.0,0.0,0.0,0.0,0.0,0.0,0.0,0.0,0.0,0.0,0.0,0.0,0.0,0.0,0.0,0.0,0.0,0.0,0.0,0.0,0.0,0.0,0.0,0.0,0.0,0.0,0.0,0.0,0.0,0.0,0.0,0.0,0.0,0.0,0.0,0.0,0.0,0.0,0.0,0.0,0.0,0.0,0.0,0.0,0.0,0.0,0.0,0.0,0.0,0.0,0.0,0.0,0.0,0.0,0.0,0.0,0.0,0.0,0.0,0.0,0.0,0.0,0.0,0.0,0.0,0.0,0.0,0.0,0.0,0.0,0.0,0.0,0.0,0.0,0.0,0.0,0.0,0.0,0.0,0.0,0.0,0.0,0.0,0.0,0.0,0.0,0.0,0.0,0.0,0.0,0.0,0.0,0.0,0.0,0.0,0.0,0.0,0.0,0.0,0.0,0.0,0.0,0.0,0.0,0.0,0.0,0.0,0.0,0.0,0.0,0.0,0.0,0.0,0.0,0.0,0.0,0.0,0.0,0.0,0.0,0.0,0.0,0.0,0.0,0.0,0.0,0.0,0.0,0.0,0.0,0.0,0.0,0.0,0.0,0.0,0.0,0.0,0.0,0.0,0.0,0.0,0.0,0.0,0.0,0.0,0.0,0.0,0.0,0.0,0.0,0.0,0.0,0.0,0.0,0.0,0.0,0.0,0.0,0.0,0.0,0.0,0.0,0.0,0.0,0.0,0.0,0.0,0.0,0.0,0.0,0.0,0.0,0.0,0.0,0.0,0.0,0.0,0.0,0.0,0.0,0.0,0.0,0.0,0.0,0.0,0.0,0.0,0.0,0.0,0.0,0.0,0.0,0.0,0.0,0.0,0.0,0.0,0.0,0.0,0.0,0.0,0.0,0.0,0.0,0.0,0.0,0.0,0.0,0.0,0.0,0.0,0.0,0.0,0.0,0.0,0.0,0.0,0.0,0.0,0.0,0.0,0.0,0.0,0.0,0.0,0.0,0.0,0.0,0.0,0.0,0.0,0.0,0.0,0.0,0.0,0.0,0.0,0.0,0.0,0.0,0.0,0.0,0.0,0.0,0.0,0.0,0.0,0.0,0.0,0.0,0.0,0.0,0.0,0.0,0.0,0.0,0.0,0.0,0.0,0.0,0.0,0.0,0.0,0.0,0.0,0.0,0.0,0.0,0.0,0.0,0.0,0.0,0.0,0.0,0.0,0.0,0.0,0.0,0.0,0.0,0.0,0.0,0.0,0.0,0.0,0.0,0.0,0.0,0.0,0.0,0.0,0.0,0.0,0.0,0.0,0.0,0.0,0.0,0.0,0.0,0.0,0.0,0.0,0.0,0.0,0.0,0.0,0.0,0.0,0.0,0.0,0.0,0.0,0.0,0.0,0.0,0.0,0.0,0.0,0.0,0.0,0.0,0.0,0.0,0.0,0.0,0.0,0.0,0.0,0.0,0.0,0.0,0.0,0.0,0.0,0.0,0.0,0.0,0.0,0.0,0.0,0.0,0.0,0.0,0.0,0.0,0.0,0.0,0.0,0.0,0.0,0.0,0.0,0.0,0.0,0.0,0.0,0.0,0.0,0.0,0.0,0.0,0.0,0.0,0.0,0.0,0.0,0.0,0.0,0.0,0.0,0.0,0.0,0.0,0.0,0.0,0.0,0.0,0.0,0.0,0.0,0.0,0.0,0.0,0.0,0.0,0.0,0.0,0.0,0.0,0.0,0.0,0.0,0.0,0.0,0.0,0.0,0.0,0.0,0.0,0.0,0.0,0.0,0.0,0.0,0.0,0.0,0.0,0.0,0.0,0.0,0.0,0.0,0.0,0.0,0.0,0.0,0.0,0.0,0.0,0.0,0.0,0.0,0.0,0.0,0.0,0.0,0.0,0.0,0.0,0.0,0.0,0.0,0.0,0.0,0.0,0.0,0.0,0.0,0.0,0.0,0.0,0.0,0.0,0.0,0.0,0.0,0.0,0.0,0.0,0.0,0.0,0.0,0.0,0.0,0.0,0.0,0.0,0.0,0.0,0.0,0.0,0.0,0.0,0.0,0.0,0.0,0.0,0.0,0.0,0.0,0.0,0.0,0.0,0.0,0.0,0.0,0.0,0.0,0.0,0.0,0.0,0.0,0.0,0.0,0.0,0.0,0.0,0.0,0.0,0.0,0.0,0.0,0.0,0.0,0.0,0.0,0.0,0.0,0.0,0.0,0.0,0.0,0.0,0.0,0.0,0.0,0.0,0.0,0.0,0.0,0.0,0.0,0.0,0.0,0.0,0.0,0.0,0.0,0.0,0.0,0.0,0.0,0.0,0.0,0.0,0.0,0.0,0.0,0.0,0.0,0.0,0.0,0.0,0.0,0.0,0.0,0.0,0.0,0.0,0.0,0.0,0.0,0.0,0.0,0.0,0.0,0.0,0.0,0.0,0.0,0.0,0.0,0.0,0.0,0.0,0.0,0.0,0.0,0.0,0.0,0.0,0.0,0.0,0.0,0.0,0.0,0.0,0.0,0.0,0.0,0.0,0.0,0.0,0.0,0.0,0.0,0.0,0.0,0.0,0.0,0.0,0.0,0.0,0.0,0.0,0.0,0.0,0.0,0.0,0.0,0.0,0.0,0.0,0.0,0.0,0.0,0.0,0.0,0.0,0.0,0.0,0.0,0.0,0.0,0.0,0.0,0.0,0.0,0.0,0.0,0.0,0.0,0.0,0.0,0.0,0.0,0.0,0.0,0.0,0.0,0.0,0.0,0.0,0.0,0.0,0.0,0.0,0.0,0.0,0.0,0.0,0.0,0.0,0.0,0.0,0.0,0.0,0.0,0.0,0.0,0.0,0.0,0.0,0.0,0.0,0.0,0.0,0.0,0.0,0.0,0.0,0.0,0.0,0.0,0.0,0.0,0.0,0.0,0.0,0.0,0.0,0.0,0.0,0.0,0.0,0.0,0.0,0.0,0.0,0.0,0.0,0.0,0.0,0.0,0.0,0.0,0.0,0.0,0.0,0.0,0.0,0.0,0.0,0.0,0.0,0.0,0.0,0.0,0.0,0.0,0.0,0.0,0.0,0.0,0.0,0.0,0.0,0.0,0.0,0.0,0.0,0.0,0.0,0.0,0.0,0.0,0.0,0.0,0.0,0.0,0.0,0.0,0.0,0.0,0.0,0.0,0.0,0.0,0.0,0.0,0.0,0.0,0.0,0.0,0.0,0.0,0.0,0.0,0.0,0.0,0.0,0.0,0.0,0.0,0.0,0.0,0.0,0.0,0.0,0.0,0.0,0.0,0.0,0.0,0.0,0.0,0.0,0.0,0.0,0.0,0.0,0.0,0.0,0.0,0.0,0.0,0.0,0.0,0.0,0.0,0.0,0.0,0.0,0.0,0.0,0.0,0.0,0.0,0.0,0.0,0.0,0.0,0.0,0.0,0.0,0.0,0.0,0.0,0.0,0.0,0.0,0.0,0.0,0.0,0.0,0.0,0.0,0.0,0.0,0.0,0.0,0.0,0.0,0.0,0.0,0.0,0.0,0.0,0.0,0.0,0.0,0.0,0.0,0.0,0.0,0.0,0.0,0.0,0.0,0.0,0.0,0.0,0.0,0.0,0.0,0.0,0.0,0.0,0.0,0.0,0.0,0.0,0.0,0.0,0.0,0.0,0.0,0.0,0.0,0.0,0.0,0.0,0.0,0.0,0.0,0.0,0.0,0.0,0.0,0.0,0.0,0.0,0.0,0.0,0.0,0.0,0.0,0.0,0.0,0.0,0.0,0.0,0.0,0.0,0.0,0.0,0.0,0.0,0.0,0.0,0.0,0.0,0.0,0.0,0.0,0.0,0.0,0.0,0.0,0.0,0.0,0.0,0.0,0.0,0.0,0.0,0.0,0.0,0.0,0.0,0.0,0.0,0.0,0.0,0.0,0.0,0.0,0.0,0.0,0.0,0.0,0.0,0.0,0.0,0.0,0.0,0.0,0.0,0.0,0.0,0.0,0.0,0.0,0.0,0.0,0.0,0.0,0.0,0.0,0.0,0.0,0.0,0.0,0.0,0.0,0.0,0.0,0.0,0.0,0.0,0.0,0.0,0.0,0.0,0.0,0.0,0.0,0.0,0.0,0.0,0.0,0.0,0.0,0.0,0.0,0.0,0.0,0.0,0.0,0.0,0.0,0.0,0.0,0.0,0.0,0.0,0.0,0.0,0.0,0.0,0.0,0.0,0.0,0.0,0.0,0.0,0.0,0.0,0.0,0.0,0.0,0.0,0.0,0.0,0.0,0.0,0.0,0.0,0.0,0.0,0.0,0.0,0.0,0.0,0.0,0.0,0.0,0.0,0.0,0.0,0.0,0.0,0.0,0.0,0.0,0.0,0.0,0.0,0.0,0.0,0.0,0.0,0.0,0.0,0.0,0.0,0.0,0.0,0.0,0.0,0.0,0.0,0.0,0.0,0.0,0.0,0.0,0.0,0.0,0.0,0.0,0.0,0.0,0.0,0.0,0.0,0.0,0.0,0.0,0.0,0.0,0.0,0.0,0.0,0.0,0.0,0.0,0.0,0.0,0.0,0.0,0.0,0.0,0.0,0.0,0.0,0.0,0.0,0.0,0.0,0.0,0.0,0.0,0.0,0.0,0.0,0.0,0.0,0.0,0.0,0.0,0.0,0.0,0.0,0.0,0.0,0.0,0.0,0.0,0.0,0.0,0.0,0.0,0.0,0.0,0.0,0.0,0.0,0.0,0.0,0.0,0.0,0.0,0.0,0.0,0.0,0.0,0.0,0.0,0.0,0.0,0.0,0.0,0.0,0.0,0.0,0.0,0.0,0.0,0.0,-2.5586,0.0,0.0,0.0,0.0,0.0,0.0,0.0,0.0,0.0,0.0,0.0,0.0,0.0,0.0,0.0,0.0,0.0,0.0,0.0,0.0,0.0,0.0,0.0,0.0,-2.4907,-2.5657,-2.5698,-2.5705,0.0,0.0,0.0,0.0,0.0,0.0,0.0,0.0,0.0,-2.0533,-2.0954,-2.1796,-2.3158,-2.4939,-2.4265,-2.3385,-2.2303,0.0,0.0,0.0,0.0,0.0,0.0,0.0,0.0,0.0,0.0,0.0,0.0,0.0,0.0,0.0,0.0,0.0,0.0,0.0,0.0,0.0,0.0,0.0,0.0,0.0,0.0,0.0,0.0,0.0,0.0,0.0,0.0,0.0,0.0,0.0,0.0,0.0,0.0,0.0,0.0,0.0,0.0,0.0,0.0,0.0,0.0,0.0,0.0,0.0,0.0,0.0,0.0,0.0,0.0,0.0,0.0,0.0,0.0,0.0,0.0,0.0,0.0,0.0,0.0,0.0,0.0,0.0,0.0,0.0,0.0,0.0,-2.5606,0.0,0.0,0.0,0.0,0.0,0.0,0.0,0.0,0.0,0.0,0.0,0.0,0.0,0.0,0.0,0.0,0.0,0.0,0.0,0.0,0.0,-2.2971,-2.3047,-2.4671,-2.5795,-2.5878,-2.5866,-2.5855,-2.5805,-2.5595,0.0,0.0,0.0,0.0,0.0,-2.0504,-2.0889,-2.1103,-2.3024,-2.4783,-2.6412,-2.6567,-2.5611,-2.3747,-2.3357,0.0,0.0,0.0,0.0,0.0,0.0,0.0,0.0,0.0,0.0,0.0,0.0,0.0,0.0,0.0,0.0,0.0,0.0,0.0,0.0,0.0,0.0,0.0,0.0,0.0,0.0,0.0,0.0,0.0,0.0,0.0,0.0,0.0,0.0,0.0,0.0,0.0,0.0,0.0,0.0,0.0,0.0,0.0,0.0,0.0,0.0,0.0,0.0,0.0,0.0,0.0,0.0,0.0,0.0,0.0,0.0,0.0,0.0,0.0,0.0,0.0,0.0,0.0,-2.7455,-2.7336,-2.7282,-2.7129,-2.6988,-2.6853,-2.6718,-2.6162,-2.5367,-2.5336,0.0,0.0,0.0,0.0,0.0,0.0,0.0,0.0,0.0,0.0,0.0,0.0,0.0,0.0,0.0,0.0,0.0,0.0,0.0,-2.2758,-2.2829,-2.5004,-2.6505,-2.6551,-2.6573,-2.656,-2.6565,-2.5774,0.0,0.0,0.0,0.0,-2.1258,-2.1225,-2.1835,-2.3124,-2.5681,-2.7166,-2.7579,-2.7829,-2.7547,-2.6737,-2.4818,-2.3583,-2.2979,0.0,0.0,0.0,0.0,0.0,0.0,0.0,0.0,0.0,0.0,0.0,0.0,0.0,0.0,0.0,0.0,0.0,0.0,0.0,0.0,0.0,0.0,0.0,0.0,0.0,0.0,0.0,0.0,0.0,0.0,0.0,0.0,0.0,0.0,0.0,0.0,0.0,0.0,0.0,0.0,0.0,-2.681,-2.7741,0.0,0.0,0.0,0.0,0.0,0.0,0.0,0.0,0.0,0.0,0.0,0.0,0.0,-2.6893,-2.6939,-2.6868,-2.7157,-2.7761,-2.768,-2.7916,-2.8386,-2.8255,-2.7809,-2.7154,-2.7232,0.0,-2.5995,-2.6154,0.0,0.0,0.0,0.0,0.0,0.0,0.0,0.0,0.0,0.0,0.0,0.0,0.0,0.0,0.0,0.0,0.0,0.0,0.0,0.0,0.0,-2.5313,-2.6489,-2.7039,-2.7121,-2.6959,-2.6506,-2.6011,0.0,0.0,0.0,-2.1824,-2.051,-2.1608,-2.3111,-2.4963,-2.625,-2.7266,-2.8016,-2.8323,-2.8197,-2.7636,-2.6744,-2.6099,-2.5639,-2.4697,0.0,0.0,0.0,0.0,0.0,0.0,0.0,0.0,0.0,0.0,0.0,0.0,0.0,0.0,0.0,0.0,0.0,0.0,0.0,0.0,0.0,0.0,0.0,0.0,0.0,0.0,0.0,0.0,0.0,0.0,0.0,0.0,0.0,0.0,0.0,0.0,0.0,0.0,0.0,-2.7041,-2.6968,-2.6891,-2.6994,-2.7419,0.0,0.0,0.0,0.0,0.0,0.0,0.0,0.0,0.0,-2.7006,-2.6841,-2.6942,-2.735,-2.7339,-2.7232,-2.7082,-2.6934,-2.6777,-2.6579,-2.6886,-2.6838,-2.6629,-2.7147,-2.6776,-2.5789,-2.5976,-2.5658,-2.4941,0.0,0.0,0.0,0.0,-2.0964,-2.0065,0.0,0.0,0.0,0.0,0.0,0.0,0.0,0.0,0.0,0.0,0.0,0.0,-2.4692,-2.5914,-2.7015,-2.7988,-2.8149,-2.7869,-2.7086,-2.654,-2.5174,-2.2813,-2.2575,-2.1906,-2.07,-2.2522,-2.4471,-2.6467,-2.6442,-2.7093,-2.8314,-2.8396,-2.8288,-2.8,-2.8155,-2.8001,-2.7561,-2.6417,-2.5722,-2.5261,0.0,0.0,0.0,0.0,0.0,0.0,0.0,0.0,0.0,0.0,0.0,0.0,0.0,0.0,0.0,0.0,0.0,0.0,0.0,0.0,0.0,0.0,0.0,0.0,0.0,0.0,0.0,0.0,0.0,0.0,0.0,0.0,0.0,0.0,0.0,0.0,0.0,-2.7513,-2.7135,-2.6422,-2.6715,-2.7086,0.0,0.0,0.0,0.0,0.0,0.0,-2.6749,-2.6081,-2.6021,-2.6691,-2.6508,-2.6679,-2.732,-2.7332,-2.6988,-2.6394,-2.6061,-2.5584,-2.5,-2.5493,-2.5766,-2.5877,-2.6547,-2.6231,-2.5243,-2.5651,-2.5375,-2.4626,-2.3988,-2.3769,-2.3634,-2.2487,-2.1606,-2.0859,0.0,0.0,0.0,0.0,0.0,0.0,0.0,0.0,0.0,0.0,0.0,-2.413,-2.4908,-2.7014,-2.8785,-2.9766,-2.9991,-2.9786,-2.9111,-2.7508,-2.5993,-2.4733,-2.286,-2.23,-2.3289,-2.4406,-2.5781,-2.7446,-2.6877,-2.7278,-2.8551,-2.8006,-2.7931,-2.8278,-2.8431,-2.8001,-2.7238,-2.7278,-2.6497,-2.5219,-2.5215,0.0,0.0,0.0,0.0,0.0,0.0,0.0,0.0,0.0,0.0,0.0,0.0,0.0,0.0,0.0,0.0,0.0,0.0,0.0,0.0,0.0,0.0,0.0,0.0,0.0,0.0,0.0,0.0,0.0,0.0,0.0,0.0,0.0,0.0,0.0,0.0,0.0,0.0,-2.727,-2.6388,0.0,0.0,0.0,0.0,-2.8276,-2.7309,-2.6844,-2.7255,-2.5969,-2.5533,-2.6201,-2.5913,-2.5874,-2.6095,-2.6023,-2.6057,-2.6127,-2.5379,-2.5012,-2.491,-2.5061,-2.5129,-2.5162,-2.5247,-2.5007,-2.4539,-2.5494,-2.519,-2.4096,-2.3545,-2.3489,-2.3552,-2.2344,-2.1413,-2.0529,0.0,0.0,0.0,-2.3815,-2.3572,-2.3192,-2.2189,-2.1906,-2.2076,-2.2864,-2.3584,-2.4644,-2.6286,-2.7606,-2.8818,-2.9901,-3.0188,-2.9826,-2.8707,-2.7483,-2.5817,-2.3601,-2.3033,-2.3156,-2.3933,-2.4103,-2.4719,-2.5821,-2.5749,-2.6151,-2.6978,-2.6973,-2.7172,-2.7477,-2.7701,-2.7701,-2.7541,-2.7624,-2.7494,-2.7135,-2.5707,-2.4679,0.0,0.0,0.0,0.0,0.0,0.0,0.0,0.0,0.0,0.0,0.0,0.0,0.0,0.0,0.0,0.0,0.0,0.0,0.0,0.0,0.0,0.0,0.0,0.0,0.0,0.0,0.0,0.0,0.0,0.0,0.0,0.0,0.0,0.0,0.0,0.0,0.0,-2.5941,-2.5298,0.0,-2.5322,-2.5351,-2.5646,-2.6437,-2.6062,-2.5746,-2.5677,-2.5009,-2.4756,-2.5022,-2.487,-2.4863,-2.4957,-2.4934,-2.4689,-2.423,-2.4052,-2.3792,-2.3435,-2.361,-2.3802,-2.3994,-2.3943,-2.3553,-2.2932,-2.3254,-2.338,-2.3347,-2.3552,-2.3869,-2.4136,-2.3441,-2.2461,-2.1269,0.0,0.0,0.0,-2.3956,-2.3752,-2.3454,-2.275,-2.2447,-2.2654,-2.3651,-2.4226,-2.5235,-2.7055,-2.8049,-2.9006,-3.0127,-3.0468,-3.0015,-2.8665,-2.7472,-2.5858,-2.363,-2.3629,-2.3691,-2.3683,-2.3887,-2.4147,-2.4486,-2.4736,-2.5205,-2.5783,-2.6142,-2.6454,-2.6774,-2.697,-2.7175,-2.7412,-2.7546,-2.7794,-2.7959,-2.6552,-2.5596,-2.4889,0.0,0.0,0.0,0.0,0.0,0.0,0.0,0.0,0.0,0.0,0.0,0.0,0.0,0.0,0.0,0.0,0.0,0.0,0.0,0.0,0.0,0.0,0.0,0.0,0.0,0.0,0.0,0.0,0.0,0.0,0.0,0.0,0.0,0.0,0.0,-2.6034,-2.4851,-2.4329,-2.401,-2.3872,-2.3835,-2.4063,-2.4601,-2.4515,-2.4351,-2.4122,-2.3869,-2.3819,-2.3948,-2.3937,-2.4036,-2.4147,-2.4105,-2.3834,-2.3336,-2.3218,-2.2985,-2.2678,-2.2717,-2.2828,-2.3032,-2.2702,-2.2236,-2.1708,-2.1315,-2.1392,-2.182,-2.2941,-2.3737,-2.42,-2.368,-2.2492,-2.0748,0.0,0.0,-2.4495,-2.4495,-2.4393,-2.4247,-2.4116,-2.3756,-2.3667,-2.4059,-2.4889,-2.5899,-2.7085,-2.8333,-2.9527,-3.059,-3.083,-3.04,-2.9141,-2.7556,-2.6135,-2.4977,-2.456,-2.3805,-2.2705,-2.3835,-2.4179,-2.3651,-2.4002,-2.448,-2.5144,-2.5481,-2.5885,-2.626,-2.6349,-2.6505,-2.6774,-2.7053,-2.73,-2.7488,-2.7756,-2.6599,-2.4678,0.0,0.0,0.0,0.0,0.0,0.0,0.0,0.0,0.0,0.0,0.0,0.0,0.0,0.0,0.0,0.0,0.0,0.0,0.0,0.0,0.0,0.0,0.0,0.0,0.0,0.0,0.0,0.0,0.0,0.0,0.0,0.0,0.0,-2.5967,-2.5475,-2.4687,-2.4163,-2.3541,-2.3053,-2.2908,-2.2716,-2.2642,-2.2775,-2.2671,-2.2624,-2.2696,-2.268,-2.2754,-2.3038,-2.3216,-2.3392,-2.3551,-2.3494,-2.3494,-2.3551,-2.2897,-2.2709,-2.2864,-2.2462,-2.2293,-2.2291,-2.1574,-2.1121,-2.0871,-1.9863,-1.9405,-1.9546,-2.1635,-2.2962,-2.3654,-2.2836,-2.1086,-1.8434,-2.4874,-2.4559,-2.4393,-2.4303,-2.4209,-2.4075,-2.3777,-2.385,-2.3999,-2.4223,-2.5378,-2.6406,-2.6983,-2.8286,-2.9287,-2.9729,-2.9683,-2.9234,-2.8296,-2.6813,-2.531,-2.3761,-2.3209,-2.2869,-2.2688,-2.2857,-2.2853,-2.2665,-2.298,-2.342,-2.4032,-2.4415,-2.4855,-2.5291,-2.5615,-2.5924,-2.6243,-2.6521,-2.667,-2.6801,-2.7004,-2.6817,-2.6292,0.0,0.0,0.0,0.0,0.0,0.0,0.0,0.0,0.0,0.0,0.0,0.0,0.0,0.0,0.0,0.0,0.0,0.0,0.0,0.0,0.0,0.0,0.0,0.0,0.0,0.0,0.0,0.0,0.0,0.0,0.0,0.0,-2.2867,-2.4011,-2.3345,-2.2556,-2.2038,-2.1458,-2.1005,-2.0837,-2.0716,-2.0617,-2.0667,-2.0578,-2.0641,-2.089,-2.1259,-2.1704,-2.2221,-2.274,-2.3024,-2.3113,-2.3068,-2.2949,-2.2723,-2.2655,-2.2469,-2.2245,-2.1883,-2.1605,-2.1332,-2.0485,-1.9966,-1.9642,-1.8822,-1.814,-1.786,-2.0011,-2.1593,-2.2416,-1.9862,-1.4348,-0.8233,-2.4505,-2.4266,-2.4228,-2.4133,-2.3996,-2.3795,-2.3477,-2.3664,-2.391,-2.4058,-2.5338,-2.6338,-2.6741,-2.7951,-2.8811,-2.8997,-2.8666,-2.8148,-2.7352,-2.5791,-2.4255,-2.2761,-2.276,-2.2593,-2.2142,-2.211,-2.1966,-2.1657,-2.1941,-2.2392,-2.298,-2.339,-2.3903,-2.4389,-2.4776,-2.5182,-2.5535,-2.5795,-2.5908,-2.5969,-2.5964,-2.6083,-2.6204,-2.5315,-2.4594,-2.3975,-2.3714,-2.3531,-2.3401,-2.3359,0.0,0.0,0.0,0.0,0.0,0.0,0.0,0.0,0.0,0.0,0.0,0.0,0.0,0.0,0.0,0.0,0.0,0.0,0.0,0.0,0.0,0.0,0.0,0.0,-2.1157,-2.0831,-2.1138,-2.1063,-2.0806,-2.0393,-1.9864,-1.9478,-1.9254,-1.898,-1.8756,-1.8703,-1.872,-1.8931,-1.9349,-2.008,-2.0779,-2.1534,-2.2282,-2.2723,-2.2768,-2.2678,-2.2449,-2.2137,-2.2231,-2.209,-2.1743,-2.1391,-2.1094,-2.0745,-1.9901,-1.9221,-1.8688,-1.7706,-1.6594,0.0,0.0,0.0,0.0,0.0,-0.5178,0.0383,-2.4629,-2.426,-2.4164,-2.3994,-2.3753,-2.3477,-2.3206,-2.3386,-2.359,-2.3687,-2.4968,-2.6002,-2.6421,-2.7394,-2.8128,-2.824,-2.7674,-2.7024,-2.6207,-2.4605,-2.3169,-2.2077,-2.2737,-2.2588,-2.1375,-2.1539,-2.1336,-2.0696,-2.0881,-2.1293,-2.1838,-2.2303,-2.2817,-2.339,-2.3803,-2.4236,-2.4672,-2.4926,-2.5005,-2.5012,-2.4729,-2.4804,-2.5146,-2.5229,-2.4807,-2.4242,-2.4631,-2.4975,-2.5207,-2.4823,0.0,0.0,0.0,0.0,0.0,0.0,0.0,0.0,0.0,0.0,0.0,0.0,0.0,0.0,0.0,0.0,0.0,0.0,0.0,0.0,0.0,0.0,0.0,0.0,-1.9371,-1.8684,-1.8081,-1.8797,-1.931,-1.9073,-1.862,-1.8201,-1.7929,-1.7457,-1.7158,-1.6991,-1.7113,-1.7434,-1.7935,0.0,0.0,0.0,0.0,-2.237,-2.2509,-2.2278,-2.1996,-2.1746,-2.1677,-2.1518,-2.1234,-2.094,-2.0659,-2.0324,-1.9574,-1.8793,-1.792,-1.659,-1.4526,-1.2315,-1.4039,-1.2449,-0.8255,-0.0594,0.4619,0.7572,-2.5248,-2.492,-2.4657,-2.3894,-2.3576,-2.3307,-2.2925,-2.3413,-2.3654,-2.3211,-2.4939,-2.618,-2.6092,-2.6761,-2.7296,-2.7423,-2.6396,-2.5236,-2.4101,-2.3334,-2.2696,-2.2186,-2.2133,-2.1822,-2.1229,-2.0891,-2.0526,-2.0144,-1.9812,-1.9825,-2.0155,-2.0492,-2.0957,-2.1566,-2.214,-2.2744,-2.3331,-2.3646,-2.3876,-2.3879,-2.3636,-2.3948,-2.4617,-2.443,-2.3989,-2.3539,-2.3835,-2.3847,-2.3781,-2.4054,-2.4555,-2.5127,-2.5363,-2.5671,0.0,0.0,0.0,0.0,0.0,0.0,0.0,0.0,0.0,0.0,0.0,0.0,0.0,0.0,0.0,0.0,0.0,0.0,0.0,-1.9283,-1.849,-1.7809,-1.7479,-1.7401,-1.7446,-1.7611,-1.7224,-1.6944,-1.6821,-1.6291,-1.5881,-1.5756,-1.5786,-1.6016,-1.662,-1.7741,-1.8855,-1.9965,-2.1051,-2.1684,-2.1793,-2.1841,-2.1712,-2.1326,0.0,0.0,-2.0325,-2.0185,-1.9914,-1.959,-1.9145,-1.8472,-1.7518,-1.5334,-1.0533,-0.4747,-0.7085,-0.4686,0.0575,0.5087,0.9529,1.2694,-2.6065,-2.5279,-2.4685,-2.4193,-2.3543,-2.2985,-2.2616,-2.3234,-2.3552,-2.3032,-2.4686,-2.5854,-2.5693,-2.6306,-2.6704,-2.675,-2.547,-2.4134,-2.2949,-2.242,-2.2016,-2.1793,-2.1568,-2.1215,-2.0822,-2.0156,-1.9527,-1.9044,-1.8412,-1.8228,-1.8419,-1.8584,-1.9083,-1.9801,-2.0562,-2.1363,-2.214,-2.2593,-2.2906,-2.3009,-2.2575,-2.2577,-2.2878,-2.3157,-2.3079,-2.2867,-2.3269,-2.3412,-2.3525,-2.4032,-2.4612,-2.5195,-2.5373,-2.5806,-2.6276,0.0,0.0,0.0,0.0,0.0,0.0,0.0,0.0,0.0,0.0,0.0,0.0,0.0,0.0,-2.1613,0.0,0.0,-1.9221,-1.8537,-1.7863,-1.7457,-1.7357,-1.7134,-1.7011,-1.7067,-1.6684,-1.6332,-1.6208,-1.5633,-1.5284,-1.5167,-1.5294,-1.569,-1.6368,-1.7501,-1.8638,-1.9606,-2.0534,-2.1042,-2.1202,-2.1202,-2.1104,-2.0908,-2.0481,-2.017,-1.9984,-1.9904,-1.9686,-1.9339,-1.8846,-1.7879,-1.6237,-1.1167,-0.4982,0.1407,0.2938,0.5673,0.9242,1.3268,1.5913,1.6713,-2.6894,-2.5738,-2.4835,-2.4625,-2.3816,-2.3072,-2.2717,-2.3303,-2.3643,-2.3147,-2.4563,-2.5512,-2.5219,-2.5725,-2.5988,-2.5689,-2.4373,-2.3115,-2.2142,-2.1623,-2.1251,-2.1118,-2.0934,-2.0686,-2.0372,-1.9579,-1.8792,-1.8027,-1.7113,-1.6645,-1.668,-1.6804,-1.728,-1.8105,-1.8992,-1.999,-2.1046,-2.1602,-2.2021,-2.2282,-2.1704,-2.1321,-2.1126,-2.1799,-2.2021,-2.2086,-2.2548,-2.2966,-2.3387,-2.3838,-2.4429,-2.4896,-2.4872,-2.534,-2.59,-2.6065,-2.6294,0.0,0.0,0.0,0.0,0.0,0.0,0.0,0.0,0.0,-2.2178,-2.134,-2.0925,-2.0386,-1.9361,-1.899,-1.865,-1.8093,-1.7776,-1.7655,-1.7852,-1.7775,-1.7665,-1.7567,-1.6821,-1.6218,-1.6104,-1.5526,-1.5186,-1.5245,-1.5517,-1.6016,-1.6687,-1.7841,-1.8821,-1.9656,-2.0258,-2.066,-2.0822,-2.0723,-2.062,-2.0502,-2.0131,-1.9871,-1.9704,-1.9583,-1.9348,-1.9049,-1.7836,-1.599,-1.3286,-0.5967,0.0595,0.6601,1.2013,1.5013,1.6771,2.0383,2.092,1.891,-2.7525,-2.6631,-2.5715,-2.5068,-2.4747,-2.4445,-2.4068,-2.4315,-2.4372,-2.3872,-2.4932,-2.5524,-2.4826,-2.4907,-2.4542,-2.3453,-2.2507,-2.1764,-2.1253,-2.0657,-2.0295,-2.0144,-2.022,-2.0283,-2.0233,-1.9359,-1.8519,-1.7643,-1.6384,-1.5535,-1.5129,-1.5177,-1.5573,-1.6363,-1.7522,-1.8761,-2.0004,-2.0683,-2.1237,-2.165,-2.1104,-2.0795,-2.066,-2.051,-2.066,-2.0979,-2.1161,-2.1657,-2.2235,-2.2575,-2.3054,-2.3613,-2.4287,-2.4944,-2.5754,-2.713,-2.7889,-2.8233,-2.8268,-2.7341,0.0,-2.4896,-2.4541,-2.4293,0.0,0.0,-2.179,-2.0887,-2.0332,-1.9737,-1.8911,-1.872,-1.8661,-1.8489,-1.8691,-1.9036,-1.9544,-1.9443,-1.9418,-1.9648,-1.7904,-1.6719,-1.6719,-1.6234,-1.5928,-1.6079,-1.6455,-1.7003,-1.762,-1.8496,-1.9322,-1.994,-2.0346,-2.0686,-2.0888,-2.0888,-2.0611,-2.007,-1.9582,-1.9297,-1.91,-1.8641,-1.8453,-1.8224,-1.4798,-1.1018,-0.6815,-0.1142,0.4749,1.0602,1.5501,1.9026,2.147,2.2268,2.0787,1.7424,-2.7324,-2.6926,-2.6353,-2.5552,-2.4978,-2.4384,-2.367,-2.3901,-2.3878,-2.3074,-2.3855,-2.4351,-2.4047,-2.442,-2.4268,-2.3335,-2.2609,-2.1809,-2.0801,-1.9927,-1.9438,-1.9334,-1.9399,-1.9619,-2.0055,-1.9254,-1.8489,-1.785,-1.6317,-1.5439,-1.5167,-1.4923,-1.5313,-1.6327,-1.7423,-1.8655,-1.9991,-2.0633,-2.1251,-2.1664,-2.0957,-2.0709,-2.066,-2.0258,-2.0534,-2.1197,-2.1237,-2.1506,0.0,-2.231,-2.2694,-2.3054,-2.3634,-2.4256,-2.5041,-2.6155,-2.7073,-2.7672,-2.736,-2.6151,0.0,0.0,-2.2996,-2.235,-2.1634,-2.0775,-2.0065,-1.9467,-1.9089,-1.8809,-1.862,-1.8756,-1.9036,0.0,-1.9952,-2.0539,-2.1097,-2.1179,-2.1247,-2.145,-2.0558,-1.9458,-1.8289,-1.7878,-1.7801,-1.8016,-1.8443,-1.8927,-1.9379,-1.9927,-2.0382,-2.0683,-2.0832,-2.1006,-2.1082,-2.0934,-2.0545,-1.9977,-1.9443,-1.8937,-1.8526,-1.7963,-1.6718,-1.4806,-1.1039,-0.6778,-0.2041,0.342,0.8769,1.3915,1.7833,2.0704,2.2667,2.2555,2.025,1.6205,-2.7215,-2.7087,-2.6804,-2.6177,-2.5351,-2.4481,-2.3539,-2.3652,-2.3572,-2.2734,-2.319,-2.3601,-2.3702,-2.4015,-2.4064,-2.3683,-2.299,-2.2079,-2.0824,-1.9659,-1.9008,-1.8967,-1.9032,-1.9438,-2.0244,-1.9684,-1.9129,-1.8665,-1.7115,-1.6218,-1.5955,-1.5505,-1.5898,-1.7003,-1.802,-1.9196,-2.0468,-2.1002,-2.1527,-2.1902,-2.1104,-2.0957,-2.1091,-2.0706,-2.1048,-2.1699,-2.1348,-2.1503,-2.1893,-2.201,-2.2161,-2.2411,-2.2842,-2.3386,-2.4092,-2.5147,-2.6265,-2.6977,-2.6126,0.0,0.0,-2.2403,-2.1328,-2.0388,-1.9851,-1.9141,-1.8608,-1.8471,-1.8534,-1.8724,-1.9131,-1.9676,-2.0259,-2.0974,-2.1506,-2.202,-2.2566,-2.279,-2.2922,-2.3054,-2.2908,-2.2269,-2.0858,-2.0124,-1.9838,-2.0176,-2.045,-2.0686,-2.0984,-2.128,-2.1452,-2.1561,-2.1513,-2.1513,-2.1513,-2.1188,-2.0585,-1.976,-1.912,-1.8326,-1.7488,-1.6287,-1.3972,-1.0757,-0.6852,-0.2299,0.2679,0.7898,1.2652,1.6959,1.9865,2.1772,2.2702,2.1552,1.8765,1.465,-2.7376,-2.7186,-2.6975,-2.6957,-2.618,-2.5225,-2.4213,-2.4065,-2.3935,-2.35,-2.3635,-2.3885,-2.4161,-2.3667,-2.3566,-2.4112,-2.3188,-2.2247,-2.1417,-2.0041,-1.9242,-1.9174,-1.9331,-1.9876,-2.0944,-2.0797,-2.062,-2.0329,-1.8963,-1.7996,-1.7332,-1.7038,-1.7323,-1.8077,-1.9241,-2.0302,-2.1274,-2.1683,-2.2067,-2.2324,-2.1664,-2.1616,-2.1969,-2.1932,-2.2087,-2.214,-2.1159,-2.1322,-2.1913,-2.141,-2.127,-2.1416,-2.1816,-2.224,-2.2917,-2.4836,-2.6158,-2.6646,-2.5009,0.0,-2.2526,-2.0795,-1.9775,-1.9036,-1.8661,-1.8213,-1.8007,-1.8278,-1.9143,-2.0109,-2.0899,-2.1712,-2.2525,-2.3203,-2.3391,-2.3548,-2.3964,-2.4199,-2.4389,-2.4527,-2.4592,-2.4617,0.0,-2.2893,-2.1885,-2.2112,-2.209,-2.2086,-2.2221,-2.2203,-2.2263,-2.2466,-2.2314,-2.2267,-2.2267,-2.1827,-2.0752,-1.9099,-1.8397,-1.7251,-1.566,-1.3017,-0.9931,-0.6439,-0.2215,0.2647,0.7923,1.2392,1.6327,1.9759,2.1755,2.2541,2.2142,1.8997,1.5993,1.256,-2.7362,-2.7154,-2.6853,-2.6358,-2.5482,-2.458,-2.3701,-2.3553,-2.3491,-2.3303,-2.3924,0.0,0.0,0.0,0.0,0.0,-2.4694,-2.4029,-2.3001,-2.1633,-2.0873,-2.0775,-2.0783,-2.1412,-2.2687,-2.2714,-2.278,-2.2851,-2.1626,-2.0905,-2.0617,-2.0136,-2.0284,-2.1041,-2.1738,-2.2393,-2.3024,-2.3229,-2.3332,-2.3376,-2.2951,-2.2996,-2.3213,-2.2805,-2.3108,-2.3528,0.0,-2.1781,-2.2439,-2.2307,-2.2267,-2.2319,-2.2514,-2.2769,-2.3239,-2.4659,-2.4474,-2.3767,-2.3409,-2.2048,-2.0488,-1.9503,-1.8756,-1.8298,-1.8375,-1.8309,-1.8478,-1.9064,-2.0204,-2.1367,-2.2201,-2.335,-2.4418,-2.5012,-2.5028,-2.506,-2.53,-2.5154,-2.5013,-2.513,-2.5169,0.0,0.0,0.0,0.0,-2.3788,-2.3535,-2.3319,-2.3187,-2.2918,-2.2873,-2.3038,-2.2799,-2.2649,-2.2558,-2.1615,-2.0184,-1.8202,-1.5552,-1.342,-1.1768,-0.9053,-0.562,-0.153,0.3111,0.7853,1.2677,1.6327,1.9264,2.1513,2.2397,2.2014,2.0475,1.6422,1.1855,0.7076,-2.7316,-2.7105,-2.6788,-2.6343,-2.5484,0.0,0.0,0.0,0.0,0.0,0.0,0.0,0.0,0.0,0.0,0.0,0.0,-2.5815,-2.4837,-2.3608,-2.292,-2.281,-2.2776,-2.3335,-2.4603,-2.48,-2.5061,-2.5361,-2.4379,-2.383,-2.3669,-2.3176,-2.3228,-2.3795,-2.42,-2.4573,-2.4884,-2.4872,-2.4662,-2.4225,-2.3975,-2.3881,-2.3834,-2.3567,-2.3851,0.0,-2.2948,-2.2631,-2.2781,-2.2281,-2.2296,-2.2522,-2.2504,-2.2699,-2.305,-2.3696,-2.292,-2.1816,-2.176,-2.0514,-1.9097,-1.8673,-1.8363,-1.8309,-1.8768,-1.9089,-1.9647,-2.0736,-2.2201,-2.366,-2.4809,-2.5807,-2.6546,-2.6934,-2.645,-2.5983,-2.5817,-2.5638,-2.5417,-2.524,-2.5378,-2.5508,0.0,0.0,0.0,-2.4759,-2.4302,-2.3882,-2.3595,-2.3246,-2.3068,-2.3127,-2.2785,-2.2363,-2.1862,-2.0496,-1.8411,-1.5554,-1.2538,-0.9996,-0.7853,-0.4876,-0.0907,0.3931,0.8558,1.3211,1.7684,2.0493,2.2439,2.3614,2.3112,2.1384,1.8633,1.3622,0.8063,0.2603,-2.7471,-2.7142,-2.6995,0.0,0.0,0.0,0.0,0.0,0.0,0.0,0.0,0.0,0.0,0.0,0.0,0.0,0.0,0.0,-2.6869,-2.5912,-2.5302,-2.5171,-2.5167,-2.5614,-2.6543,-2.701,-2.7368,-2.7643,-2.7038,-2.6591,-2.6278,-2.5939,-2.59,-2.6031,-2.6333,-2.6515,-2.6575,-2.6485,-2.5853,-2.4891,-2.4746,-2.436,-2.3927,-2.4223,-2.4267,-2.4173,-2.4208,-2.376,-2.2926,-2.1521,-2.1479,-2.2041,-2.191,-2.2082,-2.234,-2.2127,-2.1539,-2.083,-2.0211,-1.9258,-1.8471,-1.8321,-1.8525,-1.8955,-1.98,-2.0515,-2.1452,-2.3209,-2.5079,-2.6927,0.0,0.0,-2.8889,-2.8857,-2.7595,-2.6355,-2.5555,-2.5686,-2.5636,0.0,0.0,0.0,0.0,0.0,0.0,-2.4966,0.0,-2.3882,-2.3638,-2.3142,-2.2873,-2.2889,-2.2317,-2.1397,-2.0145,-1.8406,-1.5477,-1.1406,-0.9425,-0.6972,-0.4115,-0.0573,0.4153,0.977,1.4085,1.8521,2.2872,2.4673,2.5685,2.5899,2.378,2.0616,1.6532,1.0583,0.4713,-0.0657,0.0,0.0,0.0,0.0,0.0,0.0,0.0,0.0,0.0,0.0,0.0,0.0,0.0,0.0,0.0,0.0,0.0,0.0,-2.8594,-2.801,-2.7592,-2.7451,-2.7458,-2.7454,-2.7467,-2.8461,-2.8745,-2.835,-2.8567,-2.8278,-2.7526,-2.7243,-2.6816,-2.6235,-2.6315,-2.6285,-2.6144,-2.6033,-2.5732,-2.5346,-2.5331,-2.5311,-2.5258,-2.5013,-2.4983,-2.4894,-2.3583,-2.3482,-2.3862,-2.3055,0.0,0.0,0.0,-2.2276,-2.1797,-2.1471,-2.0526,-1.9538,-1.9047,-1.8513,-1.8159,-1.8513,-1.9113,-1.9889,-2.1027,-2.2488,-2.3881,-2.5022,-2.7225,-2.9022,0.0,0.0,0.0,-2.9479,-2.817,0.0,-2.6044,-2.5654,0.0,-2.4683,0.0,-2.4806,-2.4871,-2.4766,0.0,0.0,-2.4219,-2.4036,-2.3882,-2.326,-2.274,-2.2469,-2.1247,-1.9771,-1.808,-1.4217,-1.1088,-0.8737,-0.6662,-0.3778,-0.0275,0.3795,0.8679,1.4216,1.8921,2.2795,2.5864,2.6827,2.6923,2.6018,2.2266,1.799,1.3167,0.6795,0.1181,-0.371,0.0,0.0,0.0,0.0,0.0,0.0,0.0,0.0,0.0,0.0,0.0,0.0,0.0,0.0,0.0,0.0,0.0,0.0,0.0,-2.9548,-2.9206,-2.871,-2.8687,-2.8433,-2.7893,-2.8584,-2.8772,-2.8423,-2.8666,-2.8525,-2.7999,-2.7796,-2.7433,-2.6958,-2.6958,-2.6862,-2.6698,-2.6599,-2.624,0.0,0.0,-2.5671,-2.541,-2.5176,-2.5132,-2.5059,-2.3839,-2.3643,-2.3915,0.0,0.0,-2.2792,-2.2683,-2.2043,-2.1298,-2.0726,0.0,-1.869,-1.8419,-1.8201,-1.8244,-1.9101,-2.0116,-2.1295,-2.3007,-2.4587,-2.6166,-2.8036,-2.9842,0.0,0.0,0.0,0.0,0.0,0.0,0.0,-2.6046,-2.5682,-2.5192,0.0,-2.4276,0.0,-2.4369,-2.4343,-2.4302,0.0,-2.4036,-2.3909,-2.3839,-2.3201,-2.2483,-2.1824,-2.0036,-1.747,-1.4099,-1.0728,-0.816,-0.6338,-0.4204,-0.0988,0.3199,0.8009,1.3303,1.8879,0.0,2.6672,2.9026,2.9285,2.8197,2.5849,2.1116,1.5653,0.9699,0.3318,-0.1931,-0.6303,0.0,0.0,0.0,0.0,0.0,0.0,0.0,0.0,0.0,-2.7787,-2.8167,-2.893,0.0,0.0,0.0,0.0,0.0,0.0,0.0,0.0,-3.0084,-2.9289,-2.9146,-2.8703,-2.7884,-2.8047,-2.8106,-2.804,-2.8033,-2.798,-2.7865,-2.7757,-2.7636,-2.7516,-2.7516,-2.7453,-2.7333,-2.7277,-2.6765,-2.6022,-2.6014,-2.5639,-2.5075,0.0,-2.505,-2.4987,-2.465,-2.4171,-2.3751,-2.3933,-2.3272,-2.235,-2.2309,-2.1712,-2.0835,-2.0029,-1.9109,-1.8333,-1.8104,-1.819,-1.8638,-1.994,-2.1227,-2.2863,-2.5201,-2.6711,-2.8399,-3.1216,0.0,-3.3029,-3.316,-3.2497,-3.1418,-2.9873,0.0,-2.7516,-2.5961,-2.5843,-2.5394,-2.4083,-2.4046,-2.4128,-2.4036,-2.4021,-2.4021,-2.4021,-2.3867,-2.3739,-2.3638,-2.3024,-2.2025,-2.0575,-1.8341,-1.482,-0.9831,-0.8174,-0.6273,-0.4305,-0.1997,0.1618,0.6534,1.213,1.7733,2.334,2.7157,3.0006,3.1849,3.1293,2.8971,2.5175,1.9599,1.3112,0.6195,0.0114,-0.4643,-0.824,0.0,0.0,0.0,0.0,0.0,0.0,0.0,0.0,0.0,0.0,-2.9654,-2.9048,0.0,0.0,0.0,0.0,0.0,0.0,0.0,0.0,0.0,-2.9549,-2.8839,-2.8057,-2.7185,-2.7889,-2.793,-2.7206,-2.7903,-2.7876,-2.7166,-2.7153,-2.6754,-2.6065,-2.6065,-2.6057,-2.6026,-2.596,-2.5799,-2.5595,-2.5596,-2.5536,-2.5406,-2.5352,0.0,0.0,-2.5596,-2.5346,-2.4928,-2.5029,-2.4015,-2.2656,-2.2512,-2.1703,-2.0607,-1.9519,-1.869,-1.8057,-1.7679,-1.8093,-1.8996,-2.0453,-2.2013,-2.3823,-2.6276,-2.8664,0.0,0.0,-3.3701,-3.4391,-3.3716,-3.2454,-3.114,-3.0005,0.0,0.0,0.0,0.0,-2.5976,0.0,0.0,0.0,0.0,0.0,0.0,0.0,0.0,-2.3797,-2.3782,-2.3113,-2.1131,-1.7741,-1.5172,-1.235,-0.9342,-0.7683,-0.5621,-0.329,-0.0312,0.436,1.0502,1.5735,2.1197,2.6664,3.0119,0.0,3.2783,3.0684,2.7469,2.3145,1.5672,0.8933,0.2777,-0.2943,-0.6675,-0.8949,0.0,0.0,0.0,0.0,0.0,0.0,0.0,-3.2365,-3.2708,-3.3451,-3.2291,-3.1259,-3.0941,-3.0741,-3.0696,0.0,0.0,0.0,0.0,0.0,0.0,-2.8914,-2.8472,0.0,-2.6358,-2.6733,0.0,0.0,0.0,-2.6734,-2.6319,-2.632,-2.6106,-2.5696,-2.5697,-2.5697,-2.5696,-2.5668,-2.5622,-2.5593,-2.5593,-2.587,-2.6275,0.0,0.0,0.0,-2.6879,-2.6477,-2.5849,-2.6013,-2.5373,-2.4256,-2.3137,-2.2261,-2.1364,-1.9866,-1.9067,-1.8572,-1.8046,-1.8608,-1.9736,-2.1383,-2.3347,-2.5511,-2.7912,0.0,0.0,0.0,-3.5051,-3.5164,-3.4312,-3.2791,0.0,-2.9766,0.0,0.0,0.0,0.0,0.0,0.0,0.0,0.0,0.0,0.0,0.0,0.0,0.0,-2.3797,-2.3797,-2.2667,-2.0594,-1.7492,-1.4992,-1.2462,-0.9819,-0.7906,-0.5335,-0.2274,0.156,0.6904,1.3431,1.899,2.4219,2.9072,3.1929,0.0,3.2342,2.9497,2.498,1.9158,1.1939,0.5293,-0.0676,-0.5251,-0.7986,-0.9424,0.0,0.0,0.0,0.0,0.0,0.0,0.0,-3.4098,-3.441,-3.5541,-3.4981,-3.4094,-3.3161,-3.216,-3.1561,0.0,0.0,0.0,0.0,0.0,0.0,0.0,0.0,0.0,0.0,0.0,0.0,0.0,0.0,0.0,0.0,0.0,0.0,0.0,-2.5976,-2.5879,-2.5703,-2.5703,-2.5702,0.0,0.0,-2.6392,0.0,0.0,0.0,0.0,0.0,-2.7624,-2.6988,-2.7009,-2.6866,-2.6354,-2.4644,-2.3482,-2.2434,-2.0846,-1.9947,-1.9287,-1.8729,-1.9374,-2.0565,-2.2207,-2.4606,-2.7052,-2.933,-3.1946,0.0,0.0,-3.6146,-3.5652,-3.4888,-3.3128,-3.1308,0.0,-2.8842,-2.7939,0.0,0.0,0.0,0.0,0.0,0.0,0.0,0.0,0.0,0.0,0.0,0.0,-2.3739,-2.2352,-2.0545,-1.8248,-1.6005,-1.3506,-1.0774,-0.843,-0.5169,-0.1134,0.3487,0.933,1.6216,2.1759,2.6675,3.0977,3.2958,0.0,0.0,2.7365,2.1642,1.4561,0.7977,0.1793,-0.3751,-0.6897,-0.8672,-0.9478,0.0,0.0,0.0,0.0,0.0,0.0,0.0,-3.4681,-3.538,-3.6507,-3.6995,-3.6723,-3.5355,-3.31,-3.1706,0.0,0.0,0.0,0.0,0.0,0.0,0.0,0.0,0.0,0.0,0.0,0.0,0.0,0.0,0.0,0.0,0.0,0.0,0.0,0.0,0.0,-2.5703,-2.5703,0.0,0.0,0.0,0.0,0.0,0.0,0.0,0.0,0.0,-2.8836,-2.8742,0.0,0.0,-2.8589,-2.774,-2.5751,-2.3527,-2.2272,0.0,0.0,-1.9611,-2.0231,-2.1343,-2.2805,-2.51,-2.7622,-2.9846,0.0,0.0,-3.6628,-3.6533,-3.6054,-3.5361,-3.3158,-3.132,-3.0986,-2.9669,-2.8649,-2.8622,-2.7558,-2.6243,0.0,0.0,0.0,0.0,0.0,0.0,0.0,0.0,0.0,-2.345,-2.2637,-2.1302,-1.9408,-1.7375,-1.4907,-1.1943,-0.9035,-0.498,0.0064,0.5146,1.1571,1.9153,2.3762,2.8223,3.2335,3.2984,0.0,0.0,2.3534,1.7266,1.0205,0.3457,-0.1774,-0.5784,-0.7941,-0.8694,-0.8554,0.0,0.0,0.0,0.0,0.0,0.0,-3.4938,-3.5579,-3.6443,-3.8155,-3.8326,-3.8032,-3.7269,-3.5419,-3.3617,-3.2053,0.0,0.0,0.0,0.0,0.0,0.0,0.0,0.0,0.0,0.0,0.0,-2.814,0.0,0.0,0.0,0.0,0.0,0.0,0.0,0.0,0.0,0.0,0.0,0.0,0.0,0.0,0.0,0.0,0.0,0.0,0.0,0.0,-2.9806,0.0,0.0,0.0,-3.0173,-2.9366,0.0,0.0,-2.3399,-2.2278,-2.1198,-2.137,-2.2232,-2.3583,-2.6113,-2.8851,-3.1016,0.0,-3.6638,-3.7596,-3.7517,-3.6952,-3.5854,-3.3984,-3.2383,-3.1734,-3.0644,-2.9659,-2.9123,-2.8092,-2.6741,0.0,0.0,0.0,0.0,0.0,0.0,0.0,0.0,0.0,-2.3406,-2.3084,-2.2197,-2.0611,-1.8529,-1.5899,-1.2658,-0.8867,-0.4168,0.1407,0.714,1.3653,2.0772,2.4986,2.8824,3.2139,3.1225,0.0,0.0,1.8695,1.2068,0.5199,-0.0312,-0.4333,-0.7274,-0.8361,-0.8571,-0.8231,0.0,0.0,0.0,0.0,0.0,-3.3081,-3.5587,-3.619,-3.7116,-3.9222,-3.9138,-3.8731,-3.833,-3.6854,-3.5057,-3.2951,-3.1793,0.0,0.0,0.0,0.0,0.0,0.0,0.0,0.0,0.0,-2.9207,-2.9156,-2.9486,0.0,0.0,0.0,0.0,0.0,0.0,0.0,0.0,0.0,0.0,0.0,0.0,0.0,0.0,0.0,0.0,0.0,0.0,0.0,0.0,0.0,0.0,-3.2282,-3.2267,-3.2448,-3.1935,-2.8106,-2.6094,-2.4837,-2.3596,-2.3525,-2.4041,-2.5177,-2.7768,-3.051,0.0,0.0,-3.7633,-3.8328,-3.8244,-3.7627,-3.6285,-3.4731,-3.3406,-3.2724,-3.1689,-3.079,-3.0198,-2.8891,-2.7321,0.0,0.0,0.0,0.0,0.0,0.0,0.0,0.0,0.0,-2.2965,-2.2756,-2.2225,-2.1226,-1.883,-1.5873,-1.2314,-0.7711,-0.2547,0.3183,0.921,1.5485,2.1901,2.5598,2.855,3.072,2.8624,0.0,0.0,1.3332,0.6827,0.043,-0.3776,-0.669,-0.8484,-0.8823,-0.863,-0.8042,0.0,0.0,0.0,0.0,0.0,0.0,-3.5729,-3.6381,-3.7331,-3.9421,-3.9358,-3.8887,-3.8368,-3.686,-3.5549,-3.464,-3.3048,0.0,0.0,0.0,0.0,0.0,0.0,0.0,0.0,0.0,-3.165,-3.165,-3.26,-3.2635,-3.186,-3.2002,0.0,0.0,0.0,0.0,0.0,0.0,0.0,0.0,0.0,0.0,0.0,0.0,0.0,0.0,0.0,0.0,0.0,0.0,0.0,0.0,0.0,-3.458,-3.435,-3.1183,-2.9076,-2.7616,-2.6846,-2.685,-2.7162,-2.7715,-3.0123,-3.2608,0.0,0.0,-3.8448,-3.8658,-3.849,-3.7909,-3.6618,-3.5192,-3.4166,-3.4094,-3.2798,-3.1907,-3.2319,-3.0145,-2.7951,0.0,0.0,0.0,0.0,0.0,0.0,0.0,0.0,0.0,-2.203,-2.1465,-2.1046,-2.0899,-1.799,-1.4554,-1.0632,-0.5472,0.0,0.5657,1.1158,1.6884,2.2801,2.5672,2.738,2.7906,0.0,0.0,0.0,0.7433,0.1598,-0.3756,-0.7099,-0.8837,-0.9454,-0.9332,-0.8759,-0.7857,0.0,0.0,0.0,0.0,0.0,0.0,0.0,-3.5725,-3.6483,-3.8004,-3.8298,-3.8132,-3.7535,-3.7077,-3.6445,-3.5554,-3.3912,0.0,0.0,0.0,0.0,0.0,0.0,0.0,0.0,0.0,-3.2365,-3.233,-3.2755,-3.2868,-3.2648,-3.2233,-3.1776,-3.1253,0.0,0.0,0.0,0.0,0.0,0.0,0.0,0.0,0.0,0.0,0.0,0.0,0.0,0.0,0.0,0.0,0.0,0.0,0.0,0.0,0.0,-3.4069,-3.2164,-3.0214,-2.9077,-2.8715,-2.8905,-2.9931,-3.1678,-3.3634,-3.5466,0.0,-3.8857,-3.9523,-3.9475,-3.8765,-3.7019,-3.6103,-3.5314,-3.4278,-3.3333,-3.2463,-3.1852,0.0,0.0,0.0,0.0,0.0,0.0,0.0,0.0,0.0,0.0,0.0,-1.9965,-1.938,-1.9162,-1.9318,-1.6373,-1.2831,-0.8786,-0.3502,0.1781,0.7054,1.2406,1.7402,2.2038,2.4059,2.4595,0.0,0.0,0.0,0.0,0.237,-0.2575,-0.6689,-0.885,-0.9952,-1.0351,-1.0091,-0.9518,-0.8753,0.0,0.0,0.0,0.0,0.0,0.0,0.0,-3.561,-3.623,-3.7436,-3.7595,-3.7468,-3.7161,-3.6908,-3.6528,-3.5987,-3.4921,0.0,0.0,0.0,0.0,0.0,0.0,0.0,-3.1843,-3.2588,-3.2997,-3.2982,-3.3523,-3.3647,-3.3399,-3.3089,-3.2639,-3.2048,-3.1013,-3.0371,0.0,0.0,0.0,0.0,0.0,0.0,-3.4386,0.0,0.0,0.0,0.0,0.0,0.0,0.0,0.0,0.0,0.0,0.0,0.0,0.0,-3.441,-3.3009,-3.2053,-3.191,-3.2208,-3.2949,-3.4245,-3.5708,-3.7227,-3.8518,-3.9528,-4.0101,-4.006,-3.9345,-3.7359,-3.6727,-3.6058,-3.4673,-3.3883,-3.319,-3.2473,0.0,0.0,-2.4425,0.0,0.0,0.0,0.0,0.0,0.0,0.0,0.0,-1.7616,-1.6841,-1.6126,-1.5361,-1.3438,-1.0328,-0.6069,-0.0891,0.4193,0.9181,1.3968,1.8113,2.1555,2.2323,2.1479,0.0,0.0,0.0,0.0,-0.247,-0.6459,-0.9467,-1.0982,-1.1511,-1.1475,-1.127,-1.0621,-0.9703,0.0,0.0,0.0,0.0,0.0,0.0,0.0,-3.5692,-3.6272,-3.7406,-3.7084,-3.6832,-3.7089,-3.6445,-3.6003,-3.5994,0.0,0.0,0.0,0.0,0.0,0.0,0.0,0.0,-3.2462,-3.3185,-3.36,-3.3658,-3.467,-3.4817,-3.4179,-3.4384,-3.3653,-3.2182,-3.2123,-3.1698,0.0,0.0,0.0,0.0,0.0,-3.5261,0.0,0.0,0.0,0.0,0.0,0.0,0.0,0.0,0.0,0.0,0.0,0.0,0.0,0.0,0.0,0.0,0.0,-3.5878,-3.643,-3.6487,-3.744,-3.8442,-3.8745,-3.9559,0.0,-4.0317,-4.0156,-3.9452,-3.7561,-3.6998,-3.6429,-3.5145,-3.4383,-3.3878,0.0,-3.099,0.0,0.0,0.0,0.0,0.0,0.0,0.0,0.0,0.0,0.0,-1.4926,-1.3911,-1.2218,-0.9699,-0.9192,-0.6929,-0.2757,0.23,0.7121,1.1809,1.5669,1.8778,2.1131,2.0335,1.7921,0.0,0.0,0.0,0.0,-0.6872,-0.9838,-1.1818,-1.3201,-1.3304,-1.266,-1.2667,-1.1929,-1.0829,0.0,0.0,0.0,0.0,0.0,0.0,0.0,0.0,0.0,0.0,-3.5127,-3.5422,-3.62,-3.6113,-3.5994,0.0,0.0,0.0,0.0,0.0,0.0,0.0,0.0,0.0,-3.3087,-3.3746,-3.4132,-3.4217,-3.4679,-3.4899,-3.4932,-3.4536,-3.3881,-3.2989,-3.2368,-3.2029,0.0,0.0,0.0,0.0,-3.5339,-3.5793,0.0,0.0,0.0,0.0,-3.4692,-3.4734,0.0,0.0,0.0,0.0,0.0,0.0,0.0,0.0,-3.6182,-3.6687,-3.6651,0.0,-3.6868,-3.8188,-3.8773,-3.9185,0.0,-3.9826,-3.9542,-3.9569,-3.892,-3.7981,-3.6692,-3.6241,-3.5689,-3.4488,-3.3777,-3.3148,-3.2457,0.0,0.0,-2.131,0.0,0.0,0.0,0.0,0.0,0.0,0.0,-1.2887,-1.1768,-1.0609,-0.8629,-0.5837,-0.3213,-0.1219,0.0129,0.4668,0.9015,1.3167,1.6102,1.7951,1.873,1.6655,1.312,0.0,0.0,0.0,-0.6355,-0.9315,-1.1208,-1.2409,-1.3427,-1.3639,-1.3379,-1.3515,-1.2955,-1.2012,0.0,0.0,0.0,0.0,0.0,0.0,0.0,0.0,0.0,0.0,0.0,-3.4999,-3.5908,-3.5995,0.0,0.0,0.0,0.0,0.0,0.0,0.0,0.0,0.0,-3.3951,-3.3802,-3.4027,-3.4221,-3.4293,-3.494,-3.5401,-3.5698,-3.5502,-3.5048,-3.4347,-3.3216,-3.2494,0.0,0.0,0.0,0.0,-3.5623,0.0,0.0,0.0,0.0,0.0,-3.5137,-3.5243,0.0,-3.5107,-3.5262,-3.5649,0.0,0.0,0.0,0.0,-3.5999,-3.6493,-3.6901,-3.7198,-3.7607,-3.8547,-3.8762,-3.8872,-3.9341,-3.9056,-3.8661,-3.8654,-3.8142,-3.7393,-3.635,-3.5875,-3.5235,-3.4116,-3.3277,0.0,0.0,0.0,-2.3084,-1.9681,0.0,0.0,0.0,0.0,0.0,0.0,0.0,-0.9869,-0.845,-0.7008,-0.4932,-0.222,0.0909,0.2786,0.3356,0.7356,1.1052,1.4322,1.5997,1.6556,1.6069,1.2653,0.8431,0.0,0.0,0.0,-0.8777,-1.0899,-1.2095,-1.2743,-1.3775,-1.3917,-1.3642,-1.3903,-1.3534,-1.2781,0.0,0.0,0.0,0.0,0.0,0.0,0.0,0.0,0.0,0.0,0.0,0.0,0.0,0.0,0.0,0.0,0.0,0.0,0.0,0.0,0.0,0.0,-3.4794,-3.4495,-3.4316,-3.4074,-3.4028,-3.4284,-3.524,-3.5932,-3.6387,-3.6539,-3.6242,-3.5449,-3.4016,-3.3051,0.0,0.0,0.0,0.0,-3.563,0.0,0.0,0.0,0.0,0.0,0.0,0.0,0.0,-3.5585,-3.5585,-3.5585,-3.5585,0.0,0.0,0.0,0.0,0.0,-3.6485,-3.7243,-3.7896,-3.817,-3.8175,-3.8105,-3.8016,-3.781,-3.7613,-3.7606,-3.7354,-3.6862,-3.5964,-3.5427,-3.4752,-3.368,0.0,0.0,-2.7226,-2.439,-2.1287,-1.7662,0.0,0.0,0.0,0.0,0.0,0.0,0.0,-0.6767,-0.5117,-0.334,-0.131,0.1052,0.3863,0.5682,0.6429,0.9711,1.2514,1.4763,1.5098,1.4402,1.2736,0.8332,0.3939,-0.0464,0.0,0.0,-1.0447,-1.1854,-1.257,-1.2825,-1.3813,-1.3907,-1.3506,-1.3903,-1.3738,-1.318,0.0,0.0,0.0,0.0,0.0,0.0,0.0,0.0,0.0,0.0,0.0,0.0,0.0,0.0,0.0,0.0,0.0,0.0,0.0,0.0,0.0,-3.498,-3.4576,-3.4221,-3.3972,-3.3726,-3.3933,-3.4713,-3.5036,-3.5771,-3.6791,-3.6426,-3.5699,-3.4644,-3.3726,-3.3688,-3.4315,-3.4582,0.0,-3.5815,-3.5877,0.0,0.0,0.0,0.0,0.0,0.0,0.0,0.0,-3.5515,-3.5515,-3.5515,-3.5515,0.0,0.0,0.0,0.0,0.0,-3.5682,-3.5699,-3.6027,-3.7578,-3.7872,-3.7736,-3.7622,-3.6915,-3.6293,-3.6292,-3.5584,-3.4889,-3.4539,-3.406,-3.3458,-3.2778,0.0,-2.8037,0.0,0.0,0.0,0.0,0.0,0.0,0.0,0.0,0.0,0.0,0.0,-0.3431,-0.1649,0.0,0.1782,0.384,0.594,0.744,0.8265,1.0525,1.205,1.2889,1.2154,1.0421,0.7796,0.3833,-0.0196,-0.4304,0.0,-0.9669,-1.1487,-1.2022,-1.2346,-1.2634,-1.3082,-1.3146,-1.298,-1.3705,-1.3551,-1.2989,0.0,0.0,0.0,0.0,0.0,0.0,0.0,0.0,0.0,0.0,0.0,0.0,0.0,0.0,0.0,0.0,0.0,0.0,0.0,0.0,0.0,-3.4805,-3.4097,-3.366,-3.3588,-3.3629,-3.389,-3.4312,-3.5423,-3.6395,-3.7229,-3.703,-3.6012,-3.4352,-3.4525,-3.4594,-3.4638,-3.5123,-3.5848,-3.6653,0.0,0.0,0.0,0.0,0.0,0.0,0.0,0.0,0.0,0.0,-3.546,-3.5493,-3.5493,0.0,0.0,0.0,0.0,0.0,-3.5364,-3.5152,-3.5019,-3.5116,-3.5477,-3.5742,-3.5503,-3.4982,-3.4548,-3.4537,-3.4111,-3.371,-3.3615,-3.3158,-3.2264,-3.054,0.0,-2.6111,0.0,0.0,0.0,0.0,0.0,0.0,0.0,0.0,0.0,0.0,0.0,0.0,0.1126,0.2716,0.4114,0.5325,0.6494,0.7062,0.6961,0.7399,0.8414,0.9881,0.8164,0.5922,0.303,-0.0452,-0.3773,-0.688,0.0,-1.0515,-1.1471,-1.1781,-1.1823,-1.1723,-1.2107,-1.218,-1.2208,-1.2719,-1.2617,-1.2297,0.0,0.0,0.0,0.0,0.0,0.0,0.0,0.0,0.0,0.0,0.0,0.0,0.0,0.0,0.0,0.0,0.0,0.0,0.0,0.0,-3.5187,-3.4698,-3.3629,-3.3135,-3.3242,-3.3348,-3.3688,-3.4288,-3.5651,-3.662,-3.7165,-3.74,-3.6386,-3.4456,-3.527,-3.5327,-3.4834,-3.5582,-3.6397,-3.7205,0.0,0.0,0.0,0.0,0.0,0.0,0.0,0.0,0.0,0.0,0.0,0.0,0.0,0.0,0.0,-3.546,-3.5398,-3.5304,-3.5193,-3.4908,-3.4344,-3.2998,-3.329,-3.3777,-3.3217,-3.3011,-3.2901,-3.2883,-3.2798,-3.2742,-3.2702,-3.2035,0.0,-2.834,-2.6226,0.0,0.0,0.0,0.0,0.0,0.0,0.0,0.0,0.0,0.0,0.0,0.0,0.0,0.3458,0.4725,0.5595,0.587,0.5967,0.5535,0.4398,0.3318,0.3929,0.6132,0.3819,0.1338,-0.1349,-0.424,-0.6675,-0.8808,-1.0031,-1.0824,-1.1215,-1.1294,-1.1054,-1.0857,-1.1111,-1.1326,-1.1498,-1.174,-1.174,-1.1677,0.0,0.0,0.0,0.0,0.0,0.0,0.0,0.0,0.0,0.0,0.0,0.0,0.0,0.0,0.0,0.0,0.0,0.0,0.0,0.0,-3.5149,-3.4529,-3.3374,-3.2862,-3.3108,-3.2534,-3.3274,-3.5385,-3.529,-3.5563,-3.6223,-3.6836,-3.6387,-3.5051,-3.538,-3.5542,-3.5618,-3.582,-3.6409,-3.719,-3.7131,0.0,0.0,0.0,0.0,0.0,0.0,0.0,0.0,0.0,0.0,0.0,0.0,0.0,-3.5315,-3.5315,-3.5219,-3.5124,-3.5019,-3.4653,-3.3924,-3.2572,-3.2692,-3.2757,-3.1564,-3.1563,-3.1776,-3.1653,-3.1669,-3.1649,-3.1539,-3.0107,-2.8442,-2.6902,-2.3879,0.0,0.0,0.0,0.0,0.0,0.0,0.0,0.0,0.0,0.0,0.0,0.0,0.0,0.5328,0.5668,0.5665,0.519,0.4032,0.2697,0.1182,-0.0589,-0.0456,0.1422,-0.0841,-0.3117,-0.5431,-0.6988,-0.8594,-1.0245,-1.0097,-1.0485,-1.1047,-1.0542,-1.0305,-1.0242,-1.0374,-1.0701,-1.1122,-1.1185,-1.1247,-1.1303,0.0,0.0,0.0,0.0,0.0,0.0,0.0,0.0,0.0,0.0,0.0,0.0,0.0,0.0,0.0,0.0,0.0,0.0,0.0,-3.5572,-3.5139,-3.4604,-3.3437,-3.295,-3.3205,-3.2454,-3.2888,-3.4653,-3.5446,-3.5749,-3.553,-3.5806,-3.5537,-3.487,-3.513,-3.5366,-3.5568,-3.5669,-3.6545,-3.7872,-3.7872,-3.8307,0.0,0.0,0.0,0.0,0.0,0.0,0.0,0.0,-3.5273,-3.5324,-3.5273,-3.5239,-3.5223,-3.5187,-3.5105,-3.5001,-3.4734,-3.4334,-3.3471,-3.1452,-3.1223,-3.1265,-3.027,-2.9816,-2.9674,-2.9938,-2.9953,-2.9927,-3.0018,-2.8893,-2.7285,-2.5272,0.0,0.0,0.0,0.0,0.0,0.0,0.0,0.0,0.0,0.0,0.0,0.0,0.0,0.0,0.513,0.4854,0.4114,0.2781,0.1186,-0.046,-0.2171,-0.3944,-0.4786,-0.4696,-0.5168,-0.6169,-0.7648,-0.8516,-0.9313,-0.9938,-0.9641,-0.9643,-0.9874,-0.94,-0.9296,-0.948,-0.9695,-0.9977,-1.0308,-1.0308,-1.0364,-1.0485,0.0,0.0,0.0,0.0,0.0,0.0,0.0,0.0,0.0,0.0,0.0,0.0,0.0,0.0,0.0,0.0,0.0,0.0,-3.5806,-3.557,-3.5187,-3.468,-3.3642,-3.3108,-3.3261,-3.2663,-3.3036,-3.4394,-3.5582,-3.5737,-3.4975,-3.5009,-3.4835,-3.4529,-3.487,-3.5165,-3.5445,-3.5554,-3.6628,-3.8278,-3.8268,-3.8739,0.0,0.0,0.0,0.0,0.0,0.0,0.0,0.0,-3.5209,-3.5209,-3.5124,-3.5089,-3.5072,-3.4963,-3.4851,-3.4674,-3.4379,-3.3894,-3.2925,-3.0729,-2.9975,-2.9518,-2.8511,-2.8132,-2.8121,-2.8342,-2.817,-2.7968,-2.8062,-2.6979,0.0,0.0,0.0,0.0,0.0,0.0,0.0,0.0,0.0,0.0,0.0,0.0,0.0,0.0,0.0,0.0,0.0,0.3107,0.1714,-0.0132,-0.1908,-0.3621,-0.5212,-0.6733,-0.7867,-0.8672,-0.8264,-0.8398,-0.9069,-0.9326,-0.9474,-0.9522,-0.8975,-0.8786,-0.8851,-0.843,-0.8443,-0.8694,-0.9005,-0.9204,-0.9408,-0.9542,-0.9664,-0.9849,0.0,0.0,0.0,0.0,0.0,0.0,0.0,0.0,0.0,0.0,0.0,0.0,0.0,0.0,0.0,0.0,0.0,0.0,-3.5799,-3.56,-3.529,-3.4823,-3.3896,-3.3338,-3.3228,-3.3154,-3.3717,-3.5013,-3.5509,-3.5339,-3.451,-3.4555,-3.4412,-3.4123,-3.4597,-3.4978,-3.5315,-3.5509,-3.6598,-3.8187,-3.8199,-3.8704,-3.9315,0.0,0.0,0.0,0.0,0.0,0.0,0.0,-3.5157,-3.507,-3.4926,-3.4851,-3.4773,-3.4632,-3.4401,-3.4152,-3.3956,-3.331,-3.2299,-3.0612,-2.9085,-2.7601,-2.6105,-2.6633,-2.7339,-2.685,-2.6287,-2.5833,-2.5668,-2.4134,0.0,0.0,0.0,0.0,0.0,0.0,0.0,0.0,0.0,0.0,0.0,0.0,0.0,0.0,0.0,0.0,0.0,0.0394,-0.1444,-0.3353,-0.5199,-0.6724,-0.7931,-0.8865,-0.9472,-0.9804,-0.9804,-0.9804,-0.9804,-0.9472,-0.9219,-0.9114,-0.8134,-0.7839,-0.803,-0.7678,-0.7661,-0.7987,-0.8107,-0.8296,-0.8554,-0.8888,-0.9204,-0.9518,0.0,0.0,0.0,0.0,0.0,0.0,0.0,0.0,0.0,0.0,0.0,0.0,0.0,0.0,0.0,0.0,0.0,0.0,-3.5727,-3.5588,-3.5347,-3.5024,-3.4429,-3.4105,-3.4111,-3.4023,-3.4309,-3.5098,-3.5026,-3.4751,-3.4189,-3.3626,-3.3773,-3.4604,-3.4442,-3.4956,-3.591,-3.5503,-3.6353,-3.7978,-3.8034,-3.8921,-4.0015,0.0,0.0,0.0,0.0,0.0,0.0,0.0,0.0,0.0,-3.4869,-3.471,-3.4542,-3.4367,-3.4006,-3.3524,-3.3033,-3.217,-3.0922,-2.8894,-2.7593,-2.6226,-2.4094,-2.4312,-2.4844,-2.4369,-2.401,-2.369,-2.3458,-2.2074,0.0,0.0,0.0,0.0,0.0,0.0,0.0,0.0,0.0,0.0,0.0,0.0,0.0,0.0,0.0,0.0,0.0,-0.3329,-0.509,-0.6677,-0.794,-0.8948,-0.9558,-0.9843,-0.9983,-0.9926,-0.9472,-0.9215,-0.921,-0.8619,-0.8067,-0.7546,-0.689,-0.6691,-0.6881,-0.703,-0.7144,-0.7265,-0.7452,-0.7587,-0.7847,-0.8177,-0.8495,-0.8877,0.0,0.0,0.0,0.0,0.0,0.0,0.0,0.0,0.0,0.0,-3.5743,-3.5726,0.0,0.0,0.0,0.0,0.0,0.0,-3.5699,-3.5585,-3.5445,-3.5224,-3.4902,-3.4797,-3.4947,-3.4684,-3.4747,-3.518,-3.4397,-3.3905,-3.3598,-3.3266,-3.3605,-3.4575,-3.486,-3.5376,-3.5983,-3.5685,-3.6226,-3.7351,-3.774,-3.8716,-3.9791,0.0,0.0,0.0,0.0,0.0,0.0,0.0,0.0,0.0,-3.4849,-3.4623,-3.4363,-3.4037,-3.3524,-3.2834,-3.2036,-3.0891,-2.9391,-2.7304,-2.5828,-2.4284,-2.1689,-2.1856,-2.2489,-2.1897,-2.1403,-2.0964,-2.0604,-1.9409,0.0,0.0,0.0,0.0,0.0,0.0,0.0,0.0,0.0,0.0,0.0,0.0,0.0,0.0,0.0,0.0,0.0,-0.6711,-0.8223,-0.9421,-1.016,-1.0647,-1.0787,-1.0611,-1.0301,-0.9913,-0.9108,-0.8498,-0.7966,-0.7545,-0.7025,-0.6384,-0.608,-0.6014,-0.6157,-0.6507,-0.661,-0.6607,-0.6831,-0.6937,-0.6999,-0.7396,-0.7787,-0.8172,0.0,0.0,0.0,0.0,0.0,0.0,0.0,0.0,0.0,-3.5697,-3.5637,-3.5596,0.0,0.0,0.0,-3.5678,-3.5679,-3.5689,-3.5678,-3.5623,-3.5534,-3.5405,-3.5266,-3.5305,-3.5548,-3.5066,-3.4918,-3.513,-3.3722,-3.298,-3.29,-3.3314,-3.3756,-3.4339,-3.5524,-3.5943,-3.5773,-3.5922,-3.6122,-3.6422,-3.7238,-3.8131,-3.8872,-3.8076,0.0,0.0,0.0,0.0,0.0,0.0,0.0,0.0,-3.4868,-3.4583,-3.4221,-3.3733,-3.2997,-3.2106,-3.0942,-2.942,-2.7655,-2.5631,-2.3725,-2.1571,-1.8892,-1.9207,-1.9932,-1.9511,0.0,-1.7891,-1.7543,0.0,0.0,0.0,0.0,0.0,0.0,0.0,0.0,0.0,0.0,0.0,0.0,0.0,0.0,0.0,0.0,0.0,0.0,-0.9592,-1.085,-1.164,-1.1794,-1.1802,-1.1622,-1.1017,-1.0391,-0.9682,-0.8748,-0.7568,-0.6341,-0.6254,-0.6007,-0.5554,-0.562,-0.5682,-0.584,-0.6097,-0.6149,-0.6091,-0.626,-0.6221,-0.6148,-0.6613,-0.7073,-0.7526,0.0,0.0,0.0,0.0,0.0,0.0,0.0,0.0,-3.5628,-3.5628,-3.5596,-3.5596,-3.5596,-3.5601,0.0,-3.5623,-3.5623,-3.5623,-3.5623,-3.5565,-3.5502,-3.5488,-3.5289,-3.5166,-3.5135,-3.4573,-3.4089,-3.3731,-3.3557,-3.3296,-3.2921,-3.3258,-3.39,-3.4779,-3.4883,-3.5459,-3.6278,-3.5304,-3.5371,-3.6119,-3.6463,-3.7127,-3.7831,-3.708,-3.6805,0.0,0.0,0.0,0.0,0.0,0.0,0.0,-3.4927,-3.4649,-3.4293,-3.3742,-3.2809,-3.1546,-2.9898,-2.786,-2.5607,-2.311,-2.005,-1.7398,-1.633,-1.5643,-1.5556,-1.6734,-1.6282,-1.5525,0.0,0.0,0.0,0.0,0.0,0.0,0.0,0.0,0.0,0.0,0.0,0.0,0.0,0.0,0.0,0.0,0.0,0.0,-1.0802,-1.1843,-1.2504,-1.2666,-1.2482,-1.2174,-1.174,-1.0833,-0.9886,0.0,-0.7743,-0.6439,-0.517,-0.5142,-0.4847,-0.4311,-0.4781,-0.5225,-0.5686,-0.5828,-0.5926,-0.5874,-0.5705,-0.5589,-0.5624,-0.5818,-0.6214,-0.6745,0.0,0.0,0.0,0.0,0.0,0.0,0.0,0.0,-3.5541,-3.5541,-3.5541,-3.5541,-3.5541,-3.556,0.0,0.0,-3.5577,-3.5596,-3.5596,-3.554,-3.5509,-3.5507,-3.5339,-3.5176,-3.5,-3.4405,-3.3773,-3.3158,-3.2871,-3.275,-3.2805,-3.3398,-3.4202,-3.524,-3.5429,-3.5812,-3.6288,-3.5337,-3.5071,-3.5324,-3.585,-3.6346,-3.6746,-3.6426,-3.6328,-3.6212,-3.5479,0.0,0.0,0.0,0.0,0.0,0.0,0.0,-3.4416,-3.3873,-3.2804,-3.1369,-2.9377,-2.6995,-2.4158,-2.0432,-1.7359,-1.5138,-1.4577,-1.3723,-1.3208,-1.3894,-1.3847,0.0,0.0,0.0,0.0,0.0,0.0,0.0,0.0,0.0,0.0,0.0,0.0,0.0,0.0,0.0,0.0,0.0,0.0,-1.1643,-1.2427,-1.294,-1.3147,-1.2989,-1.2613,-1.2126,-1.1581,-1.0358,-0.9215,-0.8167,-0.6746,-0.5191,-0.3689,-0.3941,-0.3948,-0.3705,-0.451,-0.5183,-0.5622,-0.5783,-0.5798,-0.5639,-0.5346,-0.5151,-0.5027,-0.5156,-0.5554,-0.6083,0.0,0.0,0.0,0.0,0.0,0.0,0.0,0.0,0.0,-3.5479,-3.5479,-3.5474,-3.5474,-3.5495,-3.5502,0.0,0.0,0.0,-3.5579,-3.5534,-3.5495,-3.5507,-3.5373,-3.5209,-3.498,-3.4364,-3.3632,-3.2883,-3.2022,-3.1816,-3.232,-3.3287,-3.4278,-3.5262,-3.5881,-3.6059,-3.5857,-3.5274,-3.4835,-3.4506,-3.5252,-3.56,-3.5644,-3.5773,-3.5834,-3.5759,-3.521,-3.507,-3.5141,-3.5157,0.0,0.0,0.0,0.0,-3.4653,-3.408,-3.299,-3.1515,-2.9371,-2.6358,-2.2786,-1.8328,-1.572,-1.4122,-1.3608,-1.2879,-1.2231,-1.1929,0.0,0.0,0.0,0.0,0.0,0.0,0.0,0.0,0.0,0.0,0.0,0.0,0.0,0.0,0.0,0.0,0.0,0.0,0.0,-1.3017,-1.3208,-1.326,-1.3078,-1.2728,-1.222,-1.168,-1.0949,-0.9562,-0.8339,-0.7179,-0.5448,-0.3908,-0.243,-0.2994,-0.3345,-0.3501,-0.4575,-0.524,-0.5702,-0.5839,-0.5772,-0.5431,-0.4981,-0.4648,-0.4492,-0.4561,-0.4891,-0.5481,0.0,0.0,0.0,0.0,0.0,0.0,0.0,0.0,0.0,0.0,-3.5369,-3.5412,-3.5412,-3.5474,-3.5507,-3.5507,-3.5507,-3.552,-3.552,0.0,0.0,-3.5507,-3.5373,-3.5157,-3.4832,-3.413,-3.3313,-3.2388,-3.1247,-3.0709,-3.0749,-3.238,-3.3347,-3.3823,-3.446,-3.4728,-3.4612,-3.4229,-3.4141,-3.4264,-3.4562,-3.4645,-3.46,-3.4689,-3.4733,-3.4797,-3.4706,-3.4772,-3.4945,-3.502,-3.5072,0.0,0.0,0.0,-3.487,-3.4464,-3.3495,-3.2157,-3.009,-2.5473,-2.0586,-1.8138,-1.5764,-1.397,-1.3608,-1.2879,-1.2305,0.0,0.0,0.0,0.0,0.0,0.0,0.0,0.0,0.0,0.0,0.0,0.0,0.0,0.0,0.0,0.0,0.0,0.0,0.0,-1.345,-1.326,-1.2887,-1.2642,-1.2143,-1.1524,-1.1012,-1.0299,-0.9403,-0.8367,-0.7045,-0.5532,-0.3536,-0.2421,-0.2038,-0.2579,-0.32,-0.3824,-0.4611,-0.5315,-0.5844,-0.5657,-0.5466,-0.5275,-0.4475,-0.4038,-0.3892,-0.3763,-0.4028,-0.4553,0.0,0.0,0.0,0.0,0.0,0.0,0.0,0.0,0.0,0.0,0.0,-3.5239,-3.5289,-3.5339,-3.5388,-3.5388,-3.5432,-3.546,-3.5493,-3.5493,-3.5493,-3.5493,-3.5339,-3.5124,-3.4851,-3.3631,-3.2518,-3.157,-3.0184,-2.9421,-2.936,-3.0117,-3.1241,-3.2619,-3.3287,-3.3706,-3.3865,-3.3081,-3.2985,-3.3271,-3.2937,-3.3078,-3.3505,-3.3576,-3.3902,-3.426,-3.3904,-3.3867,-3.4012,-3.4091,-3.4207,-3.4391,-3.4849,0.0,0.0,0.0,-3.3597,-3.1899,-2.8982,-2.5634,-2.2385,-2.0102,-1.7942,-1.6138,-1.5371,-1.468,-1.4188,0.0,0.0,0.0,0.0,0.0,0.0,0.0,0.0,0.0,0.0,0.0,0.0,0.0,0.0,0.0,0.0,0.0,0.0,0.0,0.0,-1.2948,-1.2389,-1.1826,-1.1283,-1.0619,-0.9951,-0.927,-0.8423,-0.7094,-0.5439,-0.354,-0.2418,-0.1962,-0.2275,-0.2981,-0.3606,-0.3992,-0.4849,-0.5395,-0.569,-0.5491,-0.5156,-0.4698,-0.391,-0.3424,-0.3155,-0.309,-0.3422,-0.3887,0.0,0.0,0.0,0.0,0.0,0.0,0.0,0.0,0.0,0.0,0.0,-3.507,-3.5124,0.0,0.0,0.0,-3.5354,-3.5412,-3.5493,-3.5493,-3.5493,-3.5493,-3.5324,-3.5124,-3.487,-3.3273,-3.1936,-3.0961,-2.9302,-2.835,-2.8074,-2.8107,-2.8976,-3.0688,-3.1773,-3.2405,-3.2564,-3.1969,-3.1895,-3.2143,-3.1648,-3.1937,-3.2698,-3.2798,-3.3321,-3.3938,-3.3239,-3.3059,-3.3153,-3.2994,-3.3105,-3.3393,-3.398,-3.4282,0.0,0.0,0.0,-3.1464,-2.8615,-2.6655,-2.4901,-2.2832,-2.0848,-1.9105,0.0,0.0,0.0,0.0,0.0,0.0,0.0,0.0,0.0,0.0,0.0,0.0,0.0,0.0,0.0,0.0,0.0,0.0,0.0,0.0,0.0,0.0,0.0,-1.2359,-1.1696,-1.0939,-1.0238,-0.9512,-0.8827,-0.8112,-0.7249,-0.5585,-0.3836,-0.2041,-0.1805,-0.1962,-0.2588,-0.3428,-0.4035,-0.4416,-0.5115,-0.5484,-0.5515,-0.5204,-0.4745,-0.4156,-0.3287,-0.2757,-0.242,-0.2438,-0.2713,-0.3187,0.0,0.0,0.0,0.0,0.0,0.0,0.0,0.0,0.0,0.0,0.0,-3.4908,-3.4927,-3.5035,-3.5141,-3.5209,-3.527,-3.5364,-3.5493,-3.5493,-3.5493,-3.5493,-3.5373,0.0,-3.4813,-3.3287,-3.1965,-3.0909,-2.8858,-2.7514,-2.6909,-2.6973,-2.7041,-2.7248,-2.958,-3.0425,-3.0128,-3.0986,-3.1183,-3.1003,-3.1232,-3.1759,-3.2437,-3.257,-3.3117,-3.3723,-3.2923,-3.2705,-3.2699,-3.1945,-3.1868,-3.2098,-3.2219,-3.2374,-3.2555,0.0,0.0,0.0,-3.038,-2.8774,-2.6997,-2.5972,-2.4202,-2.2375,0.0,0.0,0.0,0.0,0.0,0.0,0.0,0.0,0.0,0.0,0.0,0.0,0.0,0.0,0.0,0.0,0.0,0.0,0.0,0.0,0.0,0.0,0.0,-1.1333,-1.0738,-0.9826,-0.8994,-0.8042,-0.7517,-0.6659,-0.5414,-0.3552,-0.2272,-0.165,-0.1804,-0.2196,-0.2823,-0.352,-0.4237,-0.5061,-0.551,-0.5587,-0.546,-0.4812,-0.4201,-0.3633,-0.2652,-0.2018,-0.1687,-0.1731,-0.1818,-0.2097,0.0,0.0,0.0,0.0,0.0,0.0,0.0,0.0,0.0,0.0,0.0,0.0,0.0,-3.463,-3.4753,-3.487,-3.5141,-3.5339,-3.5427,-3.5493,-3.5493,-3.5493,-3.5373,-3.5174,-3.4925,-3.2997,-3.1568,-3.0707,-2.851,-2.6997,-2.6165,-2.6429,-2.6553,-2.6598,-2.8719,-2.9489,-2.9168,-2.9638,-2.9782,-2.9661,-2.9413,-3.017,-3.1447,-3.1502,-3.2374,0.0,0.0,0.0,-3.1642,-3.1375,-3.1109,-3.0969,-3.1622,-3.2006,-3.2147,-3.183,-3.1805,-3.1645,-3.0558,-3.0123,-2.9678,-2.8444,-2.7347,-2.6303,-2.5057,0.0,0.0,0.0,0.0,0.0,0.0,0.0,0.0,0.0,0.0,0.0,0.0,0.0,0.0,0.0,0.0,0.0,0.0,0.0,0.0,0.0,0.0,0.0,-1.0009,-0.906,-0.8258,-0.7389,-0.6799,-0.5836,-0.4325,-0.312,-0.2353,-0.1962,-0.2196,-0.2743,-0.3677,-0.4201,-0.479,-0.5368,-0.5425,-0.5337,-0.5153,-0.4518,-0.3772,-0.2934,-0.2149,-0.1519,-0.1108,-0.1139,-0.1222,-0.1438,0.0,0.0,0.0,0.0,0.0,0.0,0.0,0.0,-3.3998,-3.3998,0.0,0.0,0.0,0.0,-3.4476,-3.4713,-3.5035,-3.5273,-3.5364,-3.5427,-3.5493,-3.5493,-3.5403,-3.5242,-3.5034,-3.2938,-3.1469,-3.0767,-2.8446,-2.6952,-2.619,-2.6293,-2.6305,-2.6419,-2.7794,-2.8306,-2.8174,-2.8139,-2.8235,-2.8312,-2.7833,-2.8671,-3.0259,-3.0568,0.0,0.0,0.0,0.0,0.0,0.0,0.0,0.0,0.0,-3.1017,-3.1242,-3.0652,-3.0972,-3.1404,-3.0715,-3.0843,-3.0946,-3.011,-2.9541,-2.8805,-2.7609,0.0,0.0,0.0,0.0,0.0,0.0,0.0,0.0,0.0,0.0,0.0,0.0,0.0,0.0,0.0,0.0,0.0,0.0,0.0,0.0,0.0,0.0,0.0,-0.9156,-0.8384,-0.7539,-0.6611,-0.5865,-0.4846,-0.3604,-0.2823,-0.2431,-0.2275,-0.2588,-0.3198,-0.4169,-0.46,-0.5,-0.5303,-0.5161,-0.5014,-0.481,-0.4166,-0.3309,-0.2348,-0.1605,-0.1051,-0.0633,-0.0656,-0.0738,-0.0886,0.0,0.0,0.0,0.0,0.0,0.0,0.0,0.0,-3.3744,-3.3605,0.0,0.0,0.0,0.0,0.0,-3.4753,-3.4982,-3.5155,-3.53,-3.5364,-3.5432,-3.5493,-3.5427,-3.5304,-3.5105,-3.3128,-3.1773,-3.1126,-2.8764,-2.7414,-2.7018,-2.6487,-2.6306,-2.643,-2.6675,-2.6889,-2.7019,-2.6647,-2.6708,-2.7066,0.0,-2.7432,-2.8961,0.0,0.0,0.0,-3.1515,-3.1466,0.0,-2.9745,0.0,0.0,0.0,0.0,-2.9685,-2.9,-2.9398,-3.0232,0.0,0.0,0.0,-3.1053,0.0,0.0,-2.8884,0.0,0.0,0.0,0.0,0.0,0.0,0.0,0.0,0.0,0.0,0.0,0.0,0.0,0.0,0.0,0.0,0.0,0.0,0.0,0.0,0.0,0.0,-0.8816,-0.8323,-0.7664,-0.6843,-0.5613,-0.4618,-0.3763,-0.3132,-0.2744,-0.2511,-0.2511,-0.2899,-0.3478,-0.422,-0.4708,-0.4947,-0.496,-0.4821,-0.4694,-0.4492,-0.356,-0.2755,-0.2021,-0.111,-0.0561,-0.0283,-0.0298,-0.0303,-0.0303,0.0,0.0,0.0,0.0,0.0,-3.7394,-3.6061,-3.4793,-3.3821,0.0,0.0,0.0,-3.328,-3.3716,-3.4173,-3.4498,-3.4773,-3.5018,-3.5155,-3.5258,-3.5343,-3.5358,-3.5273,-3.5174,-3.5019,-3.3148,-3.1969,-3.1533,-2.9279,-2.7908,-2.7353,-2.7246,-2.7085,-2.6814,-2.6351,-2.6178,-2.6222,-2.6286,0.0,-2.6691,-2.6136,-2.6891,0.0,0.0,0.0,0.0,0.0,-3.1042,-3.0525,0.0,-2.9674,-2.8841,0.0,0.0,-2.8056,-2.8628,-2.9017,-2.9403,-3.0194,0.0,0.0,0.0,0.0,0.0,0.0,0.0,0.0,0.0,0.0,0.0,0.0,0.0,0.0,0.0,0.0,0.0,0.0,0.0,0.0,0.0,0.0,0.0,0.0,0.0,0.0,0.0,-0.8157,-0.7807,-0.7702,-0.7034,-0.6239,-0.5487,-0.4886,-0.4231,-0.3604,-0.2981,-0.2746,-0.2746,-0.2978,-0.3478,-0.422,-0.4559,-0.4731,-0.4815,-0.4417,-0.3961,-0.356,-0.3224,-0.2447,-0.1458,-0.0998,-0.0438,0.0149,0.0154,0.0233,0.0311,0.0,0.0,-4.1977,-4.1193,-3.9367,-3.753,-3.6103,-3.4755,-3.3764,0.0,0.0,0.0,-3.3024,-3.3512,-3.3947,-3.4245,-3.4586,-3.4831,-3.4982,-3.5089,-3.5176,-3.5174,-3.5141,-3.5053,-3.4927,-3.3148,-3.2066,-3.17,-2.9648,-2.835,-2.7765,-2.7341,-2.6876,-2.643,-2.561,-2.5192,-2.5088,-2.4929,0.0,0.0,-2.5244,0.0,0.0,-2.833,-2.9051,0.0,0.0,0.0,-3.0224,-3.0224,-2.9643,0.0,0.0,0.0,-2.7695,-2.8029,-2.8442,-2.8943,-2.9744,-3.0364,-3.0744,-3.0625,0.0,0.0,0.0,0.0,0.0,0.0,0.0,0.0,0.0,0.0,0.0,0.0,0.0,0.0,0.0,0.0,0.0,0.0,0.0,0.0,0.0,0.0,0.0,-0.7838,-0.748,-0.7191,-0.6988,-0.6328,-0.5761,-0.5432,-0.4822,-0.4185,-0.3604,-0.2902,-0.2589,-0.2589,-0.2715,-0.3199,-0.3858,-0.4198,-0.4299,-0.4324,-0.3854,-0.3313,-0.2734,-0.2461,-0.1864,-0.1196,-0.073,-0.0224,0.0304,0.0311,0.0393,0.055,0.0,0.0,-4.2157,-4.0866,-3.9122,-3.7521,-3.6319,-3.4887,-3.39,0.0,-3.302,-3.2679,-3.293,-3.3309,-3.3698,-3.4023,-3.4363,-3.4626,-3.4772,-3.4794,-3.4812,-3.4811,-3.4811,-3.4756,-3.4621,-3.3052,-3.2064,-3.1695,-2.9863,-2.8718,-2.8183,-2.7077,-2.6259,-2.5683,-2.4749,-2.416,-2.3851,-2.3136,0.0,-2.4945,-2.4232,-2.5135,0.0,0.0,-2.8339,0.0,-2.9642,-3.0005,-3.0051,-2.9703,-2.9316,0.0,0.0,0.0,0.0,-2.7398,-2.7802,-2.8568,-2.9473,-2.9713,-2.9706,-2.9817,-2.9857,0.0,-2.957,-2.9297,0.0,0.0,0.0,0.0,0.0,0.0,0.0,0.0,0.0,0.0,0.0,0.0,0.0,0.0,0.0,0.0,0.0,-0.7166,-0.7171,-0.7169,-0.7088,-0.6847,-0.6303,-0.5805,-0.5425,-0.5309,-0.459,-0.3891,-0.3355,-0.2499,-0.211,-0.2109,-0.221,-0.26,-0.3254,-0.3604,-0.3721,-0.3625,-0.3236,-0.2669,-0.2029,-0.148,-0.1131,-0.0994,-0.0446,0.0,0.0305,0.0389,0.0471,0.0628,-4.2402,-4.2728,-4.2594,-4.1109,-4.0299,-3.9065,-3.6702,-3.6041,-3.5359,-3.415,-3.3522,-3.302,-3.2692,-3.3037,-3.3426,-3.3753,-3.4074,-3.4363,-3.4561,-3.403,-3.3712,-3.3711,-3.3653,-3.3552,-3.3418,-3.2422,-3.1827,-3.1626,-2.9745,-2.8687,-2.8362,-2.7727,-2.6917,-2.5887,-2.489,-2.3984,-2.315,-2.2297,0.0,-2.3793,-2.4145,0.0,-2.639,-2.7336,-2.7711,-2.7779,-2.842,-2.8795,-2.9069,0.0,-2.8977,-2.8282,0.0,0.0,0.0,-2.7474,-2.7394,-2.7398,-2.8825,-2.8852,-2.8633,-2.9326,0.0,0.0,-2.957,-2.9414,0.0,0.0,0.0,0.0,0.0,0.0,0.0,0.0,0.0,0.0,0.0,0.0,0.0,0.0,0.0,0.0,0.0,-0.712,-0.6984,-0.6942,-0.6518,-0.6155,-0.5926,-0.5679,-0.5266,-0.4827,-0.4289,-0.3561,-0.2817,-0.2058,-0.1601,-0.1449,-0.1635,-0.1883,-0.2259,-0.2665,-0.2756,-0.2688,-0.2272,-0.1882,-0.1406,-0.088,-0.0671,-0.0598,-0.0226,0.0153,0.0546,0.0706,0.0943,0.11,-4.2228,-4.2594,-4.2481,-4.0937,-4.035,-3.9373,-3.7076,-3.6406,-3.5753,-3.4627,-3.3999,-3.3465,-3.302,-3.3306,-3.353,-3.3502,-3.3815,-3.4074,-3.4245,-3.3971,-3.3627,-3.3231,-3.3175,-3.2922,-3.24,-3.1597,-3.108,-3.0917,-2.949,-2.842,-2.7681,-2.6869,-2.6057,-2.5261,-2.4255,-2.341,-2.2732,-2.2181,-2.2309,-2.288,-2.3338,0.0,-2.6221,-2.6473,-2.6898,-2.7455,-2.7659,-2.8061,-2.8561,-2.8801,-2.871,0.0,0.0,-2.7273,-2.6766,0.0,-2.7287,-2.7163,-2.8031,-2.8026,-2.7822,-2.7929,0.0,0.0,0.0,0.0,0.0,0.0,0.0,0.0,0.0,0.0,0.0,0.0,0.0,0.0,0.0,0.0,0.0,0.0,0.0,0.0,0.0,-0.8023,-0.7359,-0.667,-0.6148,-0.585,-0.5705,-0.5414,-0.5095,-0.461,-0.3944,-0.322,-0.2375,-0.1634,-0.1114,-0.0966,-0.1013,-0.1215,-0.1572,-0.1831,-0.189,-0.1821,-0.1634,-0.1296,-0.0876,-0.0524,-0.0305,-0.0231,0.0077,0.0389,0.0786,0.1021,0.1335,0.1572,-4.1614,-4.1884,-4.1733,-4.0313,-3.9852,-3.9043,-3.7325,-3.6536,-3.582,-3.4959,-3.4442,-3.3926,-3.3291,-3.3583,-3.3692,-3.346,-3.3585,-3.3835,-3.4115,-3.3968,-3.3531,-3.2715,-3.2696,-3.2284,-3.1427,-3.0757,-3.0332,-3.0143,-2.9047,-2.7965,-2.6916,-2.5745,-2.4931,-2.4425,-2.3543,-2.2899,-2.2439,0.0,0.0,-2.2294,0.0,-2.3774,-2.6001,-2.5595,-2.6169,-2.713,-2.6982,-2.7414,-2.8084,-2.8205,0.0,-2.835,-2.7717,-2.7274,0.0,0.0,0.0,0.0,0.0,0.0,0.0,0.0,0.0,-2.6499,0.0,0.0,0.0,0.0,0.0,0.0,0.0,0.0,0.0,0.0,0.0,0.0,0.0,0.0,0.0,0.0,0.0,0.0,0.0,-0.9265,-0.7935,-0.6508,-0.606,-0.5708,-0.5596,-0.5238,-0.4873,-0.4502,-0.3622,-0.2826,-0.2094,-0.1229,-0.0723,-0.0506,-0.0495,-0.0638,-0.094,-0.1067,-0.1143,-0.1167,-0.1026,-0.0743,-0.0454,-0.0304,-0.0154,0.0079,0.0314,0.0628,0.1021,0.1414,0.1728,0.2043,-4.0269,-4.0226,-3.9891,-3.9112,-3.8743,-3.8197,-3.6983,-3.6751,-3.6237,-3.4916,-3.4695,-3.4288,-3.3173,-3.3279,-3.3582,-3.3883,-3.3525,0.0,-3.4655,0.0,-3.2349,-3.1599,-3.1574,-3.1189,-3.038,-3.0228,-3.0119,-3.002,-2.8243,-2.7171,-2.6719,-2.5449,-2.4543,-2.3949,-2.3538,-2.3026,-2.2352,0.0,-2.1683,0.0,-2.1286,-2.2557,0.0,-2.5329,-2.5697,-2.6111,-2.6297,-2.6759,-2.7259,0.0,-2.7667,-2.7622,0.0,-2.7367,-2.7106,-2.7257,0.0,0.0,0.0,0.0,0.0,0.0,-2.5919,0.0,0.0,0.0,0.0,0.0,0.0,0.0,0.0,0.0,0.0,0.0,0.0,0.0,0.0,0.0,0.0,0.0,0.0,0.0,0.0,0.0,-0.852,-0.6917,-0.618,-0.5738,-0.5589,-0.5106,-0.47,-0.4306,-0.3313,-0.2524,-0.1901,-0.1056,-0.0563,-0.0352,-0.0351,-0.0351,-0.0422,-0.0503,-0.0582,-0.0584,-0.0448,-0.0378,-0.0303,-0.0078,0.0078,0.0314,0.0707,0.1021,0.1335,0.2119,0.2511,0.2746,-3.9412,-3.9718,-3.9458,-3.8799,-3.8532,-3.8048,-3.6983,-3.64,-3.5893,-3.5239,-3.5209,-3.4916,-3.3987,-3.4117,-3.4224,-3.4144,0.0,-3.4199,0.0,0.0,-3.3063,-3.1937,-3.1936,-3.1386,-3.0174,-3.0119,-2.9807,-2.9178,-2.7817,-2.6676,-2.5757,-2.4534,-2.3785,-2.3401,-2.3103,-2.2742,-2.2345,0.0,-2.1547,0.0,0.0,0.0,0.0,-2.3983,-2.4597,-2.5328,-2.5632,-2.6162,-2.6709,0.0,-2.7067,0.0,0.0,0.0,0.0,0.0,0.0,0.0,0.0,0.0,0.0,0.0,0.0,0.0,-2.3419,0.0,-2.3611,0.0,0.0,0.0,0.0,0.0,0.0,0.0,0.0,0.0,0.0,0.0,0.0,0.0,0.0,0.0,0.0,0.0,0.0,0.0,0.0,-0.6406,-0.5917,-0.5474,-0.5024,-0.4489,-0.3594,-0.2802,-0.2054,-0.139,-0.0911,-0.063,-0.0427,-0.0289,-0.0293,-0.0222,-0.0225,-0.0229,-0.0154,-0.0155,-0.0077,0.0078,0.0314,0.055,0.1256,0.1648,0.1883,0.2586,0.3134,0.3602,-3.7352,-3.7889,-3.7877,-3.7524,-3.7381,-3.703,-3.6185,-3.5768,-3.5352,-3.4829,-3.516,0.0,-3.4085,-3.4353,0.0,0.0,-3.4387,-3.4461,0.0,0.0,-3.3611,-3.2444,-3.2335,0.0,0.0,-3.0045,-2.9544,-2.8587,-2.7502,-2.6313,-2.5016,-2.384,-2.3189,-2.2964,-2.2545,-2.248,-2.2571,0.0,-2.1636,-2.1199,-2.1323,-2.1849,-2.2664,-2.3191,-2.3956,-2.4708,-2.5147,-2.5687,-2.625,-2.647,-2.6671,0.0,-2.6864,0.0,0.0,0.0,0.0,0.0,-2.5023,0.0,0.0,0.0,0.0,0.0,0.0,0.0,0.0,0.0,0.0,0.0,0.0,0.0,0.0,0.0,0.0,0.0,0.0,0.0,0.0,0.0,0.0,0.0,0.0,0.0,0.0,0.0,0.0,0.0,-0.6728,-0.6272,-0.5698,-0.5132,-0.4316,-0.3498,-0.2681,-0.1963,-0.1417,-0.1063,-0.0582,-0.0372,-0.0303,-0.0076,0.0,0.0,0.0,0.0,0.0079,0.0314,0.055,0.0942,0.1726,0.2352,0.2743,0.3288,0.3834,0.438,-3.3321,-3.3692,-3.4096,-3.4558,-3.458,-3.4465,-3.4298,-3.4885,0.0,0.0,0.0,0.0,0.0,0.0,0.0,0.0,0.0,-3.4163,-3.5461,0.0,-3.3264,0.0,0.0,-3.1373,0.0,0.0,-2.9365,-2.8492,-2.7308,-2.61,-2.4873,-2.3607,-2.29,-2.2692,-2.2095,-2.2346,-2.3096,-2.211,-2.1997,-2.2378,-2.1694,-2.1841,-2.2623,0.0,-2.4176,-2.4408,-2.4835,0.0,0.0,-2.6134,-2.6542,0.0,0.0,0.0,0.0,0.0,0.0,0.0,0.0,0.0,0.0,-2.3291,0.0,0.0,0.0,0.0,-2.1277,0.0,0.0,0.0,0.0,0.0,0.0,0.0,0.0,0.0,0.0,0.0,0.0,0.0,0.0,0.0,0.0,0.0,0.0,0.0,0.0,0.0,-0.8235,-0.7396,-0.6806,-0.6481,-0.5347,-0.4485,-0.3837,-0.2758,-0.1963,-0.1457,-0.0897,-0.0454,-0.0303,-0.0078,0.0,0.0,0.0,0.0079,0.0314,0.0471,0.0943,0.165,0.2276,0.3134,0.4068,0.4304,0.4616,0.5004,-3.2118,-3.1487,-3.1473,-3.3165,-3.3339,-3.3223,0.0,-3.3383,0.0,0.0,0.0,0.0,0.0,0.0,-3.4007,0.0,0.0,-3.4454,-3.4653,-3.4507,0.0,0.0,0.0,-3.2862,0.0,0.0,0.0,-2.917,-2.752,-2.626,-2.5401,-2.3748,-2.2818,-2.245,-2.1825,-2.1729,0.0,0.0,0.0,0.0,0.0,-2.2369,-2.2993,0.0,0.0,-2.4234,-2.4778,-2.5453,0.0,-2.6083,-2.6411,-2.6788,-2.6549,-2.6629,-2.6741,-2.6635,-2.6566,0.0,0.0,0.0,-2.4292,-2.2673,0.0,0.0,0.0,0.0,0.0,0.0,0.0,0.0,0.0,0.0,0.0,0.0,0.0,0.0,0.0,0.0,0.0,0.0,0.0,0.0,0.0,0.0,0.0,0.0,0.0,0.0,0.0,-0.9155,-0.834,-0.7296,-0.6393,-0.5453,-0.4432,-0.3399,-0.2612,-0.2093,-0.1226,-0.0698,-0.0466,-0.0157,0.0,0.0,0.0,0.0079,0.0314,0.0864,0.1413,0.2119,0.2979,0.3839,0.454,0.4693,0.516,0.5628,-3.129,-3.0561,-3.0352,-3.1823,-3.2196,0.0,0.0,0.0,0.0,0.0,-3.2805,0.0,-3.3125,0.0,-3.3543,0.0,-3.4053,-3.4202,-3.4184,-3.4326,0.0,-3.4426,-3.4102,0.0,0.0,0.0,0.0,0.0,0.0,-2.6852,-2.5777,-2.4104,-2.3062,-2.2524,-2.1732,-2.1585,-2.1896,-2.2119,-2.2256,0.0,0.0,-2.2811,0.0,0.0,-2.391,-2.4292,0.0,-2.566,-2.6201,-2.6411,-2.6718,-2.6988,-2.6853,-2.6903,-2.6995,-2.684,-2.6898,-2.6854,-2.5853,-2.5648,0.0,-2.3519,-2.2926,0.0,-2.0508,0.0,0.0,0.0,0.0,0.0,0.0,0.0,0.0,0.0,0.0,0.0,0.0,0.0,0.0,0.0,0.0,0.0,0.0,0.0,0.0,0.0,0.0,0.0,0.0,0.0,-0.9545,-0.8332,-0.7334,-0.6308,-0.5135,-0.3938,-0.3037,-0.2359,-0.1426,-0.0795,-0.0477,-0.0158,0.0,0.0,0.0079,0.0318,0.0637,0.1364,0.2092,0.2892,0.3854,0.4656,0.5209,0.5196,0.5553,0.6099,-3.067,-3.0654,-3.0607,0.0,-3.1039,0.0,0.0,0.0,-3.2077,0.0,-3.1848,-3.2613,-3.1877,-3.2268,-3.2641,-3.2949,-3.3071,0.0,-3.4086,-3.3744,0.0,0.0,-3.4237,-3.3636,-3.2666,0.0,0.0,0.0,0.0,-2.7719,-2.6018,-2.4673,-2.362,-2.2857,-2.1872,0.0,-2.2545,-2.2694,-2.2972,-2.3403,-2.3198,-2.3138,-2.3198,-2.37,-2.4099,-2.4465,-2.5384,-2.5974,-2.6404,-2.7011,-2.7372,-2.7625,-2.774,-2.7989,-2.8015,-2.7311,-2.7208,-2.7242,-2.6729,-2.6295,-2.5914,-2.5696,0.0,0.0,0.0,0.0,-2.2107,0.0,0.0,0.0,0.0,0.0,0.0,0.0,0.0,0.0,0.0,0.0,0.0,0.0,0.0,0.0,0.0,0.0,0.0,0.0,0.0,0.0,0.0,0.0,0.0,-0.961,-0.8216,-0.702,-0.6013,-0.4338,-0.3117,-0.2266,-0.1396,-0.0732,-0.0325,-0.0079,0.0,0.0,0.0322,0.0651,0.1143,0.2085,0.3023,0.394,0.4777,0.5532,0.6086,0.5744,0.5957,0.6349,-3.0706,-3.012,-2.9591,0.0,-3.0315,-3.0814,0.0,0.0,0.0,0.0,-3.1427,-3.1658,-3.1916,-3.1845,-3.1879,-3.2247,-3.2398,0.0,0.0,0.0,0.0,-3.4565,-3.432,-3.426,-3.4484,-3.2927,0.0,-3.0695,0.0,0.0,-2.6715,-2.5067,-2.3885,-2.3071,-2.2178,-2.173,-2.1703,-2.2586,-2.3237,-2.3509,-2.339,-2.333,0.0,0.0,-2.4319,-2.4765,-2.5439,-2.6028,-2.651,-2.7011,-2.7284,-2.7488,-2.7625,-2.7675,-2.7745,-2.753,-2.7569,-2.7531,-2.6976,-2.6949,-2.6907,-2.6024,-2.5758,-2.5201,0.0,0.0,0.0,0.0,0.0,0.0,0.0,0.0,0.0,0.0,0.0,0.0,0.0,0.0,0.0,0.0,0.0,0.0,0.0,0.0,0.0,0.0,0.0,0.0,0.0,0.0,0.0,-0.9459,-0.8134,-0.6824,-0.5498,-0.4121,-0.3041,-0.2212,-0.1362,-0.072,-0.0325,-0.0079,0.0079,0.0323,0.0568,0.0986,0.1585,0.2514,0.3442,0.4362,0.5194,0.5945,0.6513,0.6327,0.6337,0.6403,-3.0785,0.0,0.0,-2.9623,0.0,0.0,-2.9932,0.0,0.0,-3.0849,-3.0915,0.0,-3.1465,-3.1263,-3.1204,-3.1437,-3.161,0.0,0.0,0.0,0.0,-3.3953,-3.4134,-3.4375,-3.4712,-3.3345,0.0,-3.1324,0.0,0.0,-2.694,-2.5186,-2.3865,-2.2978,-2.2441,-2.2039,-2.183,-2.2977,-2.3628,-2.3897,-2.37,0.0,0.0,-2.391,-2.4319,-2.4765,-2.537,-2.5974,-2.6563,-2.7115,-2.735,-2.7437,-2.7575,-2.7625,-2.7625,-2.7625,-2.7625,-2.765,-2.7372,-2.7509,-2.7503,-2.6725,-2.6663,-2.6304,-2.4563,-2.4705,-2.4871,0.0,0.0,0.0,0.0,0.0,0.0,0.0,0.0,0.0,0.0,0.0,0.0,0.0,0.0,0.0,0.0,0.0,0.0,0.0,0.0,0.0,0.0,0.0,0.0,-0.9216,-0.779,-0.6428,-0.5083,-0.362,-0.2538,-0.1786,-0.1043,-0.0482,-0.0163,-0.0079,0.0158,0.0401,0.0818,0.1413,0.2105,0.3343,0.423,0.5092,0.5946,0.6547,0.6865,0.6651,0.6529,0.6461,-3.0687,0.0,0.0,0.0,0.0,0.0,0.0,-2.9667,0.0,-3.0148,0.0,-3.0817,-3.0789,-3.0681,-3.065,-3.0729,0.0,-3.1043,-3.1364,-3.1879,-3.2477,-3.3024,-3.3748,-3.4137,-3.4122,-3.3624,0.0,0.0,0.0,-2.8545,-2.6957,-2.5171,-2.3746,-2.2734,-2.2658,0.0,0.0,-2.3603,-2.4188,-2.435,-2.4041,-2.3819,-2.3688,-2.3995,-2.4261,-2.4624,-2.5175,-2.5837,-2.651,-2.713,-2.735,-2.7401,-2.7524,-2.7625,-2.7625,-2.7625,-2.7625,-2.7625,-2.774,-2.7855,-2.7853,-2.7422,-2.7348,-2.7042,-2.5737,-2.5817,-2.5925,-2.5137,-2.5697,-2.5964,0.0,0.0,0.0,0.0,0.0,0.0,0.0,0.0,0.0,0.0,0.0,0.0,0.0,0.0,0.0,0.0,0.0,0.0,0.0,0.0,0.0,0.0,-0.7194,0.0,-0.4513,0.0,-0.1822,-0.1224,-0.0649,-0.0244,0.0,0.0,0.0157,0.0396,0.1155,0.1936,0.2796,0.4136,0.5186,0.5897,0.6786,0.7139,0.7105,0.6831,0.6634,0.6498,-2.9685,0.0,0.0,0.0,0.0,-2.9065,-2.8928,-3.0031,-3.0836,-3.0836,-3.102,-3.0997,-3.0552,-3.0653,-3.0699,-3.0475,-3.0496,0.0,0.0,0.0,0.0,-3.2281,-3.2879,-3.3531,-3.4252,-3.3251,-3.2536,0.0,0.0,-2.8389,-2.6892,-2.5217,-2.3902,-2.2861,-2.2903,0.0,-2.4455,-2.4184,0.0,-2.4835,-2.4421,-2.4144,-2.3995,-2.4054,-2.439,-2.4821,-2.5245,-2.5742,-2.6272,-2.6884,-2.7144,-2.7284,-2.7524,-2.7625,-2.7625,-2.7625,-2.7625,-2.7575,-2.7488,-2.759,-2.7595,-2.736,-2.73,-2.7126,-2.6329,-2.6046,-2.5732,-2.5007,-2.5549,-2.5604,-2.3821,0.0,0.0,0.0,0.0,0.0,0.0,0.0,0.0,0.0,0.0,0.0,0.0,0.0,0.0,0.0,0.0,0.0,0.0,0.0,0.0,0.0,0.0,0.0,0.0,0.0,-0.1338,-0.0753,-0.0483,-0.0242,0.0,0.0,0.0318,0.0891,0.1496,0.2461,0.3628,0.4603,0.5633,0.6615,0.6966,0.7139,0.7119,0.6953,0.6793,0.6624,-2.908,0.0,0.0,0.0,0.0,0.0,0.0,-3.0033,0.0,-3.0347,-3.0418,-3.0337,-3.0051,-3.0161,-3.0215,-3.0051,-3.0225,-3.0214,-3.0052,-3.0635,-3.1099,-3.1407,-3.2059,0.0,-3.3594,-3.3,-3.2528,-3.234,0.0,-2.8679,-2.7266,-2.5243,-2.3978,-2.3471,-2.3763,-2.4462,0.0,0.0,0.0,-2.5397,-2.4878,-2.4536,-2.4261,-2.4054,-2.4216,-2.4593,-2.4851,-2.537,-2.6002,-2.6727,-2.7144,-2.7335,-2.7524,-2.7625,-2.7575,-2.7539,-2.7488,-2.7437,-2.7248,-2.7181,-2.71,-2.6811,-2.6654,-2.6462,-2.5936,-2.5759,-2.5501,-2.5085,-2.5426,-2.5343,-2.3656,-2.232,0.0,0.0,0.0,0.0,0.0,0.0,0.0,0.0,0.0,0.0,0.0,0.0,0.0,0.0,0.0,0.0,0.0,0.0,0.0,0.0,0.0,0.0,0.0,0.0,0.0,-0.0406,-0.0241,-0.0081,0.0,0.0,0.0398,0.106,0.1749,0.2807,0.4169,0.5406,0.6346,0.6966,0.7051,0.7139,0.7122,0.6983,0.6831,0.6668,0.0,-2.7814,0.0,0.0,-2.8037,0.0,-2.9369,-2.9848,-2.9952,-2.9839,-2.9879,-2.9821,-2.9773,-2.9795,-2.9821,-2.9702,-2.9957,-2.9927,-2.9482,-3.0151,-3.0509,-3.0568,-3.1261,-3.1987,-3.2772,-3.2621,-3.2434,0.0,0.0,0.0,-2.7542,-2.533,-2.4299,-2.4295,0.0,0.0,0.0,0.0,-2.592,-2.5893,-2.5286,-2.4821,-2.4408,-2.4041,-2.4041,-2.4305,-2.4452,-2.5034,-2.5839,-2.6606,-2.7093,-2.7386,-2.7539,-2.7575,-2.7524,-2.7401,-2.7284,-2.7181,-2.6884,-2.6659,-2.6457,-2.6068,-2.5756,-2.5481,-2.5119,-2.5063,-2.5007,-2.4824,-2.4885,-2.464,-2.3652,-2.288,0.0,0.0,0.0,0.0,0.0,0.0,0.0,0.0,0.0,0.0,0.0,0.0,0.0,0.0,0.0,0.0,0.0,0.0,0.0,0.0,0.0,-0.3607,-0.2361,0.0,-0.0554,0.0,-0.0081,0.0,0.0,0.0,0.0398,0.106,0.1833,0.3071,0.472,0.6213,0.6969,0.7231,0.7231,0.7231,0.721,0.7066,0.6936,0.6805,0.0,0.0,0.0,0.0,0.0,0.0,-2.8662,-2.9365,-2.9885,-3.0051,-3.0355,-3.041,-2.9865,-3.0119,-3.0222,-2.9839,-2.98,-2.962,-2.9012,-2.9188,-2.9484,-2.9898,-3.0343,-3.1087,-3.2185,-3.1942,-3.1789,0.0,0.0,0.0,0.0,-2.5657,-2.5013,0.0,0.0,0.0,0.0,-2.6283,-2.6089,-2.6002,-2.5397,-2.4808,-2.4292,-2.3995,-2.4008,-2.4157,-2.4408,-2.5034,-2.5784,-2.6244,-2.6736,-2.7233,-2.7401,-2.7401,-2.7386,-2.7284,-2.7011,-2.6683,-2.6272,-2.6056,-2.577,-2.5021,-2.4738,-2.4509,-2.4034,-2.3859,-2.3682,-2.3551,-2.3129,-2.3002,-2.3402,-2.202,-2.0948,0.0,0.0,0.0,0.0,0.0,0.0,0.0,0.0,0.0,0.0,0.0,0.0,0.0,0.0,0.0,0.0,0.0,0.0,-0.7116,0.0,-0.312,-0.1796,-0.0862,0.0,0.0,0.0,0.0,0.0,0.0,0.0398,0.106,0.1833,0.3524,0.5614,0.6691,0.7234,0.7503,0.7768,0.7852,0.7746,0.7411,0.7257,0.72,0.0,0.0,0.0,0.0,0.0,0.0,0.0,-2.9397,-2.9871,-2.9935,-3.0025,-2.9999,-2.958,-2.968,-2.9731,-2.9428,-2.9479,-2.9452,-2.9137,-2.9021,-2.9171,-2.9522,-2.968,-3.0315,-3.145,-3.1632,-3.172,0.0,0.0,0.0,0.0,-2.6808,-2.6089,0.0,0.0,-2.7442,-2.7452,-2.6956,-2.6607,-2.6258,-2.5439,-2.4821,-2.435,-2.3806,-2.3772,-2.3995,-2.4099,-2.4607,-2.5328,-2.5632,-2.6404,-2.7233,-2.7284,-2.7284,-2.7233,-2.6893,-2.6578,-2.6218,-2.5729,-2.5328,-2.4921,-2.4221,-2.3859,-2.3505,-2.2895,-2.2847,-2.2786,-2.2543,-2.2492,-2.2471,-2.2425,-2.1875,-2.1428,0.0,0.0,0.0,0.0,0.0,0.0,0.0,0.0,0.0,0.0,0.0,0.0,0.0,0.0,0.0,0.0,0.0,0.0,-0.7458,0.0,-0.2996,-0.1841,-0.0813,-0.0167,0.0,0.0,0.0,0.0,0.0,0.0573,0.1526,0.2856,0.4318,0.5808,0.6871,0.7669,0.8113,0.8288,0.8288,0.8189,0.7778,0.7433,0.725,-2.6702,0.0,-2.6129,0.0,-2.7517,-2.8198,-2.8834,-2.93,-2.9624,-2.9624,-2.9546,-2.9456,-2.9353,-2.9197,-2.9118,-2.8973,-2.904,-2.9118,-2.9051,-2.8778,-2.8776,-2.9161,-2.9131,0.0,-3.0674,-3.1218,-3.1531,-3.1632,-3.0689,0.0,0.0,-2.8211,-2.7565,0.0,-2.8323,-2.8476,-2.8047,-2.7424,-2.6803,-2.6258,-2.5384,-2.4708,-2.4247,-2.3628,-2.3582,-2.3819,-2.3891,-2.4332,-2.5005,-2.5258,-2.6028,-2.6907,-2.6959,-2.7011,-2.6893,-2.6404,-2.5974,-2.555,-2.4921,-2.4408,-2.3917,-2.3267,-2.2907,-2.247,-2.1865,-2.1803,-2.1851,-2.1689,-2.1713,-2.1785,-2.1665,-2.1476,-2.1318,-2.1186,0.0,0.0,0.0,0.0,0.0,0.0,-2.426,-2.3805,0.0,0.0,0.0,0.0,0.0,0.0,0.0,0.0,0.0,0.0,0.0,0.0,0.0,-0.0503,0.0086,0.0261,0.017,0.0084,0.0083,0.0083,0.0755,0.1913,0.3284,0.4563,0.5808,0.7044,0.8013,0.8715,0.8982,0.8982,0.8894,0.8372,0.7948,0.7501,-2.5998,-2.6065,-2.6259,-2.644,-2.7244,-2.7971,-2.8419,-2.8816,-2.9131,-2.9131,-2.8961,-2.8882,-2.9052,-2.8736,-2.851,-2.851,-2.851,-2.8506,-2.8636,-2.825,-2.8278,0.0,0.0,-2.8967,-3.0011,-3.0644,-3.0994,-3.0934,0.0,0.0,-2.9812,-2.9781,-2.965,-2.9435,-2.9129,-2.8837,-2.8547,-2.7424,-2.6568,-2.5839,-2.5216,-2.4563,-2.3891,-2.3522,-2.345,-2.3628,-2.3832,-2.4287,-2.4835,-2.5118,-2.5619,-2.6165,-2.6404,-2.651,-2.6404,-2.5783,-2.5175,-2.4567,-2.3813,-2.3386,-2.2907,-2.2125,-2.1753,-2.1491,-2.1019,-2.0764,-2.0705,-2.0964,-2.0717,-2.066,-2.1341,-2.0587,-2.0048,-2.0719,0.0,0.0,0.0,0.0,0.0,0.0,-2.4989,-2.4565,-2.276,0.0,0.0,0.0,0.0,0.0,0.0,0.0,0.0,-0.6475,-0.3887,0.0,-0.0406,0.034,0.0783,0.0955,0.0595,0.0333,0.0326,0.0333,0.0937,0.1827,0.2576,0.3937,0.5808,0.7044,0.8185,0.9235,1.0028,1.012,0.9854,0.9323,0.8803,0.8086,-2.6347,-2.5973,-2.5925,-2.645,-2.6896,-2.7418,-2.7903,-2.8315,-2.8498,-2.8498,-2.8167,-2.7834,-2.758,-2.7753,-2.7765,0.0,-2.7592,-2.7855,0.0,-2.8203,-2.8413,-2.9346,-2.8884,-2.9091,-3.0129,-3.0283,-3.0616,-3.118,0.0,0.0,0.0,-3.0535,-3.04,-2.9733,-2.9516,-2.9011,-2.8269,-2.7012,-2.6204,-2.5674,-2.4865,-2.4261,-2.3832,-2.339,-2.333,-2.345,-2.3522,-2.3878,-2.4332,-2.4536,-2.4935,-2.5342,-2.5328,-2.5577,-2.5728,-2.5063,-2.4323,-2.361,-2.2967,-2.2359,-2.1815,-2.1325,-2.088,-2.0409,-1.9901,-1.9607,-1.9404,-1.9469,-1.943,-1.943,-1.9775,-1.9477,-1.9339,-1.9878,-2.0262,0.0,0.0,0.0,0.0,0.0,0.0,-2.3243,0.0,-2.2493,0.0,0.0,0.0,0.0,0.0,0.0,0.0,0.0,-0.3202,0.0,0.017,0.0863,0.1217,0.1302,0.085,0.0419,0.0083,0.042,0.0945,0.1599,0.2857,0.438,0.6071,0.7401,0.8978,1.0458,1.0722,1.0809,1.0722,0.9854,0.8982,0.8277,-2.6517,-2.6059,-2.5742,-2.5989,-2.6253,-2.6517,-2.6987,-2.7336,-2.7592,-2.7592,-2.7185,-2.6775,-2.6434,-2.6434,0.0,-2.6775,-2.6846,-2.7267,-2.8339,-2.8149,-2.8447,-2.951,-2.9125,-2.9145,-2.9786,-3.0045,0.0,-3.0851,-3.0789,-3.0657,-3.0582,-3.0925,-3.0648,-2.9864,-2.9451,-2.8758,-2.7773,-2.6623,-2.5825,-2.5272,-2.4452,-2.3897,-2.3569,-2.309,-2.303,-2.321,-2.321,-2.3509,-2.3936,-2.4028,-2.4363,-2.4708,-2.4465,-2.4496,-2.4584,-2.4092,-2.3374,-2.2652,-2.1916,-2.1302,-2.0816,-2.0366,-1.9922,-1.9452,-1.8921,-1.8706,-1.8634,-1.8705,-1.8759,-1.8827,-1.9019,-1.8775,-1.8778,-1.9295,-1.9594,-2.0096,-2.1112,0.0,0.0,0.0,0.0,0.0,0.0,-2.21,0.0,0.0,0.0,0.0,0.0,0.0,0.0,-0.4327,-0.1945,0.0,0.1647,0.2011,0.2264,0.2312,0.1249,0.0577,0.0083,0.0419,0.0944,0.1596,0.2856,0.438,0.6245,0.7661,0.924,1.0895,1.1327,1.1499,1.1499,1.0549,0.968,0.8811,-2.6349,-2.6043,-2.5751,0.0,-2.5358,0.0,-2.5768,-2.6113,-2.6362,-2.6362,-2.6019,-2.5695,-2.5454,-2.5115,-2.5189,-2.6113,0.0,0.0,0.0,-2.8108,-2.8433,-2.9188,-2.9241,-2.9153,-2.9107,-2.9904,-3.0242,-3.0068,-3.0539,-3.0837,-3.0896,-3.0793,-3.0368,-2.9739,-2.8941,-2.8022,-2.7113,-2.6187,-2.5384,-2.4721,-2.4047,-2.3531,-2.3078,-2.28,-2.2739,-2.2848,-2.2848,-2.3138,-2.3509,-2.3509,-2.3839,-2.4176,-2.38,-2.3386,-2.3027,-2.3027,-2.2421,-2.1628,-2.0794,-2.0279,-1.9846,-1.9198,-1.8875,-1.8539,-1.8008,-1.8067,-1.8276,-1.8599,-1.8517,-1.8504,-1.8758,-1.8476,-1.8397,-1.8936,-1.9029,-1.9351,-2.0333,0.0,0.0,0.0,0.0,0.0,0.0,-2.1113,-2.0363,0.0,0.0,0.0,0.0,0.0,-0.4855,-0.25,-0.0168,0.191,0.3732,0.3719,0.3765,0.3769,0.1848,0.0717,0.0326,0.0417,0.0937,0.1827,0.2665,0.4202,0.6245,0.7654,0.9144,1.0722,1.1929,1.2277,1.2015,1.1499,1.0636,0.9515,0.0,0.0,-2.5412,-2.539,-2.4892,-2.4615,-2.5115,-2.5189,-2.5274,-2.5274,-2.5009,-2.484,-2.47,-2.454,-2.47,-2.5611,-2.603,-2.6682,-2.781,-2.8342,-2.8999,-2.9872,-2.9551,-2.9424,-2.9416,-2.9403,-2.9522,-2.9747,-3.0054,-3.0297,-3.0297,-2.9808,-2.9246,-2.8555,-2.7683,-2.6834,-2.6035,-2.5341,-2.4821,-2.435,-2.3734,-2.3258,-2.2909,-2.2494,-2.2321,-2.2371,-2.2211,-2.2457,-2.2836,-2.2836,-2.3065,-2.3305,-2.3005,-2.2433,-2.199,-2.2113,-2.1491,-2.0613,-1.9977,-1.9375,-1.8844,-1.8529,-1.792,-1.7314,-1.7185,-1.7071,-1.7222,-1.7888,-1.7492,-1.7264,-1.7915,-1.7513,-1.7209,-1.793,-1.8311,-1.8616,-1.8942,-1.9313,0.0,0.0,-1.9255,-1.9672,-1.9852,-1.9549,-1.8933,0.0,0.0,0.0,0.0,-0.4676,-0.2254,-0.0927,0.122,0.328,0.4965,0.5169,0.4548,0.335,0.1957,0.097,0.0326,0.075,0.1278,0.1913,0.3374,0.4825,0.6416,0.7834,0.9497,1.1241,1.1843,1.2272,1.2448,1.1843,1.0982,1.0033,-2.6304,-2.5764,-2.5225,-2.5015,-2.4506,-2.4169,-2.4217,-2.4348,-2.4433,-2.4433,-2.4251,-2.4262,-2.4368,-2.4454,-2.4861,-2.5611,-2.603,-2.6682,-2.7903,-2.8474,-2.9118,-2.9934,-2.9859,-2.9535,-2.899,-2.8978,-2.8932,-2.8803,-2.898,-2.9044,-2.9044,-2.8436,-2.7754,-2.6941,-2.6208,-2.5436,-2.4738,-2.4279,-2.4002,-2.3708,-2.3138,-2.2714,-2.2396,-2.1913,-2.1663,-2.16,-2.1388,-2.1577,-2.1951,-2.2013,-2.2261,-2.2506,-2.2273,-2.1765,-2.125,-2.0985,-2.0473,-1.977,-1.9264,-1.8664,-1.8114,-1.7647,-1.7028,-1.6551,-1.676,-1.6786,-1.7062,-1.7633,-1.7505,-1.7349,-1.767,-1.7396,-1.7241,-1.7754,-1.7967,-1.8093,-1.834,-1.8218,-1.7891,-1.7415,-1.7437,-1.7589,-1.779,-1.7551,-1.6867,-1.5613,0.0,0.0,-0.5829,-0.2378,0.0,0.1122,0.3263,0.5085,0.6691,0.654,0.5709,0.4099,0.2703,0.1535,0.0561,0.0985,0.1511,0.2057,0.3587,0.5051,0.6337,0.7749,0.924,1.0722,1.1585,1.2192,1.2619,1.2192,1.1585,1.0809,-2.61,-2.5754,-2.5224,-2.4492,-2.4244,-2.391,-2.3475,-2.358,-2.3754,-2.3754,-2.3754,-2.3927,-2.4282,-2.4786,-2.5359,-2.603,-2.6268,-2.6928,-2.8099,-2.8566,-2.9052,-2.9702,-2.9768,-2.9303,-2.8255,-2.84,-2.8187,-2.7564,-2.7577,-2.7577,-2.7564,-2.6987,-2.6257,-2.5344,-2.4715,-2.409,-2.3458,-2.3255,-2.31,-2.3005,-2.2531,-2.2149,-2.1753,-2.1187,-2.088,-2.07,-2.0506,-2.0624,-2.1008,-2.1198,-2.1439,-2.1765,-2.1651,-2.121,-2.0635,-1.9977,-1.9507,-1.9054,-1.8607,-1.8144,-1.7657,-1.6751,-1.6342,-1.6202,-1.6542,-1.6803,-1.7216,-1.7629,-1.7724,-1.7688,-1.7622,-1.7521,-1.7577,-1.7793,-1.7627,-1.7581,-1.7787,0.0,-1.6409,-1.6117,-1.579,-1.5495,-1.5459,-1.5267,-1.4402,-1.2768,-1.029,-0.7226,0.0,-0.0258,0.2161,0.3727,0.5473,0.7129,0.8548,0.7959,0.6936,0.5432,0.3779,0.2252,0.11,0.1369,0.1811,0.2441,0.378,0.5,0.6257,0.7672,0.8811,0.9946,1.1154,1.2015,1.2534,1.2363,1.202,1.1413,-2.5732,-2.5467,-2.5026,-2.4492,-2.4062,-2.3732,-2.3203,-2.3232,-2.3319,-2.3503,-2.3667,-2.4013,-2.469,-2.5359,-2.603,-2.6715,-2.7115,-2.751,-2.8179,-2.8566,-2.8882,-2.9221,-2.8778,-2.8311,-2.7668,-2.693,-2.6496,-2.6389,-2.6552,-2.662,-2.6607,-2.5812,-2.5181,-2.4591,-2.3725,-2.3108,-2.2774,-2.2604,-2.2555,-2.2641,-2.2199,-2.1765,-2.1388,-2.0549,-2.0172,-1.9998,-1.9639,-1.9835,-2.0291,-2.0495,-2.0752,-2.1019,-2.1019,-2.0624,-2.0172,-1.9726,-1.9142,-1.8607,-1.8405,-1.7725,-1.6978,-1.6482,-1.6202,-1.6202,-1.6542,-1.6517,-1.6669,-1.7583,-1.7142,-1.6679,-1.7171,-1.6875,-1.6553,-1.676,-1.6821,-1.6694,-1.6083,0.0,-1.4766,-1.4093,-1.367,-1.3317,-1.3263,-1.2726,-1.1805,-1.0228,-0.7681,-0.4536,-0.1053,0.1851,0.4682,0.7341,0.7724,0.8619,1.0202,0.9378,0.815,0.6589,0.4831,0.3263,0.1962,0.2091,0.2468,0.3026,0.4466,0.5523,0.6432,0.7669,0.8815,0.9777,1.0727,1.1413,1.1843,1.2015,1.1671,1.0982,-2.5742,-2.5566,-2.5293,-2.4844,-2.4414,-2.3984,-2.3732,-2.3467,-2.3406,-2.3851,-2.4186,-2.469,-2.5359,-2.6041,-2.6622,-2.7208,-2.736,-2.7522,-2.7672,-2.8063,-2.8395,-2.8736,-2.8071,-2.7155,-2.6181,-2.5336,-2.4933,-2.5063,-2.5063,-2.5134,-2.5205,-2.4294,-2.3641,-2.3247,-2.2258,-2.1862,-2.1888,-2.1745,-2.1889,-2.2161,-2.1765,-2.1451,-2.1019,-2.0183,-1.9736,-1.9539,-1.9198,-1.9396,-1.9857,-2.0053,-2.0453,-2.0786,-2.0786,-2.0518,-2.0194,-1.9736,-1.9008,-1.8347,-1.794,-1.7392,-1.6769,-1.6412,-1.6202,-1.6202,-1.6542,-1.6542,-1.6596,-1.7217,-1.6888,-1.6526,-1.6705,-1.6519,-1.6324,-1.6254,-1.6042,-1.5705,-1.5106,-1.4057,-1.3107,-1.2395,-1.1589,-1.0952,-1.0648,-0.9917,-0.8765,-0.7161,-0.4841,-0.2012,0.1415,0.3901,0.6477,0.9222,0.9836,1.0534,1.1585,1.0631,0.9374,0.7745,0.609,0.441,0.2818,0.2853,0.3006,0.336,0.4749,0.5728,0.6346,0.7584,0.8464,0.9069,1.0028,1.0809,1.1327,1.1413,1.1161,1.0539,-2.5742,-2.5742,-2.5596,-2.5146,-2.4707,-2.4369,-2.4117,-2.3781,-2.3764,-2.4368,-2.4871,-2.5443,-2.6102,-2.6704,-2.7126,-2.7429,-2.7441,-2.7278,-2.701,-2.708,-2.7441,-2.7829,-2.6889,-2.5812,-2.4516,-2.3846,-2.3582,-2.3548,-2.339,-2.339,-2.3452,-2.271,-2.219,-2.1833,-2.1113,-2.0967,-2.1219,-2.1285,-2.1568,-2.1862,-2.1588,-2.1273,-2.0839,-1.9998,-1.955,-1.9285,-1.9008,-1.9198,-1.9671,-1.9922,-2.0324,-2.0658,-2.0722,-2.0604,-2.027,-1.9802,-1.9008,-1.8134,-1.7608,-1.7194,-1.683,-1.6482,-1.6272,-1.6202,-1.6473,-1.6464,-1.6394,-1.6473,-1.6245,-1.5956,-1.5658,-1.5587,-1.5446,-1.5321,-1.488,-1.4398,-1.3895,-1.2625,-1.1491,-1.0831,-0.9766,-0.8776,-0.8205,-0.7289,-0.6058,-0.4327,-0.22,0.0355,0.3553,0.5684,0.8154,1.0875,1.1666,1.2192,1.2619,1.1671,1.0403,0.8891,0.7244,0.5624,0.3906,0.3777,0.3796,0.3946,0.5147,0.5878,0.6349,0.7411,0.8002,0.8309,0.9178,0.978,1.0206,1.0292,1.0013,0.9447,-2.5742,-2.5742,-2.5596,-2.5146,-2.4707,-2.4369,-2.4117,-2.3947,-2.41,-2.5031,-2.5527,-2.6185,-2.701,-2.7348,-2.7441,-2.7522,-2.7126,-2.6715,-2.6268,-2.5695,-2.5572,-2.6017,-2.4937,-2.3873,-2.2863,-2.2628,-2.2231,-2.1583,-2.1583,-2.1497,-2.1324,-2.1064,-2.0919,-2.0831,-2.1021,-2.1034,-2.1051,-2.1727,-2.197,-2.1862,-2.1726,-2.1336,-2.0839,-2.0129,-1.9615,-1.9274,-1.9253,-1.9386,-1.9671,-2.0172,-2.0495,-2.0646,-2.0839,-2.0658,-2.0335,-1.9998,-1.9008,-1.794,-1.7608,-1.7194,-1.6839,-1.6612,-1.6403,-1.6272,-1.6342,-1.6053,-1.5754,-1.5384,-1.4728,-1.4083,-1.3658,-1.3375,-1.315,-1.315,-1.2954,-1.2555,-1.1988,-1.0936,-0.9996,-0.9447,-0.8341,-0.7372,-0.6649,-0.5505,-0.4001,-0.2136,-0.0089,0.2316,0.4987,0.7197,0.9735,1.279,1.2966,1.3137,1.3307,1.2363,1.1248,0.9948,0.8233,0.668,0.5392,0.4957,0.4997,0.5293,0.5914,0.6393,0.6795,0.7326,0.7505,0.7454,0.7959,0.8037,0.7944,0.8191,0.7843,0.7151,-2.5742,-2.5742,-2.5684,-2.5518,-2.4987,-2.4742,-2.4937,-2.482,-2.4946,-2.5695,-2.6351,-2.6846,-2.7348,-2.7429,-2.7441,-2.7126,-2.6622,-2.603,-2.5443,-2.4493,-2.4054,-2.4164,-2.3513,-2.2629,-2.1624,-2.1221,-2.0827,-2.044,-2.0041,-1.9866,-1.9934,-1.9552,-1.9643,-2.0033,-2.0311,-2.0886,-2.1599,-2.1945,-2.2309,-2.2516,-2.2032,-2.1577,-2.1135,-2.0313,-1.9857,-1.9671,-1.9528,-1.9736,-2.014,-2.0442,-2.07,-2.0967,-2.0903,-2.0571,-2.0053,-1.9044,-1.8046,-1.7185,-1.6682,-1.6551,-1.6482,-1.6342,-1.6061,-1.578,-1.563,-1.5108,-1.4522,-1.4011,-1.3361,-1.2851,-1.2412,-1.2265,-1.205,-1.1822,-1.1396,-1.0923,-1.0209,-0.9196,-0.8283,-0.7537,-0.6602,-0.5536,-0.4552,-0.3213,-0.1606,0.0268,0.2228,0.4364,0.6763,0.9474,1.1574,1.3052,1.3483,1.3652,1.3398,1.279,1.1753,1.0243,0.8795,0.7392,0.6149,0.5725,0.5575,0.5618,0.6005,0.6275,0.6483,0.657,0.6496,0.636,0.6602,0.6564,0.6379,0.6028,0.5598,0.5087,-2.5742,-2.5742,-2.5742,-2.5742,-2.5198,-2.4985,-2.5442,-2.5284,-2.5443,-2.6185,-2.6775,-2.7196,-2.7348,-2.7267,-2.694,-2.6385,-2.5779,-2.5094,-2.4327,-2.3003,-2.233,-2.2494,-2.2028,-2.132,-2.0323,-1.9816,-1.9404,-1.8939,-1.8292,-1.8043,-1.8115,-1.798,-1.8399,-1.9344,-1.9976,-2.089,-2.211,-2.232,-2.2622,-2.2867,-2.2178,-2.1639,-2.1273,-2.0571,-2.0194,-2.0074,-1.9878,-2.0074,-2.0399,-2.0646,-2.0839,-2.0967,-2.0828,-2.0161,-1.9222,-1.7959,-1.701,-1.6324,-1.5675,-1.5401,-1.5401,-1.563,-1.5409,-1.5054,-1.4689,-1.4019,-1.3281,-1.2558,-1.1896,-1.1304,-1.0858,-1.0634,-1.0404,-1.011,-0.964,-0.9024,-0.8434,-0.7506,-0.657,-0.5903,-0.4987,-0.3848,-0.2772,-0.1431,0.0179,0.2232,0.4013,0.6054,0.8707,1.1139,1.2711,1.3307,1.3828,1.3828,1.3307,1.2875,1.1889,1.0554,0.9239,0.7975,0.6791,0.6361,0.6003,0.5888,0.6016,0.6089,0.6005,0.578,0.5479,0.5027,0.4888,0.46,0.4056,0.3533,0.3017,0.2503,-2.5742,-2.5742,-2.5742,-2.5742,-2.5208,-2.4985,-2.5442,-2.5382,-2.5538,-2.6362,-2.6715,-2.6962,-2.7185,-2.6775,-2.6113,-2.5285,-2.4754,-2.3973,-2.2833,-2.1105,-2.0403,-2.0818,-2.0466,-1.9775,-1.9002,-1.8559,-1.7738,-1.6698,-1.6206,-1.5869,-1.5696,-1.6139,-1.7196,-1.8638,-1.9953,-2.1251,-2.2501,-2.2914,-2.2963,-2.2674,-2.2151,-2.1612,-2.1158,-2.0862,-2.054,-2.041,-2.041,-2.041,-2.0475,-2.0775,-2.0764,-2.0571,-2.0431,-1.9344,-1.8007,-1.6872,-1.6035,-1.5313,-1.4522,-1.373,-1.3448,-1.4609,-1.4601,-1.4091,-1.352,-1.2785,-1.197,-1.1007,-1.0115,-0.9372,-0.8775,-0.8165,-0.7783,-0.7783,-0.7462,-0.7016,-0.6534,-0.571,-0.5016,-0.4674,-0.3622,-0.2508,-0.1522,-0.0268,0.134,0.3481,0.4905,0.7288,1.0804,1.21,1.3045,1.3652,1.3913,1.3743,1.3137,1.2619,1.1895,1.0988,0.947,0.8263,0.7354,0.6873,0.6538,0.6167,0.6141,0.5868,0.5463,0.5064,0.4272,0.3275,0.2831,0.1904,0.0866,0.0605,0.0086,-0.0433,-2.5742,-2.5742,-2.5742,-2.5742,-2.5549,-2.5531,-2.5493,-2.5809,-2.6053,-2.6063,-2.655,-2.6704,-2.608,-2.5768,-2.5179,-2.4049,-2.3357,-2.2225,-2.0363,-1.9771,-1.9005,-1.8023,-1.8371,-1.8399,-1.7853,-1.6927,-1.6191,-1.5545,-1.497,-1.4803,-1.4977,-1.565,-1.678,-1.8461,-1.9875,-2.1349,-2.2886,-2.3103,-2.3166,-2.2999,-2.2274,-2.1597,-2.0967,-2.0593,-2.0205,-1.9878,-1.9998,-1.9998,-2.0053,-2.0237,-2.0172,-1.9835,-1.8834,-1.7823,-1.6862,-1.5745,-1.4824,-1.4027,-1.3142,-1.2498,-1.2358,-1.3302,-1.3011,-1.2352,-1.1896,-1.1156,-1.034,-0.9523,-0.8927,-0.8399,-0.7791,-0.7403,-0.7015,-0.6542,-0.6041,-0.5477,-0.4927,-0.4155,-0.3491,-0.32,-0.2388,-0.1434,-0.0269,0.0806,0.2234,0.4461,0.7112,0.9492,1.1413,1.2272,1.296,1.3483,1.3398,1.3137,1.2619,1.2448,1.1638,1.0196,0.9199,0.8162,0.72,0.6675,0.6286,0.5996,0.5465,0.4956,0.4358,0.3319,0.2409,0.1425,0.0506,-0.0256,-0.0866,-0.1817,-0.2271,-0.248,-2.5742,-2.5742,-2.5742,-2.5742,-2.5658,-2.5578,-2.5412,-2.5748,-2.5873,-2.5581,-2.5779,-2.5684,-2.4904,-2.4478,-2.3704,-2.2561,-2.1578,-2.034,-1.8871,-1.8349,-1.7578,-1.643,-1.6523,-1.6609,-1.6624,-1.5711,-1.4963,-1.4391,-1.3977,-1.3971,-1.4475,-1.5304,-1.669,-1.8621,-1.9944,-2.1364,-2.2894,-2.2983,-2.2842,-2.2536,-2.1833,-2.1072,-2.0324,-2.0064,-1.9791,-1.9462,-1.9539,-1.9528,-1.9518,-1.9584,-1.9243,-1.8556,-1.7423,-1.6376,-1.5525,-1.453,-1.3593,-1.2725,-1.1835,-1.1168,-1.0801,-1.1162,-1.1174,-1.0956,-1.0421,-0.9744,-0.9074,-0.8394,-0.7868,-0.7334,-0.6791,-0.6325,-0.5857,-0.5306,-0.4611,-0.3934,-0.3514,-0.2798,-0.2195,-0.1968,-0.1409,-0.0628,0.0448,0.1433,0.3038,0.5617,0.8261,1.0371,1.1671,1.2272,1.279,1.3137,1.2966,1.2534,1.1849,1.1671,1.0982,0.9772,0.8789,0.7835,0.6947,0.636,0.5846,0.5357,0.4763,0.4005,0.3147,0.1995,0.0839,-0.0255,-0.1371,-0.2167,-0.2894,-0.3773,-0.4156,-0.4289,-2.5742,-2.5742,-2.5742,-2.5742,-2.5582,-2.5337,-2.5137,-2.5166,-2.5165,-2.4838,-2.4594,-2.4231,-2.3704,-2.3008,-2.2129,-2.0898,-1.9521,-1.8553,-1.8034,-1.6922,-1.6074,-1.5627,-1.4746,-1.4503,-1.5054,-1.4559,-1.3977,-1.3398,-1.3222,-1.347,-1.4126,-1.5282,-1.6919,-1.8939,-2.0032,-2.1288,-2.2596,-2.2459,-2.2111,-2.1505,-2.0931,-2.0253,-1.9473,-1.9243,-1.9166,-1.91,-1.8998,-1.8931,-1.8865,-1.8664,-1.7842,-1.6802,-1.6035,-1.5029,-1.4019,-1.323,-1.2358,-1.1409,-1.0588,-0.9755,-0.9074,-0.8699,-0.9231,-0.976,-0.9003,-0.8546,-0.8097,-0.7561,-0.6945,-0.6409,-0.5941,-0.5162,-0.4462,-0.399,-0.3212,-0.2511,-0.2118,-0.1548,-0.1091,-0.0926,-0.0611,-0.0089,0.0628,0.1792,0.3662,0.677,0.8615,1.0193,1.1499,1.202,1.2363,1.2534,1.2272,1.1671,1.0804,1.0289,0.9859,0.9428,0.8288,0.7343,0.6556,0.588,0.5257,0.4577,0.3873,0.3017,0.1886,0.0854,-0.0434,-0.1828,-0.2929,-0.4022,-0.4917,-0.5369,-0.5636,-0.5808,-2.5742,-2.5742,-2.5742,-2.5742,-2.5838,-2.5694,-2.5003,-2.5169,-2.5005,-2.3941,-2.3734,-2.328,-2.2315,-2.1695,-2.0889,-1.9729,-1.8619,-1.755,-1.6591,-1.6134,-1.5307,-1.3986,-1.3561,-1.317,-1.2778,-1.3124,-1.33,-1.3143,-1.3307,-1.3802,-1.4789,-1.6101,-1.7568,-1.9213,-2.0157,-2.1098,-2.2025,-2.1996,-2.1544,-2.0836,-2.0469,-1.972,-1.871,-1.8375,-1.8104,-1.7842,-1.7784,-1.7716,-1.7501,-1.7001,-1.6306,-1.5471,-1.4681,-1.3897,-1.3032,-1.207,-1.118,-1.0288,-0.9382,-0.8703,-0.825,-0.7638,-0.7714,-0.7863,-0.7863,-0.7638,-0.7334,-0.6868,-0.6563,-0.6099,-0.5318,-0.4691,-0.3912,-0.2821,-0.2037,-0.1412,-0.0785,-0.0483,-0.0247,-0.0252,-0.0172,0.0176,0.0985,0.2862,0.4732,0.6416,0.8265,0.9758,1.0809,1.1154,1.1327,1.1327,1.0626,0.984,0.9048,0.8448,0.8281,0.8464,0.7669,0.6699,0.5766,0.5079,0.4413,0.381,0.2747,0.1769,0.0771,-0.0691,-0.2101,-0.3288,-0.4465,-0.5277,-0.5813,-0.6349,-0.6526,-0.6612,-2.5742,-2.5742,-2.5742,-2.5742,-2.583,-2.5622,-2.4746,-2.47,-2.4394,-2.3174,-2.2687,-2.2138,-2.1168,-2.0348,-1.9438,-1.8265,-1.7426,-1.6699,-1.5978,-1.5272,-1.4349,-1.3213,-1.2543,-1.2096,-1.1671,-1.2357,-1.279,-1.3052,-1.3639,-1.4468,-1.5696,-1.6772,-1.8158,-1.9618,-2.0177,-2.0886,-2.1502,-2.1502,-2.0971,-1.9991,-1.9713,-1.8901,-1.7706,-1.7423,-1.7148,-1.6881,-1.6881,-1.6742,-1.6464,-1.6044,-1.5338,-1.4553,-1.397,-1.3025,-1.2003,-1.1186,-1.0288,-0.9306,-0.847,-0.794,-0.7407,-0.7026,-0.6876,-0.6799,-0.7022,-0.7022,-0.6795,-0.6486,-0.6099,-0.5634,-0.5007,-0.407,-0.3134,-0.2117,-0.1255,-0.0471,0.0079,0.0321,0.0409,0.0331,0.0169,0.0432,0.1146,0.2759,0.4378,0.5971,0.7474,0.889,1.0033,1.0111,1.0111,1.0024,0.9052,0.8261,0.7467,0.6861,0.6511,0.6511,0.6248,0.5659,0.4769,0.399,0.3345,0.2775,0.17,0.0688,-0.0348,-0.1754,-0.3101,-0.4204,-0.528,-0.5994,-0.6438,-0.6792,-0.6966,-0.6969,-2.5742,-2.5742,-2.5742,-2.5742,-2.5742,-2.5343,-2.4468,-2.4146,-2.3572,-2.2368,-2.1633,-2.0907,-2.0102,-1.9072,-1.7971,-1.6979,-1.6407,-1.5933,-1.5635,-1.4471,-1.3455,-1.2683,-1.1674,-1.1175,-1.116,-1.1929,-1.2619,-1.3124,-1.4139,-1.5304,-1.6527,-1.744,-1.8505,-1.9784,-2.0029,-2.042,-2.0896,-2.0896,-2.0269,-1.9238,-1.8931,-1.8012,-1.6781,-1.6421,-1.6175,-1.6018,-1.5956,-1.5745,-1.5409,-1.5204,-1.4561,-1.376,-1.3317,-1.2291,-1.1111,-1.0438,-0.9458,-0.8475,-0.7783,-0.7246,-0.6788,-0.6563,-0.6412,-0.6338,-0.6486,-0.6563,-0.6486,-0.6257,-0.5712,-0.5165,-0.4621,-0.3528,-0.2431,-0.149,-0.0471,0.0314,0.0785,0.0959,0.0972,0.0732,0.0498,0.0594,0.1294,0.2201,0.3559,0.5326,0.6584,0.7837,0.9074,0.8978,0.8711,0.8452,0.7474,0.6675,0.5883,0.5176,0.4467,0.3931,0.4111,0.4076,0.3836,0.2879,0.216,0.1616,0.0693,-0.0349,-0.1487,-0.2756,-0.3848,-0.4917,-0.5902,-0.6438,-0.6881,-0.7054,-0.7139,-0.7051,-2.5742,-2.5742,-2.5742,-2.5742,-2.5742,-2.5343,-2.4282,-2.3961,-2.3185,-2.1733,-2.0916,-2.0093,-1.9072,-1.7777,-1.677,-1.6312,-1.5832,-1.5356,-1.4879,-1.3771,-1.2685,-1.1605,-1.1007,-1.0619,-1.0477,-1.1757,-1.2784,-1.362,-1.4887,-1.5974,-1.6952,-1.7861,-1.8594,-1.9161,-1.9301,-1.9548,-1.9803,-1.9803,-1.9521,-1.8966,-1.8331,-1.7458,-1.656,-1.5518,-1.5037,-1.4816,-1.4474,-1.4266,-1.3977,-1.3622,-1.3193,-1.2666,-1.1922,-1.1186,-1.0438,-0.9453,-0.8703,-0.8021,-0.7249,-0.6865,-0.6563,-0.6412,-0.6338,-0.6338,-0.6338,-0.6338,-0.6257,-0.6018,-0.5631,-0.501,-0.4075,-0.3137,-0.204,-0.0471,0.0314,0.1021,0.1883,0.1732,0.1432,0.1215,0.0747,0.059,0.1015,0.1981,0.3048,0.4353,0.5569,0.6602,0.7404,0.7401,0.7224,0.6782,0.5622,0.4554,0.3664,0.2772,0.1967,0.1252,0.0894,0.1429,0.2675,0.1785,0.107,0.0534,-0.0624,-0.1606,-0.2409,-0.3842,-0.4917,-0.563,-0.6435,-0.6881,-0.7051,-0.7051,-0.7139,-0.7054,-2.5742,-2.5742,-2.5742,-2.5742,-2.5538,-2.515,-2.4002,-2.3392,-2.2546,-2.1013,-2.0002,-1.9163,-1.8241,-1.7138,-1.6312,-1.6028,-1.5635,-1.5261,-1.479,-1.3582,-1.2487,-1.16,-1.0918,-1.0706,-1.1079,-1.2351,-1.3451,-1.4461,-1.5484,-1.6319,-1.7049,-1.7627,-1.8031,-1.8416,-1.8567,-1.8825,-1.924,-1.9152,-1.8837,-1.843,-1.7494,-1.6653,-1.5691,-1.4824,-1.4266,-1.3985,-1.3848,-1.363,-1.3404,-1.3119,-1.2673,-1.215,-1.1484,-1.0738,-0.9992,-0.9079,-0.8322,-0.7638,-0.7096,-0.6637,-0.6412,-0.6338,-0.6338,-0.6338,-0.6338,-0.618,-0.6022,-0.5941,-0.5398,-0.4698,-0.3919,-0.2743,-0.1412,-0.0236,0.0942,0.1804,0.2275,0.2276,0.197,0.1035,0.0244,-0.0083,0.0248,0.1192,0.2169,0.3208,0.4414,0.5445,0.6071,0.5894,0.5447,0.4999,0.3753,0.2683,0.1788,0.0715,0.0,-0.0447,-0.1073,-0.0626,0.0896,0.0179,-0.0359,-0.0897,-0.1792,-0.2688,-0.3582,-0.4654,-0.5455,-0.6163,-0.6615,-0.6881,-0.7139,-0.7139,-0.7139,-0.7051]},{"header":{"parameterUnit":"m.s-1","parameterCategory":1,"la1":30.6,"la2":28.766,"lo1":-90.7593,"lo2":-88.6598,"dx":0.0162,"dy":0.0183,"nx":116,"ny":114,"refTime":"2022-12-06T18:00:00:Z","depth":0,"parameterNumber":3,"parameterNumberName":"V-component_of_WINDS"},"data":[0.0,0.0,0.0,0.0,0.0,0.0,0.0,0.0,0.0,0.0,0.0,0.0,0.0,0.0,0.0,0.0,0.0,0.0,0.0,0.0,0.0,0.0,0.0,0.0,0.0,0.0,0.0,0.0,0.0,0.0,0.0,0.0,0.0,0.0,0.0,0.0,0.0,0.0,0.0,0.0,0.0,0.0,0.0,0.0,0.0,0.0,0.0,0.0,0.0,0.0,0.0,0.0,0.0,0.0,0.0,0.0,0.0,0.0,0.0,0.0,0.0,0.0,0.0,0.0,0.0,0.0,0.0,0.0,0.0,0.0,0.0,0.0,0.0,0.0,0.0,0.0,0.0,0.0,0.0,0.0,0.0,0.0,0.0,0.0,0.0,0.0,0.0,0.0,0.0,0.0,0.0,0.0,0.0,0.0,0.0,0.0,0.0,0.0,0.0,0.0,0.0,0.0,0.0,0.0,0.0,0.0,0.0,0.0,0.0,0.0,0.0,0.0,0.0,0.0,0.0,0.0,0.0,0.0,0.0,0.0,0.0,0.0,0.0,0.0,0.0,0.0,0.0,0.0,0.0,0.0,0.0,0.0,0.0,0.0,0.0,0.0,0.0,0.0,0.0,0.0,0.0,0.0,0.0,0.0,0.0,0.0,0.0,0.0,0.0,0.0,0.0,0.0,0.0,0.0,0.0,0.0,0.0,0.0,0.0,0.0,0.0,0.0,0.0,0.0,0.0,0.0,0.0,0.0,0.0,0.0,0.0,0.0,0.0,0.0,0.0,0.0,0.0,0.0,0.0,0.0,0.0,0.0,0.0,0.0,0.0,0.0,0.0,0.0,0.0,0.0,0.0,0.0,0.0,0.0,0.0,0.0,0.0,0.0,0.0,0.0,0.0,0.0,0.0,0.0,0.0,0.0,0.0,0.0,0.0,0.0,0.0,0.0,0.0,0.0,0.0,0.0,0.0,0.0,0.0,0.0,0.0,0.0,0.0,0.0,0.0,0.0,0.0,0.0,0.0,0.0,0.0,0.0,0.0,0.0,0.0,0.0,0.0,0.0,0.0,0.0,0.0,0.0,0.0,0.0,0.0,0.0,0.0,0.0,0.0,0.0,0.0,0.0,0.0,0.0,0.0,0.0,0.0,0.0,0.0,0.0,0.0,0.0,0.0,0.0,0.0,0.0,0.0,0.0,0.0,0.0,0.0,0.0,0.0,0.0,0.0,0.0,0.0,0.0,0.0,0.0,0.0,0.0,0.0,0.0,0.0,0.0,0.0,0.0,0.0,0.0,0.0,0.0,0.0,0.0,0.0,0.0,0.0,0.0,0.0,0.0,0.0,0.0,0.0,0.0,0.0,0.0,0.0,0.0,0.0,0.0,0.0,0.0,0.0,0.0,0.0,0.0,0.0,0.0,0.0,0.0,0.0,0.0,0.0,0.0,0.0,0.0,0.0,0.0,0.0,0.0,0.0,0.0,0.0,0.0,0.0,0.0,0.0,0.0,0.0,0.0,0.0,0.0,0.0,0.0,0.0,0.0,0.0,0.0,0.0,0.0,0.0,0.0,0.0,0.0,0.0,0.0,0.0,0.0,0.0,0.0,0.0,0.0,0.0,0.0,0.0,0.0,0.0,0.0,0.0,0.0,0.0,0.0,0.0,0.0,0.0,0.0,0.0,0.0,0.0,0.0,0.0,0.0,0.0,0.0,0.0,0.0,0.0,0.0,0.0,0.0,0.0,0.0,0.0,0.0,0.0,0.0,0.0,0.0,0.0,0.0,0.0,0.0,0.0,0.0,0.0,0.0,0.0,0.0,0.0,0.0,0.0,0.0,0.0,0.0,0.0,0.0,0.0,0.0,0.0,0.0,0.0,0.0,0.0,0.0,0.0,0.0,0.0,0.0,0.0,0.0,0.0,0.0,0.0,0.0,0.0,0.0,0.0,0.0,0.0,0.0,0.0,0.0,0.0,0.0,0.0,0.0,0.0,0.0,0.0,0.0,0.0,0.0,0.0,0.0,0.0,0.0,0.0,0.0,0.0,0.0,0.0,0.0,0.0,0.0,0.0,0.0,0.0,0.0,0.0,0.0,0.0,0.0,0.0,0.0,0.0,0.0,0.0,0.0,0.0,0.0,0.0,0.0,0.0,0.0,0.0,0.0,0.0,0.0,0.0,0.0,0.0,0.0,0.0,0.0,0.0,0.0,0.0,0.0,0.0,0.0,0.0,0.0,0.0,0.0,0.0,0.0,0.0,0.0,0.0,0.0,0.0,0.0,0.0,0.0,0.0,0.0,0.0,0.0,0.0,0.0,0.0,0.0,0.0,0.0,0.0,0.0,0.0,0.0,0.0,0.0,0.0,0.0,0.0,0.0,0.0,0.0,0.0,0.0,0.0,0.0,0.0,0.0,0.0,0.0,0.0,0.0,0.0,0.0,0.0,0.0,0.0,0.0,0.0,0.0,0.0,0.0,0.0,0.0,0.0,0.0,0.0,0.0,0.0,0.0,0.0,0.0,0.0,0.0,0.0,0.0,0.0,0.0,0.0,0.0,0.0,0.0,0.0,0.0,0.0,0.0,0.0,0.0,0.0,0.0,0.0,0.0,0.0,0.0,0.0,0.0,0.0,0.0,0.0,0.0,0.0,0.0,0.0,0.0,0.0,0.0,0.0,0.0,0.0,0.0,0.0,0.0,0.0,0.0,0.0,0.0,0.0,0.0,0.0,0.0,0.0,0.0,0.0,0.0,0.0,0.0,0.0,0.0,0.0,0.0,0.0,0.0,0.0,0.0,0.0,0.0,0.0,0.0,0.0,0.0,0.0,0.0,0.0,0.0,0.0,0.0,0.0,0.0,0.0,0.0,0.0,0.0,0.0,0.0,0.0,0.0,0.0,0.0,0.0,0.0,0.0,0.0,0.0,0.0,0.0,0.0,0.0,0.0,0.0,0.0,0.0,0.0,0.0,0.0,0.0,0.0,0.0,0.0,0.0,0.0,0.0,0.0,0.0,0.0,0.0,0.0,0.0,0.0,0.0,0.0,0.0,0.0,0.0,0.0,0.0,0.0,0.0,0.0,0.0,0.0,0.0,0.0,0.0,0.0,0.0,0.0,0.0,0.0,0.0,0.0,0.0,0.0,0.0,0.0,0.0,0.0,0.0,0.0,0.0,0.0,0.0,0.0,0.0,0.0,0.0,0.0,0.0,0.0,0.0,0.0,0.0,0.0,0.0,0.0,0.0,0.0,0.0,0.0,0.0,0.0,0.0,0.0,0.0,0.0,0.0,0.0,0.0,0.0,0.0,0.0,0.0,0.0,0.0,0.0,0.0,0.0,0.0,0.0,0.0,0.0,0.0,0.0,0.0,0.0,0.0,0.0,0.0,0.0,0.0,0.0,0.0,0.0,0.0,0.0,0.0,0.0,0.0,0.0,0.0,0.0,0.0,0.0,0.0,0.0,0.0,0.0,0.0,0.0,0.0,0.0,0.0,0.0,0.0,0.0,0.0,0.0,0.0,0.0,0.0,0.0,0.0,0.0,0.0,0.0,0.0,0.0,0.0,0.0,0.0,0.0,0.0,0.0,0.0,0.0,0.0,0.0,0.0,0.0,0.0,0.0,0.0,0.0,0.0,0.0,0.0,0.0,0.0,0.0,0.0,0.0,0.0,0.0,0.0,0.0,0.0,0.0,0.0,0.0,0.0,0.0,0.0,0.0,0.0,0.0,0.0,0.0,0.0,0.0,0.0,0.0,0.0,0.0,0.0,0.0,0.0,0.0,0.0,0.0,0.0,0.0,0.0,0.0,0.0,0.0,0.0,0.0,0.0,0.0,0.0,0.0,0.0,0.0,0.0,0.0,0.0,0.0,0.0,0.0,0.0,0.0,0.0,0.0,0.0,0.0,0.0,0.0,0.0,0.0,0.0,0.0,0.0,0.0,0.0,0.0,0.0,0.0,0.0,0.0,0.0,0.0,0.0,0.0,0.0,0.0,0.0,0.0,0.0,0.0,0.0,0.0,0.0,0.0,0.0,0.0,0.0,0.0,0.0,0.0,0.0,0.0,0.0,0.0,0.0,0.0,0.0,0.0,0.0,0.0,0.0,0.0,0.0,0.0,0.0,0.0,0.0,0.0,0.0,0.0,0.0,0.0,0.0,0.0,0.0,0.0,0.0,0.0,0.0,0.0,0.0,0.0,0.0,0.0,0.0,0.0,0.0,0.0,0.0,0.0,0.0,0.0,0.0,0.0,0.0,0.0,0.0,0.0,0.0,0.0,0.0,0.0,0.0,0.0,0.0,0.0,0.0,0.0,0.0,0.0,0.0,0.0,0.0,0.0,0.0,0.0,0.0,0.0,0.0,0.0,0.0,0.0,0.0,0.0,0.0,0.0,0.0,0.0,0.0,0.0,0.0,0.0,0.0,0.0,0.0,0.0,0.0,0.0,0.0,0.0,0.0,0.0,0.0,0.0,0.0,0.0,0.0,0.0,0.0,0.0,0.0,0.0,0.0,0.0,0.0,0.0,0.0,0.0,0.0,0.0,0.0,0.0,0.0,0.0,0.0,0.0,0.0,0.0,0.0,0.0,0.0,0.0,0.0,0.0,0.0,0.0,0.0,0.0,0.0,0.0,0.0,0.0,0.0,0.0,0.0,0.0,0.0,0.0,0.0,0.0,0.0,0.0,0.0,0.0,0.0,0.0,0.0,0.0,0.0,0.0,0.0,0.0,0.0,0.0,0.0,0.0,0.0,0.0,0.0,0.0,0.0,0.0,0.0,0.0,0.0,0.0,0.0,0.0,0.0,0.0,0.0,0.0,0.0,0.0,0.0,0.0,0.0,0.0,0.0,0.0,0.0,0.0,0.0,0.0,0.0,0.0,0.0,0.0,0.0,0.0,0.0,0.0,0.0,0.0,0.0,0.0,0.0,0.0,0.0,0.0,0.0,0.0,0.0,0.0,0.0,0.0,0.0,0.0,0.0,0.0,0.0,0.0,0.0,0.0,0.0,0.0,0.0,0.0,0.0,0.0,0.0,0.0,0.0,0.0,0.0,0.0,0.0,0.0,0.0,0.0,0.0,0.0,0.0,0.0,0.0,0.0,0.0,0.0,0.0,0.0,0.0,0.0,0.0,0.0,0.0,0.0,0.0,0.0,0.0,0.0,0.0,0.0,0.0,0.0,0.0,0.0,0.0,0.0,0.0,0.0,0.0,0.0,0.0,0.0,0.0,0.0,0.0,0.0,0.0,0.0,0.0,0.0,0.0,0.0,0.0,0.0,0.0,0.0,0.0,0.0,0.0,0.0,0.0,0.0,0.0,0.0,0.0,0.0,0.0,0.0,0.0,0.0,0.0,0.0,0.0,0.0,0.0,0.0,0.0,0.0,0.0,0.0,0.0,0.0,0.0,0.0,0.0,0.0,0.0,0.0,0.0,0.0,0.0,0.0,0.0,0.0,0.0,0.0,0.0,0.0,0.0,0.0,0.0,0.0,0.0,0.0,0.0,0.0,0.0,0.0,0.0,0.0,0.0,0.0,0.0,0.0,0.0,0.0,0.0,0.0,0.0,0.0,0.0,0.0,0.0,0.0,0.0,0.0,0.0,0.0,0.0,0.0,0.0,0.0,0.0,0.0,0.0,0.0,0.0,0.0,0.0,0.0,0.0,0.0,0.0,0.0,0.0,0.0,0.0,0.0,0.0,0.0,0.0,0.0,0.0,0.0,0.0,0.0,0.0,0.0,0.0,0.0,0.0,0.0,0.0,0.0,0.0,0.0,0.0,0.0,0.0,0.0,0.0,0.0,0.0,0.0,0.0,0.0,0.0,0.0,0.0,0.0,0.0,0.0,0.0,0.0,0.0,0.0,0.0,0.0,0.0,0.0,0.0,0.0,0.0,0.0,0.0,0.0,0.0,0.0,0.0,0.0,0.0,0.0,0.0,0.0,0.0,0.0,0.0,0.0,0.0,0.0,0.0,0.0,0.0,0.0,0.0,0.0,0.0,0.0,0.0,0.0,0.0,0.0,0.0,0.0,0.0,0.0,0.0,0.0,0.0,0.0,0.0,0.0,0.0,0.0,0.0,0.0,0.0,0.0,0.0,0.0,0.0,0.0,0.0,0.0,0.0,0.0,-0.1733,0.0,0.0,0.0,0.0,0.0,0.0,0.0,0.0,0.0,0.0,0.0,0.0,0.0,0.0,0.0,0.0,0.0,0.0,0.0,0.0,0.0,0.0,0.0,0.0,0.1305,0.1176,0.1122,0.0954,0.0,0.0,0.0,0.0,0.0,0.0,0.0,0.0,0.0,0.555,0.5713,0.5738,0.5613,0.5358,0.3735,0.184,-0.0292,0.0,0.0,0.0,0.0,0.0,0.0,0.0,0.0,0.0,0.0,0.0,0.0,0.0,0.0,0.0,0.0,0.0,0.0,0.0,0.0,0.0,0.0,0.0,0.0,0.0,0.0,0.0,0.0,0.0,0.0,0.0,0.0,0.0,0.0,0.0,0.0,0.0,0.0,0.0,0.0,0.0,0.0,0.0,0.0,0.0,0.0,0.0,0.0,0.0,0.0,0.0,0.0,0.0,0.0,0.0,0.0,0.0,0.0,0.0,0.0,0.0,0.0,0.0,0.0,0.0,0.0,0.0,0.0,0.0,0.0,0.0,-0.1398,0.0,0.0,0.0,0.0,0.0,0.0,0.0,0.0,0.0,0.0,0.0,0.0,0.0,0.0,0.0,0.0,0.0,0.0,0.0,0.0,0.0,0.2668,0.2118,0.2158,0.2087,0.1753,0.1639,0.1808,0.2201,0.2747,0.0,0.0,0.0,0.0,0.0,0.686,0.7244,0.7577,0.776,0.7518,0.6769,0.6133,0.4343,0.1713,0.0306,0.0,0.0,0.0,0.0,0.0,0.0,0.0,0.0,0.0,0.0,0.0,0.0,0.0,0.0,0.0,0.0,0.0,0.0,0.0,0.0,0.0,0.0,0.0,0.0,0.0,0.0,0.0,0.0,0.0,0.0,0.0,0.0,0.0,0.0,0.0,0.0,0.0,0.0,0.0,0.0,0.0,0.0,0.0,0.0,0.0,0.0,0.0,0.0,0.0,0.0,0.0,0.0,0.0,0.0,0.0,0.0,0.0,0.0,0.0,0.0,0.0,0.0,0.0,0.5337,0.6186,0.6992,0.7779,0.8122,0.7891,0.4351,0.16,-0.0443,-0.1938,0.0,0.0,0.0,0.0,0.0,0.0,0.0,0.0,0.0,0.0,0.0,0.0,0.0,0.0,0.0,0.0,0.0,0.0,0.0,0.3757,0.3565,0.3681,0.3666,0.3319,0.2969,0.2909,0.3203,0.3393,0.0,0.0,0.0,0.0,0.7948,0.8414,0.8989,0.9756,1.0051,0.9821,0.9228,0.8309,0.706,0.544,0.2663,0.0721,-0.0652,0.0,0.0,0.0,0.0,0.0,0.0,0.0,0.0,0.0,0.0,0.0,0.0,0.0,0.0,0.0,0.0,0.0,0.0,0.0,0.0,0.0,0.0,0.0,0.0,0.0,0.0,0.0,0.0,0.0,0.0,0.0,0.0,0.0,0.0,0.0,0.0,0.0,0.0,0.0,0.0,0.0,0.3292,0.2244,0.0,0.0,0.0,0.0,0.0,0.0,0.0,0.0,0.0,0.0,0.0,0.0,0.0,0.5839,0.6343,0.6637,0.7087,0.7699,0.8397,0.9205,1.0122,1.0705,1.0884,1.0628,0.9577,0.0,0.2675,0.097,0.0,0.0,0.0,0.0,0.0,0.0,0.0,0.0,0.0,0.0,0.0,0.0,0.0,0.0,0.0,0.0,0.0,0.0,0.0,0.0,0.0,0.5381,0.5389,0.5011,0.4782,0.4572,0.4436,0.488,0.0,0.0,0.0,0.8051,0.8865,0.9904,1.1023,1.2175,1.1963,1.1644,1.1106,1.0239,0.9162,0.7925,0.6236,0.4017,0.1512,0.0701,0.0,0.0,0.0,0.0,0.0,0.0,0.0,0.0,0.0,0.0,0.0,0.0,0.0,0.0,0.0,0.0,0.0,0.0,0.0,0.0,0.0,0.0,0.0,0.0,0.0,0.0,0.0,0.0,0.0,0.0,0.0,0.0,0.0,0.0,0.0,0.0,0.0,0.0,0.0,0.5317,0.5181,0.4621,0.3974,0.3306,0.0,0.0,0.0,0.0,0.0,0.0,0.0,0.0,0.0,0.8128,0.8786,0.9343,0.9887,1.0086,1.0317,1.06,1.1225,1.1643,1.2043,1.268,1.2873,1.263,1.2443,1.0682,0.77,0.4639,0.2076,-0.0054,0.0,0.0,0.0,0.0,-0.6711,-0.8209,0.0,0.0,0.0,0.0,0.0,0.0,0.0,0.0,0.0,0.0,0.0,0.0,0.7139,0.7553,0.7683,0.7303,0.7149,0.682,0.6316,0.674,0.7159,0.7467,0.8553,0.9525,1.0264,1.1849,1.3218,1.4371,1.3838,1.3287,1.2755,1.1981,1.1001,0.9984,0.9352,0.7176,0.3873,0.3127,0.225,0.1269,0.0,0.0,0.0,0.0,0.0,0.0,0.0,0.0,0.0,0.0,0.0,0.0,0.0,0.0,0.0,0.0,0.0,0.0,0.0,0.0,0.0,0.0,0.0,0.0,0.0,0.0,0.0,0.0,0.0,0.0,0.0,0.0,0.0,0.0,0.0,0.0,0.0,0.7115,0.7398,0.7265,0.6847,0.6316,0.0,0.0,0.0,0.0,0.0,0.0,0.8562,0.9881,1.0978,1.1744,1.2291,1.2797,1.3178,1.3331,1.3456,1.3376,1.3639,1.3747,1.3716,1.4277,1.443,1.427,1.4264,1.3438,1.1906,0.8149,0.5278,0.3133,0.1888,0.0156,-0.1912,-0.4066,-0.6349,-0.864,0.0,0.0,0.0,0.0,0.0,0.0,0.0,0.0,0.0,0.0,0.0,0.9022,0.9561,1.0505,1.0905,1.0614,1.0327,0.9894,0.9319,0.9071,0.9332,1.0056,1.0358,1.1301,1.2976,1.452,1.5644,1.6248,1.5596,1.4965,1.4391,1.3509,1.2655,1.1858,1.1487,0.9505,0.6351,0.5426,0.4375,0.3264,0.2428,0.0,0.0,0.0,0.0,0.0,0.0,0.0,0.0,0.0,0.0,0.0,0.0,0.0,0.0,0.0,0.0,0.0,0.0,0.0,0.0,0.0,0.0,0.0,0.0,0.0,0.0,0.0,0.0,0.0,0.0,0.0,0.0,0.0,0.0,0.0,0.0,0.0,0.0,0.9993,1.0064,0.0,0.0,0.0,0.0,0.9667,1.0279,1.1188,1.2349,1.3519,1.4446,1.5127,1.5802,1.609,1.5991,1.6182,1.6203,1.6089,1.5628,1.5478,1.5641,1.5584,1.555,1.5495,1.532,1.473,1.3742,1.1019,0.8612,0.6513,0.5058,0.2936,0.036,-0.2645,-0.5737,-0.882,0.0,0.0,0.0,0.5883,0.6206,0.6486,0.6784,0.7224,0.7872,0.8834,1.0072,1.1296,1.2397,1.3168,1.3438,1.3079,1.2659,1.205,1.1163,1.0965,1.0959,1.1131,1.1926,1.3369,1.5468,1.6411,1.7068,1.7498,1.7043,1.642,1.5655,1.4951,1.4296,1.37,1.3287,1.2261,1.071,0.871,0.711,0.583,0.4591,0.3468,0.0,0.0,0.0,0.0,0.0,0.0,0.0,0.0,0.0,0.0,0.0,0.0,0.0,0.0,0.0,0.0,0.0,0.0,0.0,0.0,0.0,0.0,0.0,0.0,0.0,0.0,0.0,0.0,0.0,0.0,0.0,0.0,0.0,0.0,0.0,0.0,0.0,1.3146,1.3451,0.0,1.3323,1.3267,1.3421,1.3762,1.4298,1.5015,1.5889,1.671,1.7254,1.7521,1.7904,1.7981,1.7884,1.795,1.7855,1.7523,1.7235,1.6893,1.6485,1.6303,1.6055,1.5731,1.5773,1.5442,1.4821,1.3972,1.1977,0.9315,0.7596,0.5128,0.2006,-0.2102,-0.6124,-1.0031,0.0,0.0,0.0,0.6869,0.7149,0.7451,0.7778,0.8281,0.9153,1.0407,1.1947,1.3488,1.4843,1.5708,1.6078,1.5767,1.5274,1.4558,1.3443,1.3177,1.2963,1.2964,1.4409,1.5905,1.7444,1.8246,1.8613,1.862,1.8221,1.7567,1.6743,1.6177,1.5661,1.5148,1.4796,1.4373,1.3742,1.1835,0.9979,0.8215,0.6929,0.5733,0.4501,0.0,0.0,0.0,0.0,0.0,0.0,0.0,0.0,0.0,0.0,0.0,0.0,0.0,0.0,0.0,0.0,0.0,0.0,0.0,0.0,0.0,0.0,0.0,0.0,0.0,0.0,0.0,0.0,0.0,0.0,0.0,0.0,0.0,0.0,0.0,1.5259,1.6062,1.6565,1.689,1.6949,1.7001,1.7085,1.7306,1.7729,1.8183,1.8677,1.9157,1.9374,1.9307,1.9384,1.9291,1.9121,1.9174,1.9044,1.8729,1.8469,1.8039,1.748,1.7041,1.6662,1.6277,1.6268,1.6081,1.5844,1.5916,1.4702,1.2598,1.0274,0.72,0.3509,-0.1552,-0.6449,-1.0858,0.0,0.0,0.7723,0.7723,0.8103,0.8527,0.8778,0.9658,1.0661,1.1799,1.3796,1.5562,1.6842,1.805,1.872,1.8562,1.816,1.7463,1.6237,1.559,1.5395,1.5683,1.7599,1.8766,1.8883,2.0089,2.0378,1.967,1.9178,1.8531,1.7688,1.7268,1.6729,1.6171,1.5989,1.569,1.5225,1.4765,1.2948,1.0414,0.9557,0.8259,0.6902,0.0,0.0,0.0,0.0,0.0,0.0,0.0,0.0,0.0,0.0,0.0,0.0,0.0,0.0,0.0,0.0,0.0,0.0,0.0,0.0,0.0,0.0,0.0,0.0,0.0,0.0,0.0,0.0,0.0,0.0,0.0,0.0,0.0,1.5449,1.6464,1.769,1.8625,1.9405,1.9952,2.0089,2.0364,2.0476,2.0328,2.0502,2.0641,2.0706,2.0782,2.0759,2.0472,2.0271,2.0067,1.985,1.9978,1.9978,1.985,1.9384,1.897,1.8598,1.7788,1.7339,1.7182,1.6704,1.665,1.6901,1.6741,1.6646,1.6328,1.3064,0.9277,0.492,-0.0847,-0.6648,-1.1186,0.8263,0.8158,0.8162,0.8427,0.8692,0.9001,0.9607,1.0681,1.1965,1.3427,1.5704,1.7644,1.8806,1.9806,2.0317,2.0052,1.9093,1.8268,1.7595,1.6836,1.6752,1.7502,1.8544,1.9446,2.025,2.0762,2.0941,2.0769,2.0421,1.9914,1.9202,1.865,1.8058,1.7545,1.7034,1.6595,1.6161,1.57,1.5013,1.3952,1.1953,1.0631,0.9765,0.0,0.0,0.0,0.0,0.0,0.0,0.0,0.0,0.0,0.0,0.0,0.0,0.0,0.0,0.0,0.0,0.0,0.0,0.0,0.0,0.0,0.0,0.0,0.0,0.0,0.0,0.0,0.0,0.0,0.0,0.0,0.0,1.9358,1.8341,1.9244,2.0309,2.1097,2.1741,2.2232,2.2443,2.2608,2.2698,2.2653,2.2655,2.2624,2.25,2.2207,2.1799,2.1272,2.0746,2.0459,2.0359,2.0409,2.0573,2.0822,2.0578,2.0143,1.9423,1.8526,1.7731,1.7044,1.6663,1.6679,1.6999,1.7475,1.7905,1.7938,1.5148,1.1846,0.7609,-0.026,-0.7669,-1.3049,0.8618,0.8533,0.8639,0.8903,0.9211,0.9614,1.0269,1.1541,1.2982,1.4455,1.6851,1.8874,1.9878,2.0967,2.1514,2.1262,2.0353,1.9527,1.9063,1.8396,1.8278,1.8846,1.9872,2.0703,2.1382,2.1918,2.2062,2.1846,2.1561,2.1064,2.0421,1.9889,1.927,1.8715,1.8167,1.7633,1.7224,1.6832,1.6585,1.6306,1.499,1.3723,1.2569,1.2074,1.1403,1.0737,1.0066,0.9328,0.8459,0.7365,0.0,0.0,0.0,0.0,0.0,0.0,0.0,0.0,0.0,0.0,0.0,0.0,0.0,0.0,0.0,0.0,0.0,0.0,0.0,0.0,0.0,0.0,0.0,0.0,2.0882,2.2048,2.1699,2.1907,2.2312,2.2848,2.336,2.3734,2.3991,2.4184,2.4333,2.4374,2.4287,2.4122,2.3788,2.3201,2.2577,2.1913,2.1237,2.0822,2.0772,2.0871,2.1118,2.1471,2.1375,2.0871,2.0012,1.9092,1.8096,1.7177,1.6847,1.7005,1.7504,1.8335,1.9089,0.0,0.0,0.0,0.0,0.0,-0.681,-1.097,0.9025,0.901,0.9155,0.9271,0.9718,1.0269,1.0821,1.2304,1.3827,1.5091,1.7564,1.9594,2.0366,2.1596,2.2274,2.2163,2.1428,2.0736,2.0292,1.9924,1.9788,1.9878,2.1295,2.2101,2.2231,2.3098,2.3285,2.2785,2.2589,2.2146,2.1554,2.1073,2.0544,1.9889,1.9362,1.885,1.834,1.8027,1.7918,1.7841,1.8132,1.7047,1.5184,1.5084,1.4686,1.4067,1.3373,1.2589,1.1754,1.0601,0.0,0.0,0.0,0.0,0.0,0.0,0.0,0.0,0.0,0.0,0.0,0.0,0.0,0.0,0.0,0.0,0.0,0.0,0.0,0.0,0.0,0.0,0.0,0.0,2.2882,2.424,2.4887,2.4277,2.3846,2.4085,2.4486,2.4823,2.502,2.5281,2.5438,2.555,2.5491,2.5249,2.4799,0.0,0.0,0.0,0.0,2.1229,2.1082,2.1326,2.1616,2.1841,2.1771,2.1239,2.0327,1.9356,1.8358,1.7435,1.7166,1.7449,1.8235,1.9169,2.0178,2.1012,1.9059,1.6297,1.2124,0.1737,-0.4326,-0.6105,0.9818,0.9691,0.9775,0.9836,1.019,1.0744,1.1493,1.3314,1.4924,1.5952,1.8538,2.0454,2.0848,2.1575,2.1907,2.1716,2.0716,2.0074,2.0045,2.0373,2.0706,2.1054,2.1561,2.2013,2.237,2.2898,2.32,2.3275,2.3507,2.3419,2.3084,2.2759,2.2278,2.1661,2.1102,2.0479,1.9838,1.9492,1.9334,1.9423,1.9658,1.8964,1.7721,1.7912,1.7589,1.6945,1.6458,1.5635,1.4573,1.3609,1.2511,1.1319,0.9736,0.8714,0.0,0.0,0.0,0.0,0.0,0.0,0.0,0.0,0.0,0.0,0.0,0.0,0.0,0.0,0.0,0.0,0.0,0.0,0.0,2.3185,2.4315,2.5082,2.5432,2.5438,2.5384,2.5269,2.5535,2.5721,2.5779,2.6071,2.63,2.6352,2.6402,2.6264,2.5839,2.4987,2.4133,2.3274,2.2377,2.1874,2.1793,2.1746,2.1902,2.2278,0.0,0.0,1.9973,1.8906,1.7931,1.7029,1.7238,1.776,1.8541,1.9893,2.1243,2.2093,1.8578,1.3051,0.6576,0.2578,0.0187,-0.0166,1.1469,1.0926,1.0478,1.0582,1.0978,1.146,1.2089,1.3892,1.5515,1.6277,1.8518,2.0109,2.0346,2.0831,2.1146,2.1088,2.0717,2.0522,2.0573,2.1091,2.1541,2.1793,2.2044,2.2356,2.2723,2.329,2.3794,2.4158,2.4545,2.4634,2.4443,2.4219,2.3777,2.3183,2.2538,2.1834,2.1102,2.0703,2.0445,2.0446,2.0868,2.0779,2.033,2.0041,1.9712,1.9358,1.8843,1.8127,1.7329,1.6516,1.5529,1.4328,1.2928,1.176,1.0616,0.0,0.0,0.0,0.0,0.0,0.0,0.0,0.0,0.0,0.0,0.0,0.0,0.0,0.0,1.8541,0.0,0.0,2.311,2.4378,2.5044,2.54,2.5492,2.5642,2.5701,2.5663,2.5937,2.6137,2.6191,2.6539,2.6741,2.6808,2.6758,2.6505,2.6068,2.5227,2.4399,2.3679,2.2905,2.2466,2.2342,2.2342,2.2434,2.2618,2.1867,2.0978,1.9984,1.8806,1.7804,1.696,1.7421,1.8193,1.9265,2.1226,2.2242,2.2202,1.8815,1.3611,0.7824,0.6435,0.5557,0.5755,1.3117,1.2276,1.1581,1.1614,1.1939,1.2397,1.2918,1.4491,1.5872,1.6587,1.8258,1.94,1.9526,1.9829,2.0032,2.0161,2.0633,2.1088,2.1382,2.1908,2.2296,2.2449,2.2646,2.2873,2.3127,2.3752,2.4379,2.4926,2.5491,2.5753,2.5684,2.5509,2.5142,2.4579,2.3876,2.3098,2.2275,2.1791,2.1452,2.1237,2.1799,2.2175,2.236,2.1704,2.1452,2.1328,2.0752,2.023,1.9711,1.9132,1.8242,1.719,1.5921,1.4704,1.3483,1.2085,1.1433,0.0,0.0,0.0,0.0,0.0,0.0,0.0,0.0,0.0,1.7327,1.8469,1.9857,2.1203,2.2273,2.3451,2.4415,2.4902,2.5153,2.5214,2.5028,2.5035,2.5112,2.5205,2.5779,2.6208,2.6279,2.6624,2.6842,2.6808,2.6607,2.6264,2.5819,2.5012,2.4307,2.3739,2.3201,2.2844,2.2723,2.2814,2.2801,2.2671,2.1873,2.0939,1.9877,1.8746,1.7885,1.7227,1.8071,1.9141,2.0459,2.2463,2.2727,2.1592,1.8677,1.4818,1.0788,1.033,1.026,1.0918,1.3648,1.3642,1.3458,1.305,1.3158,1.355,1.4248,1.5341,1.6362,1.7185,1.8449,1.906,1.8623,1.8515,1.8578,1.8739,1.9479,2.0563,2.2104,2.2741,2.3143,2.3275,2.326,2.3231,2.3275,2.3906,2.4465,2.508,2.5966,2.6505,2.674,2.669,2.6438,2.5933,2.5141,2.423,2.3318,2.277,2.2282,2.1935,2.2434,2.2694,2.2844,2.2979,2.2844,2.2498,2.23,2.1846,2.1286,2.0868,2.0218,1.9379,1.8301,1.7224,1.6171,1.5271,1.4441,1.3846,1.3864,1.4309,0.0,1.5257,1.6321,1.7569,0.0,0.0,2.0677,2.1724,2.2482,2.3212,2.3989,2.4287,2.443,2.4536,2.4358,2.4039,2.3603,2.3586,2.3556,2.3415,2.487,2.5868,2.5868,2.6106,2.6248,2.611,2.5829,2.5447,2.5048,2.4433,2.3861,2.345,2.3098,2.2873,2.2795,2.2795,2.2493,2.1902,2.1183,2.0246,1.9183,1.8398,1.7976,1.7987,1.9907,2.1392,2.2466,2.2745,2.1873,2.0045,1.6843,1.3887,1.1416,1.1407,1.2428,1.4236,1.43,1.4468,1.4458,1.4091,1.3917,1.3937,1.4152,1.5008,1.573,1.6081,1.6703,1.705,1.6838,1.702,1.747,1.8068,1.9481,2.0969,2.2503,2.3332,2.3791,2.3876,2.3849,2.3694,2.3377,2.3991,2.4536,2.4909,2.5986,2.6607,2.6808,2.6922,2.6657,2.6002,2.5233,2.4312,2.3303,2.2815,2.2296,2.1949,2.2572,2.2799,2.2844,2.3201,2.2905,2.2239,2.2282,2.2077,0.0,2.1264,2.0795,2.0307,1.9569,1.8696,1.7698,1.6743,1.6187,1.5977,1.6277,1.6821,0.0,0.0,1.9296,2.039,2.126,2.2181,2.2981,2.3616,2.3998,2.4292,2.4486,2.4333,2.4039,0.0,2.3156,2.2611,2.2038,2.1931,2.1811,2.1638,2.2435,2.3396,2.4491,2.472,2.4728,2.4571,2.4253,2.3902,2.3613,2.3229,2.2936,2.277,2.2634,2.2526,2.2509,2.2646,2.2421,2.1801,2.1126,2.0396,1.9523,1.8846,1.898,1.9828,2.1205,2.2171,2.276,2.2219,2.0657,1.8299,1.5298,1.2937,1.1178,1.1617,1.3213,1.5581,1.4547,1.4784,1.4934,1.4735,1.4489,1.4277,1.4143,1.4707,1.5162,1.5334,1.5495,1.5547,1.5392,1.5521,1.6155,1.7444,1.9121,2.077,2.2429,2.3533,2.4112,2.4168,2.4142,2.3791,2.3084,2.3563,2.3941,2.4107,2.5255,2.5955,2.6164,2.6455,2.6198,2.5447,2.4689,2.3812,2.2832,2.2423,2.2002,2.1712,2.2434,2.2572,2.242,2.2696,2.2084,2.1138,2.163,2.1503,2.105,2.0615,2.0307,2.0002,1.9509,1.8853,1.8072,1.7445,1.7467,1.7771,1.8294,0.0,0.0,2.0709,2.1704,2.2643,2.3243,2.3956,2.4471,2.4623,2.482,2.4848,2.4487,2.3975,2.3408,2.2689,2.1885,2.1172,2.0588,2.0341,2.0191,2.0041,2.0178,2.0766,2.2076,2.2747,2.3023,2.2805,2.2613,2.2476,2.2306,2.2132,2.2021,2.1941,2.1988,2.1988,2.1988,2.2328,2.2171,2.147,2.1235,2.0713,1.9941,1.9758,2.0329,2.1458,2.2066,2.2343,2.2222,2.0985,1.8935,1.6234,1.3717,1.2006,1.1195,1.2318,1.4205,1.6559,1.4327,1.4684,1.5029,1.502,1.4888,1.4785,1.4765,1.4819,1.5029,1.5628,1.5496,1.5143,1.4661,1.4081,1.4512,1.6572,1.7874,1.951,2.1699,2.3157,2.3975,2.4105,2.3979,2.3375,2.2264,2.24,2.2405,2.238,2.3523,2.432,2.4868,2.5142,2.497,2.443,2.3549,2.2746,2.203,2.1683,2.1403,2.1277,2.1949,2.1996,2.1589,2.1459,2.0417,1.9246,2.0433,2.0234,1.9387,1.8776,1.849,1.8291,1.7904,1.7376,1.7035,1.731,1.8316,1.9448,1.9982,0.0,2.2136,2.2694,2.3359,2.4039,2.443,2.4839,2.5013,2.4815,2.4947,2.4832,2.4042,2.3283,2.2525,2.1827,2.0604,1.9672,1.9319,1.8992,1.8715,1.8566,1.8447,1.8382,0.0,2.0165,2.1227,2.1075,2.1239,2.1328,2.1272,2.1348,2.1313,2.1042,2.1175,2.1224,2.1224,2.1732,2.1583,2.0752,2.1351,2.1114,2.0135,2.1138,2.1918,2.2454,2.2489,2.195,2.0913,1.899,1.6542,1.3835,1.1997,1.13,1.1649,1.4057,1.5854,1.7527,1.4396,1.4743,1.4885,1.4611,1.4417,1.4263,1.41,1.4082,1.4185,1.4491,1.4375,0.0,0.0,0.0,0.0,0.0,1.6267,1.7699,1.9472,2.0982,2.19,2.2181,2.2093,2.1318,1.9808,1.9658,1.937,1.8921,2.0167,2.0996,2.1443,2.1974,2.1944,2.1411,2.0901,2.043,2.0015,1.9927,1.9927,1.9965,2.0395,2.0256,1.9826,1.922,1.8135,1.686,0.0,1.6563,1.7374,1.7194,1.7086,1.7049,1.6889,1.6543,1.6424,1.7427,1.8442,1.9592,2.1171,2.2338,2.3259,2.3764,2.4333,2.4728,2.4719,2.4744,2.4521,2.3967,2.3866,2.3627,2.279,2.2353,2.189,2.1268,2.0177,1.9316,1.9065,1.8444,1.8007,1.7843,1.7788,0.0,0.0,0.0,0.0,1.9349,1.9748,2.0093,2.0245,2.0636,2.0686,2.0472,2.0709,2.0845,2.0944,2.1805,2.193,2.1312,2.1702,2.1899,2.1902,2.2547,2.2754,2.2585,2.1791,2.0458,1.8707,1.6542,1.4255,1.211,1.1412,1.1766,1.3044,1.5721,1.8081,2.012,1.4524,1.4793,1.5002,1.4678,1.4492,0.0,0.0,0.0,0.0,0.0,0.0,0.0,0.0,0.0,0.0,0.0,0.0,1.513,1.6439,1.7709,1.856,1.8971,1.8859,1.8068,1.6439,1.6105,1.5584,1.4939,1.6212,1.7076,1.7594,1.827,1.8394,1.8012,1.7663,1.7447,1.7343,1.7497,1.7591,1.7762,1.8066,1.7833,1.7237,1.6501,1.5415,0.0,1.3182,1.3531,1.4513,1.4888,1.511,1.5263,1.5394,1.5455,1.5842,1.7295,1.856,1.9991,2.2047,2.3289,2.4116,2.4446,2.4704,2.4744,2.4348,2.3998,2.3518,2.2828,2.279,2.265,2.1949,2.175,2.1592,2.1233,2.0296,1.9491,1.9191,1.8542,1.8046,1.7755,1.7523,1.7368,0.0,0.0,0.0,1.8321,1.8987,1.9512,1.9798,2.0296,2.0498,2.0372,2.0696,2.1037,2.139,2.2465,2.294,2.2844,2.2973,2.3127,2.3302,2.3443,2.3088,2.2293,2.0661,1.8693,1.649,1.4216,1.2374,1.1011,1.1335,1.2722,1.4821,1.7514,1.9956,2.1995,1.4607,1.4968,1.5273,0.0,0.0,0.0,0.0,0.0,0.0,0.0,0.0,0.0,0.0,0.0,0.0,0.0,0.0,0.0,1.2672,1.3417,1.4098,1.4606,1.4457,1.3691,1.2307,1.1744,1.1197,1.0611,1.1827,1.2755,1.3389,1.4157,1.443,1.4355,1.4002,1.395,1.413,1.438,1.4553,1.4735,1.5016,1.471,1.4024,1.3427,1.2431,1.1336,1.1353,1.1206,1.1182,1.2176,1.2906,1.3375,1.3625,1.4409,1.5426,1.6979,1.8806,2.074,2.2644,2.3888,2.4623,2.4759,2.4583,2.4153,2.3389,2.2685,2.2021,2.1361,2.161,2.1805,0.0,0.0,2.1572,2.1647,2.0889,2.0132,1.9698,1.9268,1.8711,0.0,0.0,0.0,0.0,0.0,0.0,1.8139,0.0,1.9512,1.9747,2.0385,2.0686,2.061,2.1086,2.1774,2.2571,2.3665,2.4529,2.5173,2.5043,2.4719,2.4263,2.386,2.2967,2.1562,1.9122,1.6676,1.4223,1.21,1.0969,1.0662,1.1792,1.4037,1.697,1.939,2.1481,2.3174,0.0,0.0,0.0,0.0,0.0,0.0,0.0,0.0,0.0,0.0,0.0,0.0,0.0,0.0,0.0,0.0,0.0,0.0,0.8947,0.9169,0.9433,0.9721,0.9522,0.892,0.7876,0.7427,0.71,0.6741,0.7788,0.8578,0.9077,0.9781,1.0093,1.0136,1.0036,1.0222,1.0629,1.085,1.1255,1.1685,1.1812,1.1668,1.1312,1.0553,0.9904,0.9432,0.9409,1.021,1.1445,1.2714,0.0,0.0,0.0,1.6259,1.7338,1.8913,2.0436,2.1987,2.3732,2.4567,2.4879,2.4567,2.4028,2.3287,2.2158,2.1247,2.0397,1.9461,1.978,2.0322,0.0,0.0,0.0,2.2315,2.1616,0.0,2.0532,1.9953,0.0,1.8684,0.0,1.8356,1.8236,1.841,0.0,0.0,1.9093,1.9291,1.9512,2.022,2.0746,2.0953,2.1811,2.2744,2.367,2.5258,2.6123,2.6302,2.5996,2.5661,2.5194,2.3959,2.2317,2.0303,1.7338,1.4383,1.1583,1.05,1.047,1.1381,1.3379,1.6127,1.9248,2.1716,2.3525,2.4822,0.0,0.0,0.0,0.0,0.0,0.0,0.0,0.0,0.0,0.0,0.0,0.0,0.0,0.0,0.0,0.0,0.0,0.0,0.0,0.541,0.5216,0.5321,0.5123,0.4758,0.4169,0.389,0.366,0.3616,0.4412,0.503,0.5506,0.6099,0.646,0.6597,0.6597,0.6822,0.7216,0.7502,0.7897,0.0,0.0,0.8341,0.8134,0.7637,0.7444,0.7482,0.8034,1.028,1.3256,0.0,0.0,1.7331,1.8043,1.891,1.986,2.1091,0.0,2.3392,2.4443,2.4823,2.4768,2.4013,2.304,2.1955,2.0625,1.9383,1.8407,1.7861,1.8287,0.0,0.0,0.0,0.0,0.0,0.0,0.0,2.1186,2.0704,2.0129,0.0,1.9052,0.0,1.8869,1.8934,1.8987,0.0,1.9291,1.9448,1.9565,2.0258,2.0966,2.154,2.2746,2.4268,2.6103,2.7409,2.7771,2.7181,2.7315,2.6622,2.5149,2.3765,2.1603,1.8797,0.0,1.2722,1.0421,1.0155,1.1178,1.3242,1.5985,1.8989,2.2043,2.399,2.5239,2.6005,0.0,0.0,0.0,0.0,0.0,0.0,0.0,0.0,0.0,1.1867,1.1667,1.1396,0.0,0.0,0.0,0.0,0.0,0.0,0.0,0.0,0.1774,0.1663,0.14,0.1253,0.1217,0.1041,0.1043,0.1224,0.1715,0.2202,0.2622,0.3101,0.3455,0.3623,0.3623,0.3797,0.4085,0.4442,0.4659,0.4823,0.5174,0.5158,0.4988,0.0,0.521,0.5769,0.7419,1.1015,1.5424,1.8282,1.927,1.96,2.0895,2.1902,2.2737,2.3348,2.4131,2.4775,2.4918,2.4808,2.4399,2.3244,2.1885,2.0406,1.8905,1.7429,1.6396,1.6424,0.0,1.784,1.9049,2.0307,2.1493,2.2409,0.0,2.2381,2.1688,2.1494,2.1026,1.9853,1.9559,1.9364,1.9291,1.9279,1.9279,1.9279,1.95,1.9656,1.9747,2.0459,2.1363,2.2552,2.4011,2.6061,2.8756,2.9473,2.9197,2.7971,2.8563,2.7433,2.4818,2.3301,2.0763,1.735,1.3987,1.1593,1.0118,1.0623,1.2672,1.5808,1.8927,2.2039,2.4845,2.6015,2.6669,2.6952,0.0,0.0,0.0,0.0,0.0,0.0,0.0,0.0,0.0,0.0,1.0866,1.0358,0.0,0.0,0.0,0.0,0.0,0.0,0.0,0.0,0.0,-0.0322,-0.0692,-0.0735,-0.0356,-0.0243,-0.0061,0.0237,0.0609,0.0913,0.1067,0.1364,0.1519,0.1594,0.1594,0.1708,0.1877,0.2214,0.2484,0.2747,0.3086,0.3249,0.3345,0.345,0.0,0.0,0.8255,1.1685,1.4978,1.8185,2.033,2.1975,2.3414,2.4531,2.5334,2.5323,2.5724,2.6029,2.5484,2.4902,2.4096,2.2715,2.0981,1.912,1.7309,1.597,0.0,0.0,1.5536,1.6681,1.8211,1.9404,2.0611,2.2001,0.0,0.0,0.0,0.0,2.17,0.0,0.0,0.0,0.0,0.0,0.0,0.0,0.0,1.9617,1.9604,2.0359,2.1978,2.453,2.6016,2.7576,2.9186,2.9706,2.9608,2.8876,2.8612,2.7528,2.5669,2.2577,1.9423,1.626,1.3018,0.0,0.9944,1.1625,1.4529,1.8246,2.1083,2.3892,2.6417,2.7421,2.7804,2.7958,0.0,0.0,0.0,0.0,0.0,0.0,0.0,1.3323,1.2067,1.1192,0.9949,0.9037,0.8726,0.7736,0.6735,0.0,0.0,0.0,0.0,0.0,0.0,-0.082,-0.1181,0.0,-0.069,-0.0525,0.0,0.0,0.0,0.0467,0.0689,0.0632,0.0627,0.0617,0.0561,0.0561,0.0617,0.0896,0.1063,0.1285,0.1621,0.1866,0.1953,0.0,0.0,0.0,0.7517,1.043,1.3242,1.6492,1.9033,2.1366,2.4275,2.6065,2.6979,2.6483,2.6608,2.6647,2.5417,2.4471,2.3417,2.176,1.994,1.7946,1.5872,0.0,0.0,0.0,1.434,1.5473,1.7107,1.8552,0.0,2.1232,0.0,0.0,0.0,0.0,0.0,0.0,0.0,0.0,0.0,0.0,0.0,0.0,0.0,1.9617,1.9617,2.068,2.2376,2.4637,2.6098,2.7504,2.8926,2.9506,2.9502,2.8895,2.8571,2.7184,2.4866,2.1845,1.8584,1.5215,1.2577,0.0,1.1057,1.3598,1.6929,2.0724,2.3816,2.6309,2.8175,2.8683,2.8796,2.879,0.0,0.0,0.0,0.0,0.0,0.0,0.0,1.3518,1.2185,1.1206,0.9128,0.7558,0.6973,0.6106,0.5352,0.0,0.0,0.0,0.0,0.0,0.0,0.0,0.0,0.0,0.0,0.0,0.0,0.0,0.0,0.0,0.0,0.0,0.0,0.0,0.0057,0.0,0.0,0.0168,0.028,0.0,0.0,0.0864,0.0,0.0,0.0,0.0,0.0,0.838,1.0835,1.3762,1.6303,1.8885,2.2484,2.5292,2.7094,2.6443,2.647,2.6425,2.4967,2.3819,2.264,2.089,1.8881,1.6822,1.4623,1.3314,0.0,0.0,1.3245,1.4314,1.5992,1.7614,1.9185,0.0,2.1537,2.2323,0.0,0.0,0.0,0.0,0.0,0.0,0.0,0.0,0.0,0.0,0.0,0.0,1.9656,2.0935,2.2421,2.4106,2.5489,2.6941,2.8438,2.9157,2.9313,2.8864,2.84,2.6718,2.3929,2.1104,1.7908,1.4445,1.2569,0.0,0.0,1.6039,1.9572,2.319,2.6297,2.8303,2.9489,2.9578,2.9514,2.9388,0.0,0.0,0.0,0.0,0.0,0.0,0.0,1.3313,1.201,1.0987,0.8456,0.5981,0.3872,0.3991,0.3963,0.0,0.0,0.0,0.0,0.0,0.0,0.0,0.0,0.0,0.0,0.0,0.0,0.0,0.0,0.0,0.0,0.0,0.0,0.0,0.0,0.0,0.0,0.0168,0.0,0.0,0.0,0.0,0.0,0.0,0.0,0.0,0.0,0.5998,0.8106,0.0,0.0,1.4488,1.6016,2.0209,2.447,2.452,0.0,0.0,2.4003,2.3069,2.1909,2.0265,1.8153,1.5867,1.368,0.0,0.0,1.1461,1.2135,1.3212,1.4919,1.6532,1.8174,2.0027,2.1065,2.2083,2.3281,2.3641,2.3423,0.0,0.0,0.0,0.0,0.0,0.0,0.0,0.0,0.0,1.994,2.0743,2.1867,2.3335,2.4814,2.6349,2.7967,2.8873,2.9366,2.9414,2.8107,2.6297,2.3971,2.0205,1.7042,1.4481,1.341,0.0,0.0,1.8888,2.23,2.5578,2.7656,2.9008,2.9756,2.9638,2.9589,2.9589,0.0,0.0,0.0,0.0,0.0,0.0,1.4204,1.348,1.2282,1.0851,0.8321,0.543,0.2361,0.1469,0.1027,0.1049,0.0,0.0,0.0,0.0,0.0,0.0,0.0,0.0,0.0,0.0,0.0,0.24,0.0,0.0,0.0,0.0,0.0,0.0,0.0,0.0,0.0,0.0,0.0,0.0,0.0,0.0,0.0,0.0,0.0,0.0,0.0,0.0,0.5189,0.0,0.0,0.0,1.0982,1.3694,0.0,0.0,2.2302,2.3069,2.2534,2.1937,2.1005,1.9354,1.7448,1.534,1.3006,0.0,1.1027,1.0958,1.156,1.2544,1.4123,1.5667,1.7309,1.9162,2.0476,2.1747,2.3062,2.3887,2.4184,0.0,0.0,0.0,0.0,0.0,0.0,0.0,0.0,0.0,1.9991,2.0333,2.1156,2.2493,2.4039,2.5693,2.7457,2.8557,2.9196,2.9302,2.7607,2.5678,2.3478,1.9697,1.7063,1.5415,1.5061,0.0,0.0,2.1506,2.4471,2.7064,2.8592,2.9429,2.9728,2.9644,2.9645,2.9681,0.0,0.0,0.0,0.0,0.0,1.3114,1.3839,1.3351,1.2239,1.0509,0.7874,0.4927,0.1506,-0.0322,-0.1224,-0.1079,-0.0486,0.0,0.0,0.0,0.0,0.0,0.0,0.0,0.0,0.0,0.3134,0.358,0.3099,0.0,0.0,0.0,0.0,0.0,0.0,0.0,0.0,0.0,0.0,0.0,0.0,0.0,0.0,0.0,0.0,0.0,0.0,0.0,0.0,0.0,0.0,0.5983,0.6859,0.8392,1.0918,1.6473,1.9308,2.0657,2.0785,2.054,1.9995,1.8545,1.685,1.4881,0.0,0.0,1.0614,1.0449,1.0966,1.1864,1.3206,1.4653,1.6293,1.8233,1.961,2.1062,2.2756,2.3816,2.4385,0.0,0.0,0.0,0.0,0.0,0.0,0.0,0.0,0.0,2.0408,2.067,2.1183,2.2076,2.3779,2.5526,2.7335,2.8527,2.9107,2.9064,2.7132,2.5146,2.3079,1.9642,1.7667,1.6853,1.7284,0.0,0.0,2.4052,2.6397,2.818,2.9171,2.9565,2.9589,2.9551,2.9608,2.9753,0.0,0.0,0.0,0.0,0.0,0.0,1.3358,1.2705,1.1502,0.9737,0.7028,0.4087,0.0921,-0.1046,-0.233,-0.2954,-0.1949,0.0,0.0,0.0,0.0,0.0,0.0,0.0,0.0,0.0,0.4801,0.4801,0.4364,0.3935,0.3489,0.2097,0.0,0.0,0.0,0.0,0.0,0.0,0.0,0.0,0.0,0.0,0.0,0.0,0.0,0.0,0.0,0.0,0.0,0.0,0.0,0.0,0.0,0.5014,0.7301,1.2757,1.5541,1.7172,1.8798,1.9064,1.8755,1.7999,1.6356,1.4348,0.0,0.0,1.0302,0.9728,1.0223,1.1139,1.2252,1.3509,1.5122,1.7278,1.8462,2.0035,2.2525,2.3341,2.3872,0.0,0.0,0.0,0.0,0.0,0.0,0.0,0.0,0.0,2.1274,2.1843,2.2275,2.2412,2.4202,2.5987,2.7697,2.8821,2.9199,2.8765,2.6772,2.4798,2.2801,2.0057,1.8817,1.8912,0.0,0.0,0.0,2.6578,2.8138,2.9016,2.9289,2.9363,2.9314,2.9373,2.957,2.9842,0.0,0.0,0.0,0.0,0.0,0.0,0.0,1.178,1.0375,0.8512,0.6152,0.3588,0.0573,-0.0971,-0.207,-0.2798,-0.2223,0.0,0.0,0.0,0.0,0.0,0.0,0.0,0.0,0.0,0.6072,0.6358,0.5555,0.4839,0.4298,0.2678,0.1596,0.1023,0.0,0.0,0.0,0.0,0.0,0.0,0.0,0.0,0.0,0.0,0.0,0.0,0.0,0.0,0.0,0.0,0.0,0.0,0.0,0.0,0.0,0.7397,1.0606,1.3531,1.4736,1.5429,1.5694,1.5168,1.3939,1.2492,1.1182,0.0,0.9329,0.9397,0.9842,1.0478,1.1318,1.2431,1.3733,1.5351,1.6619,1.818,2.0195,0.0,0.0,0.0,0.0,0.0,0.0,0.0,0.0,0.0,0.0,0.0,2.3068,2.351,2.3663,2.3435,2.5092,2.675,2.8296,2.9047,2.9125,2.8556,2.6454,2.4509,2.2622,2.073,2.0275,0.0,0.0,0.0,0.0,2.779,2.8713,2.9265,2.9175,2.9107,2.903,2.9101,2.9293,2.9551,0.0,0.0,0.0,0.0,0.0,0.0,0.0,1.0717,0.937,0.7616,0.5451,0.3113,0.073,-0.0644,-0.1595,-0.2201,-0.1677,0.0,0.0,0.0,0.0,0.0,0.0,0.0,0.6696,0.7225,0.7542,0.769,0.6668,0.5782,0.4991,0.3186,0.1925,0.1189,0.0406,0.0066,0.0,0.0,0.0,0.0,0.0,0.0,0.075,0.0,0.0,0.0,0.0,0.0,0.0,0.0,0.0,0.0,0.0,0.0,0.0,0.0,0.6611,0.931,1.1351,1.2409,1.2931,1.2648,1.1708,1.0662,0.9801,0.8981,0.8492,0.8707,0.9157,0.9719,1.0361,1.1404,1.2504,1.3658,1.5086,1.6729,1.856,0.0,0.0,2.3178,0.0,0.0,0.0,0.0,0.0,0.0,0.0,0.0,2.4812,2.5204,2.5436,2.5564,2.6516,2.7624,2.8861,2.9166,2.8916,2.8047,2.5997,2.4257,2.2814,2.1841,2.2049,0.0,0.0,0.0,0.0,2.8957,2.9436,2.9576,2.9569,2.941,2.913,2.9168,2.9182,2.9212,0.0,0.0,0.0,0.0,0.0,0.0,0.0,0.9647,0.8291,0.6848,0.4718,0.2737,0.1214,-0.008,-0.0943,-0.1257,0.0,0.0,0.0,0.0,0.0,0.0,0.0,0.0,0.8018,0.8737,0.9003,0.8861,0.7845,0.6768,0.5566,0.3766,0.2279,0.1264,0.0631,0.0207,0.0,0.0,0.0,0.0,0.0,0.0923,0.0,0.0,0.0,0.0,0.0,0.0,0.0,0.0,0.0,0.0,0.0,0.0,0.0,0.0,0.0,0.0,0.0,0.9781,1.0274,1.029,0.9683,0.8875,0.8324,0.7959,0.0,0.7746,0.8352,0.8927,0.9365,1.0347,1.1311,1.2273,1.3804,1.5618,0.0,1.9365,0.0,0.0,0.0,0.0,0.0,0.0,0.0,0.0,0.0,0.0,2.6517,2.6866,2.7442,2.8368,2.829,2.8586,2.9304,2.9226,2.8559,2.7323,2.5445,2.4143,2.3366,2.329,2.4108,0.0,0.0,0.0,0.0,3.0064,3.0278,3.0002,3.036,3.0058,2.9466,2.9484,2.9158,2.8772,0.0,0.0,0.0,0.0,0.0,0.0,0.0,0.0,0.0,0.0,0.3615,0.2167,0.0869,0.0158,-0.0393,0.0,0.0,0.0,0.0,0.0,0.0,0.0,0.0,0.0,0.9176,0.9996,1.0273,1.0054,0.9049,0.7897,0.6474,0.4623,0.3113,0.1945,0.0989,0.0349,0.0,0.0,0.0,0.0,0.0925,0.1406,0.0,0.0,0.0,0.0,0.3646,0.3804,0.0,0.0,0.0,0.0,0.0,0.0,0.0,0.0,0.4202,0.4586,0.5151,0.0,0.7167,0.7337,0.7186,0.6997,0.0,0.6843,0.6883,0.7066,0.7565,0.816,0.8809,0.9711,1.0656,1.1539,1.3051,1.4672,1.6448,0.0,0.0,2.4951,0.0,0.0,0.0,0.0,0.0,0.0,0.0,2.748,2.7893,2.8187,2.8671,2.9347,2.9336,2.9389,2.9531,2.9061,2.8163,2.6847,2.552,2.4595,2.4081,2.4576,2.5889,0.0,0.0,0.0,3.1235,3.1198,3.1005,3.0713,3.0516,2.9929,2.9189,2.9148,2.876,2.8298,0.0,0.0,0.0,0.0,0.0,0.0,0.0,0.0,0.0,0.0,0.0,0.1681,0.0862,0.0314,0.0,0.0,0.0,0.0,0.0,0.0,0.0,0.0,0.0,0.9495,1.0013,1.081,1.1037,1.0812,1.0019,0.8826,0.7344,0.5702,0.4148,0.2703,0.1305,0.0638,0.0,0.0,0.0,0.0,0.1244,0.0,0.0,0.0,0.0,0.0,0.4548,0.464,0.0,0.4622,0.4642,0.4693,0.0,0.0,0.0,0.0,0.458,0.4562,0.4449,0.4897,0.5369,0.5417,0.5707,0.5896,0.6055,0.6361,0.6817,0.7077,0.7673,0.829,0.8811,0.9865,1.0941,1.1664,1.3361,0.0,0.0,0.0,2.4325,2.5765,0.0,0.0,0.0,0.0,0.0,0.0,0.0,2.8661,2.8989,2.919,2.9473,2.9878,2.9752,2.9615,2.9458,2.8701,2.7701,2.6516,2.5725,2.5252,2.5102,2.638,2.7792,0.0,0.0,0.0,3.1921,3.188,3.1508,3.0956,3.0939,3.0189,2.9089,2.8986,2.8535,2.8045,0.0,0.0,0.0,0.0,0.0,0.0,0.0,0.0,0.0,0.0,0.0,0.0,0.0,0.0,0.0,0.0,0.0,0.0,0.0,0.0,0.0,0.0,0.8836,1.0218,1.0738,1.1484,1.18,1.1471,1.0858,0.988,0.84,0.702,0.5255,0.3335,0.1783,0.101,0.0,0.0,0.0,0.0,0.1556,0.0,0.0,0.0,0.0,0.0,0.0,0.0,0.0,0.516,0.516,0.516,0.516,0.0,0.0,0.0,0.0,0.0,0.5209,0.5151,0.4989,0.4687,0.5111,0.561,0.5936,0.6582,0.7226,0.7566,0.8196,0.8935,0.9385,1.0578,1.1797,1.2592,0.0,0.0,2.0986,2.3553,2.5482,2.6558,0.0,0.0,0.0,0.0,0.0,0.0,0.0,2.9607,2.9778,2.9892,3.001,3.0118,2.9849,2.9576,2.9303,2.8405,2.7459,2.6497,2.615,2.6116,2.6405,2.8128,2.9425,3.0367,0.0,0.0,3.2154,3.2349,3.191,3.1155,3.1392,3.0516,2.913,2.8986,2.8481,2.7946,0.0,0.0,0.0,0.0,0.0,0.0,0.0,0.0,0.0,0.0,0.0,0.0,0.0,0.0,0.0,0.0,0.0,0.0,0.0,0.0,0.0,0.7435,0.9508,1.1037,1.1781,1.2526,1.3026,1.3065,1.2407,1.145,1.029,0.8661,0.6295,0.3336,0.2358,0.1692,0.1198,0.0755,0.0,0.1329,0.1723,0.0,0.0,0.0,0.0,0.0,0.0,0.0,0.0,0.6103,0.6103,0.6103,0.6103,0.0,0.0,0.0,0.0,0.0,0.5811,0.6295,0.6677,0.5952,0.6338,0.6994,0.7484,0.8099,0.8546,0.8881,0.9369,0.984,1.0477,1.1645,1.3011,1.4252,0.0,2.0091,0.0,0.0,0.0,0.0,0.0,0.0,0.0,0.0,0.0,0.0,0.0,3.0118,3.0209,3.0234,3.0221,3.0186,2.9864,2.9566,2.9306,2.853,2.7878,2.7328,2.7299,2.7506,2.7876,2.8631,2.9941,3.1622,0.0,3.2641,3.3598,3.2808,3.2374,3.2074,3.1196,3.0234,2.9326,2.9059,2.857,2.8014,0.0,0.0,0.0,0.0,0.0,0.0,0.0,0.0,0.0,0.0,0.0,0.0,0.0,0.0,0.0,0.0,0.0,0.0,0.0,0.0,0.0,0.7956,1.0587,1.2251,1.2725,1.3844,1.4385,1.4388,1.4043,1.3247,1.1828,0.9233,0.6756,0.4523,0.3553,0.2799,0.2194,0.1533,0.1487,0.1841,0.0,0.0,0.0,0.0,0.0,0.0,0.0,0.0,0.0,0.0,0.6412,0.6338,0.6338,0.0,0.0,0.0,0.0,0.0,0.6714,0.7472,0.8246,0.8593,0.8681,0.8911,0.9596,1.0362,1.0976,1.1139,1.1496,1.1937,1.2318,1.3397,1.4874,1.7016,0.0,2.1813,0.0,0.0,0.0,0.0,0.0,0.0,0.0,0.0,0.0,0.0,0.0,0.0,3.035,3.0289,3.0229,3.0198,2.9909,2.9699,2.9563,2.9134,2.8633,2.8098,2.8238,2.8473,2.8826,2.9606,3.0726,3.2023,0.0,3.285,3.3315,3.2812,3.2049,3.1148,3.0539,2.9773,2.8936,2.8737,2.8504,2.8282,0.0,0.0,0.0,0.0,0.0,0.0,0.0,0.0,0.0,0.0,0.0,0.0,0.0,0.0,0.0,0.0,0.0,0.0,0.0,0.0,0.6601,0.833,1.1579,1.3556,1.4111,1.5462,1.6249,1.6354,1.606,1.4889,1.2888,0.9759,0.7486,0.5921,0.4878,0.3947,0.3201,0.241,0.2226,0.2439,0.0,0.0,0.0,0.0,0.0,0.0,0.0,0.0,0.0,0.0,0.0,0.0,0.0,0.0,0.0,0.6412,0.6641,0.7022,0.7561,0.8542,0.9686,1.0881,1.1058,1.1138,1.1926,1.292,1.3712,1.3705,1.4007,1.4237,1.4474,1.5452,0.0,1.966,2.1428,0.0,0.0,0.0,0.0,0.0,0.0,0.0,0.0,0.0,0.0,0.0,0.0,0.0,3.035,3.0258,3.0189,3.0196,2.9998,2.9862,2.9873,2.9698,2.9347,2.8848,2.9007,2.9188,2.9422,3.0172,3.1068,3.2034,3.2306,3.2585,3.2804,3.2342,3.1433,3.0239,2.9917,2.9314,2.8637,2.8518,2.8518,2.8543,0.0,0.0,0.0,0.0,0.0,0.0,0.0,0.0,0.0,0.0,0.0,0.0,0.0,0.0,0.0,0.0,0.0,0.0,0.0,0.0,0.6594,0.8769,1.2065,1.4545,1.6148,1.7481,1.873,1.9918,1.8665,1.6301,1.2916,1.0911,0.8988,0.7291,0.5841,0.4758,0.3979,0.2898,0.2626,0.2927,0.2922,0.0,0.0,0.0,0.0,0.0,0.0,0.0,0.0,0.0,0.0,0.0,0.0,0.0,0.6865,0.6865,0.7246,0.7787,0.8246,0.9448,1.0941,1.2097,1.2878,1.3652,1.4385,1.5394,1.6278,1.639,1.6486,1.6651,1.6858,1.8001,1.9548,2.1399,2.2561,0.0,0.0,0.0,0.0,0.0,0.0,0.0,0.0,0.0,0.0,0.0,0.0,0.0,3.0217,3.0215,3.0196,3.0202,3.0122,3.0075,3.0074,2.9994,2.986,2.9614,2.9636,2.9661,2.9663,2.9677,3.0471,3.1768,3.1076,3.1566,3.2778,3.1279,3.0576,3.0391,2.9499,2.9007,2.8785,2.8761,2.8737,2.8694,0.0,0.0,0.0,0.0,0.0,0.0,0.0,0.0,0.0,0.0,0.0,0.0,0.0,0.0,0.0,0.0,0.0,0.0,0.0,0.4683,0.6751,0.8788,1.2005,1.5016,1.7842,1.9404,2.075,2.1759,1.9648,1.7147,1.4355,1.2154,1.0274,0.8533,0.7387,0.6157,0.4999,0.4222,0.376,0.3647,0.3647,0.4365,0.0,0.0,0.0,0.0,0.0,0.0,0.0,0.0,0.7176,0.7026,0.7176,0.7249,0.7326,0.7399,0.7783,0.8322,0.9145,1.0415,1.1853,1.3028,1.4976,1.6624,1.6779,1.765,1.8633,1.9165,1.9359,1.9435,1.9401,1.9857,2.0748,2.2163,0.0,0.0,0.0,0.0,0.0,0.0,0.0,0.0,0.0,0.0,0.0,0.0,0.0,0.0,3.0252,3.0218,3.0229,3.0263,3.0191,3.0133,3.0098,2.9956,2.9794,2.965,2.969,2.9658,2.9574,2.9458,2.9994,3.1046,3.0812,3.1057,3.1558,3.0988,3.0407,2.9839,2.94,2.9181,2.9108,2.9108,2.9067,2.9003,0.0,0.0,0.0,0.0,0.0,0.0,0.0,0.0,0.0,0.0,0.0,0.0,0.0,0.0,0.0,0.0,0.0,0.0,0.329,0.4841,0.6601,0.8566,1.142,1.4568,1.7779,1.9626,2.1352,2.309,2.044,1.8013,1.5755,1.3439,1.1487,0.982,0.8613,0.7314,0.5931,0.5234,0.4741,0.4446,0.4529,0.5014,0.0,0.0,0.0,0.0,0.0,0.0,0.0,0.0,0.7484,0.7484,0.7787,0.794,0.8016,0.8313,0.877,0.9372,1.0265,1.1588,1.3136,1.4329,1.6787,1.8987,1.9412,2.0159,2.0903,2.1552,2.1616,2.1558,2.1533,2.1364,0.0,0.0,0.0,0.0,0.0,0.0,0.0,0.0,0.0,0.0,0.0,0.0,0.0,0.0,0.0,0.0,0.0,3.0192,3.0186,3.0195,3.0115,3.0036,2.994,2.9755,2.9618,2.9514,2.955,2.9532,2.9435,2.9355,2.982,3.0665,3.0545,3.064,3.0865,3.0659,3.0189,2.9589,2.9455,2.9414,2.939,2.9368,2.9307,2.9225,0.0,0.0,0.0,0.0,0.0,0.0,0.0,0.0,0.0,0.0,0.0,0.0,0.0,0.0,0.0,0.0,0.0,0.0,0.3763,0.4766,0.6143,0.788,1.0444,1.3048,1.5671,1.7814,2.0561,2.3952,2.1336,1.8988,1.6925,1.4668,1.2695,1.1087,0.9432,0.8075,0.6865,0.5783,0.5388,0.5452,0.5368,0.5698,0.6227,0.0,0.0,0.0,0.0,0.0,0.0,0.0,0.7633,0.7936,0.8546,0.8851,0.9074,0.9523,1.019,1.0932,1.1527,1.3121,1.489,1.6105,1.8175,2.0424,2.2394,2.2949,2.3144,2.3651,2.3256,2.2855,2.3011,2.2604,0.0,0.0,0.0,0.0,0.0,0.0,0.0,0.0,0.0,0.0,0.0,0.0,0.0,0.0,0.0,0.0,0.0,3.0134,3.0063,3.0009,2.9863,2.9717,2.96,2.9456,2.937,2.9302,2.9302,2.9302,2.9302,2.937,2.992,3.0768,3.0092,3.0311,3.1049,3.0232,2.9893,2.9808,2.9735,2.9662,2.9589,2.9531,2.9414,2.9293,0.0,0.0,0.0,0.0,0.0,0.0,0.0,0.0,0.0,0.0,0.0,0.0,0.0,0.0,0.0,0.0,0.0,0.0,0.4229,0.5002,0.6153,0.7604,0.9306,1.1329,1.3695,1.6137,1.892,2.1932,2.0426,1.8966,1.7608,1.5324,1.3645,1.2339,1.0859,0.9448,0.8208,0.7223,0.6738,0.6526,0.6194,0.6339,0.6786,0.0,0.0,0.0,0.0,0.0,0.0,0.0,0.0,0.0,0.8937,0.9463,0.9986,1.0507,1.1378,1.2451,1.3598,1.5258,1.7052,1.8585,2.0793,2.3,2.4518,2.4632,2.4736,2.5905,2.5412,2.4855,2.5046,2.4409,0.0,0.0,0.0,0.0,0.0,0.0,0.0,0.0,0.0,0.0,0.0,0.0,0.0,0.0,0.0,0.0,0.0,2.9795,2.9624,2.9508,2.9375,2.9268,2.9198,2.9206,2.92,2.924,2.937,2.9451,2.9433,2.957,2.9847,3.0265,3.0761,3.1145,3.1363,3.107,3.0944,3.0855,3.0167,2.9872,2.9805,2.9736,2.9626,2.9494,0.0,0.0,0.0,0.0,0.0,0.0,0.0,0.0,0.0,0.0,0.3915,0.407,0.0,0.0,0.0,0.0,0.0,0.0,0.4462,0.516,0.5931,0.6927,0.8058,0.9732,1.1948,1.4101,1.6388,1.8705,1.8676,1.8313,1.777,1.6046,1.4699,1.3532,1.2259,1.0815,0.939,0.8485,0.7865,0.7345,0.708,0.7176,0.7375,0.0,0.0,0.0,0.0,0.0,0.0,0.0,0.0,0.0,0.9094,0.9846,1.0588,1.1471,1.2618,1.4022,1.5539,1.7389,1.9361,2.1236,2.3358,2.5367,2.7145,2.7111,2.692,2.8027,2.7272,2.6474,2.6731,2.5873,0.0,0.0,0.0,0.0,0.0,0.0,0.0,0.0,0.0,0.0,0.0,0.0,0.0,0.0,0.0,0.0,0.0,2.936,2.9156,2.8996,2.8891,2.886,2.885,2.8957,2.9089,2.9203,2.9791,3.0133,3.0258,2.9983,3.0129,3.0691,3.1648,3.2058,3.2051,3.1981,3.1781,3.1422,3.0814,3.035,3.0015,2.994,2.9841,2.9717,0.0,0.0,0.0,0.0,0.0,0.0,0.0,0.0,0.0,0.4779,0.4929,0.5082,0.0,0.0,0.0,0.4776,0.4618,0.454,0.4776,0.5165,0.5628,0.6163,0.7015,0.8476,1.0445,1.1903,1.3404,1.4912,1.6447,1.7351,1.7585,1.6701,1.5741,1.4576,1.3459,1.2114,1.0512,0.9541,0.8755,0.8158,0.8085,0.8018,0.7909,0.7401,0.0,0.0,0.0,0.0,0.0,0.0,0.0,0.0,0.9018,0.9916,1.1037,1.2278,1.3837,1.5573,1.7417,1.9565,2.1801,2.4006,2.5891,2.7859,3.0088,3.0004,2.9551,2.9901,0.0,2.7948,2.8075,0.0,0.0,0.0,0.0,0.0,0.0,0.0,0.0,0.0,0.0,0.0,0.0,0.0,0.0,0.0,0.0,0.0,0.0,2.8878,2.8638,2.8453,2.8474,2.8492,2.8587,2.8888,2.914,2.9363,3.0509,3.1225,3.1517,3.0737,3.0906,3.1903,3.2704,3.307,3.3122,3.2897,3.239,3.1705,3.1473,3.0923,3.0221,3.0142,3.0038,2.9907,0.0,0.0,0.0,0.0,0.0,0.0,0.0,0.0,0.5404,0.5404,0.5479,0.5479,0.5479,0.5321,0.0,0.5165,0.5165,0.5165,0.5165,0.5553,0.5941,0.6257,0.7099,0.7957,0.8842,1.057,1.2155,1.3542,1.5381,1.6692,1.7504,1.6855,1.626,1.5667,1.4182,1.2906,1.1787,1.0374,0.956,0.9173,0.8502,0.8316,0.8387,0.7797,0.7488,0.0,0.0,0.0,0.0,0.0,0.0,0.0,0.8627,0.9609,1.0812,1.2198,1.4181,1.651,1.8864,2.1474,2.4088,2.6468,2.8902,3.0908,3.1706,3.2072,3.2071,3.1472,3.0783,3.0143,0.0,0.0,0.0,0.0,0.0,0.0,0.0,0.0,0.0,0.0,0.0,0.0,0.0,0.0,0.0,0.0,0.0,0.0,2.8511,2.8242,2.8084,2.8119,2.8201,2.8335,2.8518,2.9562,3.02,0.0,3.1644,3.2374,3.264,3.2466,3.2926,3.3887,3.4021,3.445,3.4911,3.3481,3.2769,3.2481,3.1162,3.0528,3.0343,3.0286,3.0207,3.0113,0.0,0.0,0.0,0.0,0.0,0.0,0.0,0.0,0.5948,0.5948,0.5948,0.5948,0.5948,0.5712,0.0,0.0,0.5476,0.5479,0.5479,0.5709,0.6022,0.6261,0.6949,0.7638,0.8241,1.011,1.1877,1.3397,1.5328,1.6777,1.7719,1.7479,1.7239,1.6808,1.5405,1.4016,1.2672,1.1396,1.0472,0.9879,0.9355,0.9231,0.9162,0.8577,0.822,0.8111,0.7622,0.0,0.0,0.0,0.0,0.0,0.0,0.0,1.0276,1.1829,1.4094,1.6679,1.9629,2.2552,2.5568,2.8777,3.0997,3.2464,3.2741,3.313,3.3317,3.2931,3.2229,0.0,0.0,0.0,0.0,0.0,0.0,0.0,0.0,0.0,0.0,0.0,0.0,0.0,0.0,0.0,0.0,0.0,0.0,2.8283,2.8076,2.7908,2.7876,2.8014,2.8164,2.8568,2.9214,3.0083,3.0861,3.1578,3.279,3.3724,3.4373,3.3932,3.399,3.4528,3.4846,3.5206,3.5495,3.4103,3.3308,3.282,3.1523,3.0783,3.0447,3.0406,3.0336,3.0234,0.0,0.0,0.0,0.0,0.0,0.0,0.0,0.0,0.0,0.6416,0.6416,0.6335,0.6335,0.6099,0.5941,0.0,0.0,0.0,0.5715,0.5867,0.6099,0.6261,0.6876,0.7484,0.8156,1.0179,1.2158,1.3958,1.5878,1.7455,1.8472,1.8547,1.8322,1.787,1.6637,1.5121,1.3406,1.2318,1.1235,1.0385,1.0275,1.0124,0.9969,0.9418,0.9184,0.9082,0.8372,0.7936,0.771,0.7633,0.0,0.0,0.0,0.0,0.9448,1.1156,1.3497,1.6231,1.9533,2.3116,2.6798,3.0503,3.223,3.3068,3.3262,3.355,3.3834,3.3921,0.0,0.0,0.0,0.0,0.0,0.0,0.0,0.0,0.0,0.0,0.0,0.0,0.0,0.0,0.0,0.0,0.0,0.0,0.0,2.7915,2.7847,2.78,2.7886,2.8091,2.8443,2.9091,3.0081,3.0796,3.1674,3.2718,3.3921,3.4978,3.5875,3.5107,3.4742,3.4766,3.535,3.5593,3.5502,3.443,3.359,3.2894,3.1899,3.11,3.0511,3.052,3.0449,3.0309,0.0,0.0,0.0,0.0,0.0,0.0,0.0,0.0,0.0,0.0,0.6795,0.6563,0.6563,0.6335,0.6261,0.6261,0.6261,0.6183,0.6183,0.0,0.0,0.6261,0.6876,0.7633,0.8604,1.0679,1.2788,1.4931,1.7232,1.9189,2.074,1.994,1.935,1.8748,1.7464,1.5826,1.4072,1.2628,1.1589,1.0968,1.0402,1.0262,1.0413,1.0111,0.996,0.9732,0.9625,0.9155,0.8551,0.8327,0.8016,0.0,0.0,0.0,0.8775,1.0045,1.2191,1.4825,1.7991,2.3342,2.8595,3.0639,3.2143,3.3111,3.3262,3.355,3.3807,0.0,0.0,0.0,0.0,0.0,0.0,0.0,0.0,0.0,0.0,0.0,0.0,0.0,0.0,0.0,0.0,0.0,0.0,0.0,2.773,2.78,2.7954,2.8065,2.8264,2.8522,2.9454,3.0124,3.0518,3.2353,3.3505,3.3966,3.5115,3.5738,3.5899,3.5766,3.5677,3.5635,3.5621,3.5562,3.54,3.3807,3.3106,3.2841,3.1342,3.0673,3.0593,3.0649,3.0595,3.0462,0.0,0.0,0.0,0.0,0.0,0.0,0.0,0.0,0.0,0.0,0.0,0.7249,0.7099,0.6949,0.6799,0.6799,0.6567,0.6412,0.6338,0.6338,0.6338,0.6338,0.6949,0.7787,0.8689,1.0765,1.2891,1.4974,1.7603,1.9845,2.1527,2.1881,2.1371,2.0185,1.9025,1.7267,1.5078,1.3534,1.2332,1.1537,1.0941,1.0827,1.0967,1.0748,1.0689,1.072,1.0285,0.9791,0.9273,0.9055,0.8608,0.8098,0.8286,0.0,0.0,0.0,1.0998,1.3376,1.7934,2.2579,2.6677,2.8842,3.046,3.1672,3.2225,3.2588,3.2827,0.0,0.0,0.0,0.0,0.0,0.0,0.0,0.0,0.0,0.0,0.0,0.0,0.0,0.0,0.0,0.0,0.0,0.0,0.0,0.0,2.7926,2.8156,2.8376,2.8828,2.9577,3.0179,3.1048,3.2278,3.3375,3.4338,3.5154,3.5699,3.5942,3.5904,3.5872,3.5815,3.5735,3.5629,3.557,3.5425,3.3716,3.3018,3.2908,3.128,3.0649,3.0658,3.0685,3.063,3.0554,0.0,0.0,0.0,0.0,0.0,0.0,0.0,0.0,0.0,0.0,0.0,0.7936,0.7787,0.0,0.0,0.0,0.6872,0.6563,0.6338,0.6338,0.6338,0.6338,0.7026,0.7787,0.8694,1.0731,1.2822,1.4934,1.752,1.9851,2.1836,2.317,2.3152,2.1789,2.0535,1.8521,1.6059,1.4485,1.313,1.2018,1.1441,1.1388,1.1579,1.1293,1.1392,1.152,1.0961,1.0503,1.0136,0.9852,0.9259,0.8636,0.8788,0.8468,0.0,0.0,0.0,1.2157,1.7109,2.0638,2.3527,2.6035,2.7919,2.9419,0.0,0.0,0.0,0.0,0.0,0.0,0.0,0.0,0.0,0.0,0.0,0.0,0.0,0.0,0.0,0.0,0.0,0.0,0.0,0.0,0.0,0.0,0.0,2.8255,2.8768,2.9064,2.9732,3.0872,3.1299,3.2237,3.3742,3.4294,3.5025,3.5938,3.5951,3.5942,3.5883,3.5597,3.5415,3.533,3.5276,3.5121,3.482,3.3327,3.2724,3.2666,3.1273,3.0736,3.0745,3.0978,3.1014,3.0969,0.0,0.0,0.0,0.0,0.0,0.0,0.0,0.0,0.0,0.0,0.0,0.8623,0.8627,0.8089,0.771,0.7484,0.7096,0.6714,0.6338,0.6338,0.6338,0.6338,0.6876,0.0,0.868,1.0495,1.2591,1.4909,1.7083,1.9445,2.1888,2.3242,2.3819,2.3582,2.1689,1.9383,1.6873,1.5197,1.3802,1.2526,1.1833,1.1874,1.2289,1.1935,1.1972,1.2191,1.182,1.1501,1.11,1.0766,1.0124,0.9508,0.9162,0.8599,0.7966,0.0,0.0,0.0,1.4247,1.7034,1.9795,2.228,2.4521,2.643,0.0,0.0,0.0,0.0,0.0,0.0,0.0,0.0,0.0,0.0,0.0,0.0,0.0,0.0,0.0,0.0,0.0,0.0,0.0,0.0,0.0,0.0,0.0,2.8955,3.0115,3.0466,3.1109,3.2255,3.3223,3.3863,3.4183,3.5271,3.5866,3.5997,3.5931,3.5909,3.5866,3.496,3.4506,3.4375,3.4306,3.3839,3.3068,3.2201,3.1912,3.1883,3.1098,3.0793,3.0891,3.1711,3.2019,3.2002,0.0,0.0,0.0,0.0,0.0,0.0,0.0,0.0,0.0,0.0,0.0,0.0,0.0,0.9604,0.915,0.8694,0.771,0.6949,0.6486,0.6338,0.6338,0.6338,0.6876,0.7557,0.8304,0.9774,1.149,1.3431,1.5804,1.7954,1.9897,2.1981,2.2981,2.3019,2.2438,2.0744,1.8226,1.6429,1.4768,1.3284,1.2485,1.2343,1.2626,1.2488,1.2671,0.0,0.0,0.0,1.1909,1.1731,1.1093,1.0362,1.0122,0.9405,0.8539,0.7642,0.8225,0.9524,1.1122,1.3254,1.5614,1.7947,2.0143,2.2071,2.3675,0.0,0.0,0.0,0.0,0.0,0.0,0.0,0.0,0.0,0.0,0.0,0.0,0.0,0.0,0.0,0.0,0.0,0.0,0.0,0.0,0.0,0.0,0.0,3.1269,3.1598,3.222,3.3331,3.3795,3.4411,3.5224,3.5664,3.5899,3.5942,3.5909,3.5852,3.5729,3.4845,3.4079,3.3419,3.2856,3.2771,3.2998,3.2145,3.1867,3.1936,3.1724,3.1624,3.1738,3.2617,3.2926,3.2937,0.0,0.0,0.0,0.0,0.0,0.0,0.0,0.0,1.1706,1.1706,0.0,0.0,0.0,0.0,1.0212,0.9301,0.8089,0.7176,0.6714,0.6486,0.6338,0.6338,0.6721,0.733,0.8008,0.9057,1.0529,1.2275,1.4338,1.6274,1.8169,2.0084,2.1301,2.1778,2.1813,2.085,1.9004,1.6991,1.5331,1.4039,1.3053,1.2915,1.3236,1.3212,0.0,0.0,0.0,0.0,0.0,0.0,0.0,0.0,0.0,0.9705,0.8444,0.7359,0.7364,0.7903,0.8807,1.0245,1.2034,1.404,1.5873,1.7738,1.9512,0.0,0.0,0.0,0.0,0.0,0.0,0.0,0.0,0.0,0.0,0.0,0.0,0.0,0.0,0.0,0.0,0.0,0.0,0.0,0.0,0.0,0.0,0.0,3.2464,3.2712,3.3318,3.441,3.4584,3.5037,3.5795,3.5866,3.5894,3.5904,3.5883,3.5658,3.5223,3.4361,3.3456,3.2559,3.1692,3.1656,3.2182,3.1641,3.1487,3.1593,3.1952,3.2092,3.224,3.3411,3.384,3.3836,0.0,0.0,0.0,0.0,0.0,0.0,0.0,0.0,1.2532,1.29,0.0,0.0,0.0,0.0,0.0,0.915,0.8318,0.7553,0.6942,0.6714,0.6567,0.6338,0.6486,0.7022,0.7783,0.8413,0.9638,1.156,1.2657,1.4423,1.6801,1.7698,1.8851,2.0098,1.9738,1.9446,1.9095,1.6732,1.5342,1.4619,0.0,1.3528,1.4047,0.0,0.0,0.0,1.4445,1.4506,0.0,1.3713,0.0,0.0,0.0,0.0,0.7608,0.6962,0.672,0.6841,0.0,0.0,0.0,1.0541,0.0,0.0,1.5277,0.0,0.0,0.0,0.0,0.0,0.0,0.0,0.0,0.0,0.0,0.0,0.0,0.0,0.0,0.0,0.0,0.0,0.0,0.0,0.0,0.0,0.0,3.2618,3.3694,3.387,3.4404,3.5437,3.5679,3.5799,3.5801,3.5872,3.5908,3.5908,3.584,3.5317,3.4371,3.3499,3.2615,3.1763,3.0876,3.05,3.0511,3.0653,3.0716,3.0832,3.1777,3.2143,3.2382,3.41,3.4745,3.4745,0.0,0.0,0.0,0.0,0.0,1.3981,1.4023,1.4146,1.4096,0.0,0.0,0.0,1.3615,1.2439,1.1186,1.0137,0.9074,0.8165,0.7553,0.7253,0.703,0.6953,0.7176,0.7557,0.8246,0.8573,0.9394,1.0704,1.1681,1.294,1.4621,1.6049,1.7172,1.8086,1.769,1.7492,1.7356,1.6425,0.0,1.5332,1.4487,1.4449,0.0,0.0,0.0,0.0,0.0,1.6419,1.6145,0.0,1.4634,1.3296,0.0,0.0,0.7583,0.7005,0.6633,0.6519,0.6832,0.0,0.0,0.0,0.0,0.0,0.0,0.0,0.0,0.0,0.0,0.0,0.0,0.0,0.0,0.0,0.0,0.0,0.0,0.0,0.0,0.0,0.0,0.0,0.0,0.0,0.0,0.0,3.3333,3.3817,3.4742,3.4963,3.4936,3.4646,3.5328,3.5747,3.5795,3.5872,3.5891,3.5891,3.5833,3.5317,3.4371,3.35,3.2627,3.1746,3.0936,3.0604,3.0653,3.0671,3.1095,3.1802,3.268,3.3435,3.4121,3.5234,3.5644,3.5643,0.0,0.0,1.3135,1.4385,1.5112,1.545,1.5418,1.5383,1.5209,0.0,0.0,0.0,1.4274,1.3032,1.1855,1.0962,0.9836,0.8927,0.8318,0.794,0.7638,0.7557,0.771,0.8012,0.8627,0.8727,0.927,1.0453,1.0938,1.1888,1.3243,1.4309,1.5283,1.6117,1.5848,1.5818,1.5983,1.5502,0.0,0.0,1.4944,0.0,0.0,1.6938,1.7369,0.0,0.0,0.0,1.7803,1.71,1.5513,0.0,0.0,0.0,0.8072,0.7379,0.7026,0.6949,0.721,0.722,0.731,0.7636,0.0,0.0,0.0,0.0,0.0,0.0,0.0,0.0,0.0,0.0,0.0,0.0,0.0,0.0,0.0,0.0,0.0,0.0,0.0,0.0,0.0,0.0,0.0,3.4291,3.4451,3.4572,3.4734,3.4562,3.4424,3.4299,3.4863,3.5359,3.5795,3.5879,3.5903,3.5903,3.5482,3.4814,3.3863,3.2996,3.2116,3.1265,3.0834,3.0877,3.1248,3.127,3.1605,3.2224,3.3469,3.4257,3.4803,3.5682,3.5994,3.5992,0.0,0.0,1.4825,1.5892,1.6505,1.6902,1.7129,1.664,1.626,0.0,1.5927,1.5325,1.4489,1.3542,1.2599,1.1632,1.0588,0.9765,0.9155,0.8756,0.8438,0.8277,0.8277,0.8505,0.9115,0.8934,0.9346,1.0528,1.0575,1.124,1.2474,1.2915,1.3597,1.4457,1.4361,1.4588,1.4831,1.4317,0.0,1.5512,1.5289,1.609,0.0,0.0,1.8757,0.0,1.962,1.9672,1.9422,1.8291,1.6,0.0,0.0,0.0,0.0,0.8181,0.7841,0.7856,0.8174,0.7962,0.7683,0.7642,0.7722,0.0,0.8549,0.9378,0.0,0.0,0.0,0.0,0.0,0.0,0.0,0.0,0.0,0.0,0.0,0.0,0.0,0.0,0.0,0.0,0.0,3.4079,3.4477,3.5235,3.5232,3.4821,3.4011,3.3346,3.3311,3.4002,3.4284,3.4822,3.5663,3.5733,3.5778,3.5758,3.4891,3.3983,3.3043,3.226,3.1441,3.0626,3.0787,3.1293,3.2026,3.2271,3.2383,3.2543,3.4099,3.4766,3.494,3.5701,3.5993,3.5991,1.3982,1.5026,1.6244,1.7768,1.8578,1.8948,1.87,1.8662,1.8407,1.7683,1.6896,1.6105,1.5158,1.4194,1.3251,1.2452,1.1484,1.0588,0.9992,0.9357,0.9112,0.9191,0.9254,0.9542,1.0137,0.999,1.0188,1.0736,1.09,1.1373,1.2112,1.3003,1.3641,1.4129,1.4154,1.4198,1.4256,1.4,0.0,1.5823,1.621,0.0,1.8564,1.9861,2.0505,2.0838,2.1416,2.1404,2.083,0.0,1.6646,1.4488,0.0,0.0,0.0,0.9594,0.9166,0.8968,0.9505,0.9166,0.8686,0.8687,0.0,0.0,0.8759,0.9204,0.0,0.0,0.0,0.0,0.0,0.0,0.0,0.0,0.0,0.0,0.0,0.0,0.0,0.0,0.0,0.0,0.0,3.4607,3.5113,3.53,3.4745,3.4038,3.3186,3.3051,3.2783,3.2297,3.3713,3.4602,3.4828,3.49,3.4924,3.4931,3.4043,3.3169,3.2304,3.2077,3.1501,3.0722,3.15,3.1917,3.2196,3.3602,3.4193,3.4233,3.4569,3.5136,3.5777,3.595,3.6003,3.5999,1.5265,1.6244,1.7379,1.8872,1.9789,2.017,1.9922,1.9767,1.9412,1.8703,1.7888,1.7051,1.6016,1.5178,1.4233,1.3112,1.2224,1.1484,1.0962,1.0467,1.0121,1.0081,1.0064,1.0223,1.0449,1.0266,1.0399,1.0873,1.1026,1.141,1.1964,1.2672,1.3348,1.3931,1.4004,1.4205,1.4482,1.4543,1.5333,1.6623,1.6723,0.0,1.9759,2.0776,2.1685,2.2332,2.2699,2.2421,2.1522,1.961,1.7593,0.0,0.0,1.2214,1.1018,0.0,1.0338,1.0223,1.0411,1.02,0.9784,0.9413,0.0,0.0,0.0,0.0,0.0,0.0,0.0,0.0,0.0,0.0,0.0,0.0,0.0,0.0,0.0,0.0,0.0,0.0,0.0,0.0,0.0,3.475,3.4996,3.4717,3.3999,3.3179,3.2352,3.1927,3.1722,3.1796,3.2712,3.3439,3.396,3.4023,3.4044,3.4049,3.3168,3.2751,3.2736,3.2253,3.2054,3.2077,3.2537,3.2982,3.3465,3.4332,3.496,3.5351,3.5351,3.5623,3.6007,3.6001,3.5991,3.6001,1.6287,1.7135,1.8146,1.9553,2.0305,2.0759,2.069,2.0461,2.006,1.9478,1.8798,1.7944,1.6963,1.6108,1.5177,1.3945,1.306,1.2399,1.2081,1.1613,1.1138,1.0867,1.0861,1.0802,1.0592,1.044,1.0593,1.112,1.115,1.1441,1.2054,1.2487,1.3186,1.4102,1.4286,1.4729,1.535,0.0,0.0,1.7654,0.0,1.8742,2.0962,2.1668,2.2649,2.3688,2.3767,2.3207,2.214,2.0492,0.0,1.6867,1.4893,1.345,0.0,0.0,0.0,0.0,0.0,0.0,0.0,0.0,0.0,0.9711,0.0,0.0,0.0,0.0,0.0,0.0,0.0,0.0,0.0,0.0,0.0,0.0,0.0,0.0,0.0,0.0,0.0,0.0,0.0,3.4278,3.4369,3.3873,3.3102,3.2372,3.1737,3.0887,3.0769,3.1536,3.1786,3.2298,3.3059,3.3122,3.3156,3.3141,3.2438,3.2474,3.3131,3.26,3.2734,3.3417,3.3578,3.4054,3.4704,3.4881,3.5371,3.5996,3.5995,3.5991,3.6001,3.5988,3.5974,3.5977,1.7301,1.7595,1.839,1.9821,2.0492,2.0847,2.1138,2.1111,2.0711,1.9755,1.943,1.8714,1.7361,1.6683,1.5928,1.5086,1.4144,0.0,1.3216,0.0,1.1854,1.1345,1.1414,1.1275,1.0983,1.1002,1.1186,1.1448,1.1483,1.1814,1.253,1.3037,1.3815,1.482,1.5359,1.6048,1.6844,0.0,1.748,0.0,1.8916,2.0132,0.0,2.3007,2.3963,2.4778,2.4523,2.3989,2.3179,0.0,1.9735,1.8283,0.0,1.5248,1.4337,1.3963,0.0,0.0,0.0,0.0,0.0,0.0,1.1069,0.0,0.0,0.0,0.0,0.0,0.0,0.0,0.0,0.0,0.0,0.0,0.0,0.0,0.0,0.0,0.0,0.0,0.0,0.0,0.0,0.0,3.3242,3.2894,3.2166,3.1731,3.1698,3.0929,3.0539,3.0636,3.1525,3.2069,3.2229,3.2248,3.2241,3.2244,3.2146,3.2146,3.2263,3.2945,3.3315,3.3432,3.4216,3.4607,3.4764,3.5527,3.5918,3.5995,3.6009,3.6001,3.5991,3.5934,3.5908,3.5891,1.8169,1.8205,1.8715,2.009,2.0596,2.0874,2.1138,2.1016,2.0723,2.0448,2.0226,1.9755,1.8936,1.8332,1.7626,1.6653,0.0,1.5048,0.0,0.0,1.3107,1.234,1.2179,1.1813,1.1206,1.1186,1.1293,1.1567,1.1594,1.2017,1.2772,1.3183,1.415,1.5636,1.6177,1.7138,1.8338,0.0,1.9063,0.0,0.0,0.0,0.0,2.3774,2.4597,2.555,2.5189,2.461,2.3839,0.0,2.0582,0.0,0.0,0.0,0.0,0.0,0.0,0.0,0.0,0.0,0.0,0.0,0.0,0.0,0.976,0.0,0.9123,0.0,0.0,0.0,0.0,0.0,0.0,0.0,0.0,0.0,0.0,0.0,0.0,0.0,0.0,0.0,0.0,0.0,0.0,0.0,0.0,3.0466,3.0088,3.0271,3.0428,3.0492,3.0944,3.1242,3.1339,3.1845,3.2096,3.2103,3.2614,3.3124,3.3612,3.3984,3.4433,3.4921,3.5293,3.5449,3.5488,3.5859,3.5995,3.5992,3.5955,3.5939,3.5927,3.5864,3.582,3.5776,1.8929,1.8685,1.8885,2.0162,2.0508,2.0738,2.0997,2.0859,2.072,2.0721,2.0814,0.0,2.0178,1.9834,0.0,0.0,1.7521,1.6715,0.0,0.0,1.444,1.3439,1.2982,0.0,0.0,1.1383,1.1489,1.1622,1.1887,1.234,1.3023,1.3351,1.449,1.6305,1.6912,1.8204,2.0057,0.0,2.0894,2.2048,2.247,2.3636,2.5061,2.4869,2.5355,2.615,2.5701,2.5133,2.4372,2.2808,2.1406,0.0,1.8636,0.0,0.0,0.0,0.0,0.0,1.4666,0.0,0.0,0.0,0.0,0.0,0.0,0.0,0.0,0.0,0.0,0.0,0.0,0.0,0.0,0.0,0.0,0.0,0.0,0.0,0.0,0.0,0.0,0.0,0.0,0.0,0.0,0.0,0.0,0.0,2.9436,3.0155,3.0746,3.1083,3.1207,3.1309,3.1429,3.2088,3.2449,3.2463,3.3335,3.4099,3.4706,3.4941,3.5391,3.5996,3.5996,3.5996,3.5996,3.5995,3.5992,3.5984,3.5935,3.588,3.5852,3.5787,3.5732,3.567,1.9627,1.9062,1.89,1.9752,2.0066,2.0301,2.0507,2.0857,0.0,0.0,0.0,0.0,0.0,0.0,0.0,0.0,0.0,1.8453,1.7777,0.0,1.5777,0.0,0.0,1.2755,0.0,0.0,1.1939,1.1802,1.2373,1.2871,1.3295,1.3836,1.5014,1.6715,1.7496,1.9425,2.2109,2.1918,2.2879,2.4529,2.4094,2.4905,2.6372,0.0,2.6616,2.6404,2.6056,0.0,0.0,2.3223,2.2272,0.0,0.0,0.0,0.0,0.0,0.0,0.0,0.0,0.0,0.0,1.3447,0.0,0.0,0.0,0.0,0.9641,0.0,0.0,0.0,0.0,0.0,0.0,0.0,0.0,0.0,0.0,0.0,0.0,0.0,0.0,0.0,0.0,0.0,0.0,0.0,0.0,0.0,3.0732,3.1105,3.1679,3.2584,3.2829,3.2958,3.304,3.3186,3.3282,3.3367,3.4246,3.4665,3.4725,3.5566,3.5976,3.5996,3.5996,3.5996,3.5995,3.5993,3.6003,3.5997,3.5924,3.582,3.5706,3.5698,3.5659,3.5607,2.1258,2.0546,1.9954,1.9928,2.0131,2.0359,0.0,2.0658,0.0,0.0,0.0,0.0,0.0,0.0,2.2296,0.0,0.0,2.0397,1.9506,1.8638,0.0,0.0,0.0,1.4204,0.0,0.0,0.0,1.2457,1.2614,1.3164,1.408,1.4059,1.5103,1.7071,1.7832,1.9651,0.0,0.0,0.0,0.0,0.0,2.6307,2.716,0.0,0.0,2.6563,2.6111,2.5453,0.0,2.328,2.2457,2.179,2.0742,2.0158,1.9878,1.9529,1.9125,0.0,0.0,0.0,1.5775,1.4099,0.0,0.0,0.0,0.0,0.0,0.0,0.0,0.0,0.0,0.0,0.0,0.0,0.0,0.0,0.0,0.0,0.0,0.0,0.0,0.0,0.0,0.0,0.0,0.0,0.0,0.0,0.0,3.1408,3.2542,3.2572,3.3278,3.3485,3.3103,3.3755,3.4138,3.4213,3.5115,3.5559,3.5563,3.5878,3.5996,3.5996,3.5996,3.5996,3.5995,3.6005,3.5968,3.5934,3.5853,3.5771,3.5689,3.5649,3.5585,3.5534,2.2526,2.2001,2.1351,2.0567,2.0709,0.0,0.0,0.0,0.0,0.0,2.2336,0.0,2.3519,0.0,2.3706,0.0,2.2861,2.2211,2.1257,2.0422,0.0,1.8209,1.7003,0.0,0.0,0.0,0.0,0.0,0.0,1.3682,1.4289,1.434,1.5264,1.6973,1.7915,1.9779,2.2379,2.341,2.4718,0.0,0.0,2.7186,0.0,0.0,2.6907,2.651,0.0,2.5216,2.454,2.3469,2.2819,2.2346,2.1648,2.1304,2.1091,2.0782,2.0546,2.0053,1.9043,1.8294,0.0,1.5493,1.4395,0.0,1.19,0.0,0.0,0.0,0.0,0.0,0.0,0.0,0.0,0.0,0.0,0.0,0.0,0.0,0.0,0.0,0.0,0.0,0.0,0.0,0.0,0.0,0.0,0.0,0.0,0.0,3.3287,3.3732,3.4503,3.4883,3.4878,3.5249,3.5613,3.5997,3.63,3.6456,3.6442,3.6132,3.5996,3.6016,3.6328,3.6463,3.6479,3.6771,3.6835,3.6742,3.6673,3.6599,3.6485,3.5836,3.5565,3.5495,2.3427,2.3416,2.296,0.0,2.1834,0.0,0.0,0.0,2.2565,0.0,2.3352,2.4354,2.413,2.4649,2.4933,2.4492,2.436,0.0,2.2883,2.2019,0.0,0.0,1.8686,1.7231,1.5581,0.0,0.0,0.0,0.0,1.443,1.4053,1.4606,1.5412,1.6455,1.7712,0.0,2.2643,2.3915,2.5625,2.7401,2.7524,2.7575,2.7524,2.7144,2.6765,2.6351,2.5495,2.4865,2.4408,2.3793,2.3378,2.3078,2.2969,2.2665,2.2384,2.1919,2.1642,2.1284,2.051,1.9725,1.8827,1.7578,0.0,0.0,0.0,0.0,1.3415,0.0,0.0,0.0,0.0,0.0,0.0,0.0,0.0,0.0,0.0,0.0,0.0,0.0,0.0,0.0,0.0,0.0,0.0,0.0,0.0,0.0,0.0,0.0,0.0,3.5864,3.6309,3.6976,3.7964,3.7347,3.7507,3.8429,3.763,3.7258,3.7264,3.6406,3.6016,3.6113,3.6932,3.7318,3.7424,3.8185,3.8416,3.8294,3.8218,3.8156,3.7893,3.6267,3.5599,3.5551,2.4865,2.4719,2.4501,0.0,2.3472,2.301,0.0,0.0,0.0,0.0,2.4333,2.4957,2.5387,2.5787,2.5931,2.5535,2.5312,0.0,0.0,0.0,0.0,2.1494,2.0317,1.9088,1.776,1.6687,0.0,1.4723,0.0,0.0,1.4732,1.4473,1.4997,1.6154,1.7327,1.8973,2.105,2.3287,2.5358,2.7284,2.7386,2.7437,0.0,0.0,2.6539,2.6096,2.5439,2.4808,2.4292,2.3793,2.3509,2.3271,2.3078,2.3017,2.2871,2.2795,2.2625,2.2394,2.1651,2.1055,2.0276,1.8908,1.8036,1.7159,0.0,0.0,0.0,0.0,0.0,0.0,0.0,0.0,0.0,0.0,0.0,0.0,0.0,0.0,0.0,0.0,0.0,0.0,0.0,0.0,0.0,0.0,0.0,0.0,0.0,0.0,0.0,3.4994,3.5947,3.6377,3.6245,3.6172,3.6593,3.7513,3.6713,3.6673,3.7264,3.6406,3.6347,3.6971,3.7203,3.7643,3.8209,3.8355,3.8381,3.8287,3.8164,3.8074,3.7901,3.6824,3.6406,3.6315,2.6177,0.0,0.0,2.6324,0.0,0.0,2.4455,0.0,0.0,2.5093,2.5598,0.0,2.6402,2.6701,2.6769,2.6496,2.6289,0.0,0.0,0.0,0.0,2.301,2.1956,2.0757,1.944,1.8199,0.0,1.6133,0.0,0.0,1.501,1.4541,1.4696,1.5426,1.6758,1.8248,2.0004,2.3178,2.5449,2.6893,2.7144,0.0,0.0,2.6907,2.6539,2.6096,2.5481,2.4865,2.4234,2.3675,2.3463,2.333,2.3138,2.3078,2.3078,2.3078,2.3078,2.2895,2.2464,2.2078,2.1584,2.0322,1.982,1.9287,1.7928,1.8032,1.8236,0.0,0.0,0.0,0.0,0.0,0.0,0.0,0.0,0.0,0.0,0.0,0.0,0.0,0.0,0.0,0.0,0.0,0.0,0.0,0.0,0.0,0.0,0.0,0.0,3.4695,3.5503,3.5993,3.6168,3.5951,3.6298,3.7184,3.6762,3.6833,3.7265,3.6406,3.6269,3.6775,3.7511,3.8079,3.8556,3.9194,3.9422,3.934,3.92,3.9124,3.8931,3.7719,3.7026,3.6642,2.739,0.0,0.0,0.0,0.0,0.0,0.0,2.6362,0.0,2.6556,0.0,2.7626,2.7481,2.7747,2.784,2.7548,0.0,2.7105,2.6552,2.5931,2.5146,2.4325,2.3412,2.2275,2.091,1.9806,0.0,0.0,0.0,1.566,1.502,1.4606,1.448,1.4623,1.6162,0.0,0.0,2.3296,2.5378,2.6457,2.6817,2.7041,2.713,2.6884,2.6592,2.6176,2.5618,2.4951,2.4292,2.3688,2.3463,2.3403,2.3198,2.3078,2.3078,2.3078,2.3078,2.3078,2.2969,2.286,2.2555,2.1812,2.1559,2.1222,2.029,2.0536,2.09,2.0538,2.0624,2.0286,0.0,0.0,0.0,0.0,0.0,0.0,0.0,0.0,0.0,0.0,0.0,0.0,0.0,0.0,0.0,0.0,0.0,0.0,0.0,0.0,0.0,0.0,3.4971,0.0,3.6755,0.0,3.6282,3.7382,3.7201,3.7245,3.7441,3.6445,3.6054,3.6267,3.7814,3.8545,3.8766,4.0198,4.0765,4.0668,4.0549,4.0489,4.0296,3.8738,3.7623,3.6853,2.8417,0.0,0.0,0.0,0.0,3.0362,3.0087,2.9127,2.8504,2.8504,2.9308,2.9673,2.912,2.986,3.0037,2.9173,2.9066,0.0,0.0,0.0,0.0,2.5334,2.4552,2.3588,2.235,2.098,1.9646,0.0,0.0,1.598,1.5137,1.4486,1.422,1.4424,1.5814,0.0,2.1731,2.295,0.0,2.6056,2.6418,2.6698,2.6884,2.6832,2.65,2.6042,2.5577,2.5077,2.4607,2.3995,2.37,2.3509,2.3198,2.3078,2.3078,2.3078,2.3078,2.3138,2.3271,2.315,2.3053,2.3059,2.3009,2.2761,2.2191,2.2344,2.2467,2.1931,2.2112,2.1868,2.0166,0.0,0.0,0.0,0.0,0.0,0.0,0.0,0.0,0.0,0.0,0.0,0.0,0.0,0.0,0.0,0.0,0.0,0.0,0.0,0.0,0.0,0.0,0.0,0.0,0.0,3.6069,3.8332,3.6911,3.6972,3.832,3.6738,3.6385,3.7138,3.8076,3.8848,3.9482,4.0403,4.0725,4.0617,4.0539,4.0489,4.0373,3.9431,3.8527,3.7565,3.0779,0.0,0.0,0.0,0.0,0.0,0.0,3.1786,0.0,3.0613,3.0954,3.1142,3.0848,3.1232,3.1288,3.0848,3.0623,3.0083,2.9021,2.8319,2.7514,2.6471,2.5615,0.0,2.3632,2.2258,2.1023,1.9818,0.0,1.6809,1.5742,1.4869,1.455,1.4738,1.6562,1.894,0.0,0.0,0.0,2.5508,2.5988,2.6312,2.6592,2.6832,2.6659,2.6258,2.596,2.5481,2.4892,2.4171,2.37,2.345,2.3198,2.3078,2.3138,2.321,2.3271,2.333,2.3582,2.3628,2.3662,2.393,2.4105,2.4142,2.408,2.4126,2.42,2.4014,2.4023,2.3427,2.1393,1.9574,0.0,0.0,0.0,0.0,0.0,0.0,0.0,0.0,0.0,0.0,0.0,0.0,0.0,0.0,0.0,0.0,0.0,0.0,0.0,0.0,0.0,0.0,0.0,0.0,0.0,3.7244,3.6855,3.7109,3.7871,3.6582,3.6482,3.7348,3.8143,3.8922,3.9664,4.0382,4.064,4.0539,4.0504,4.0489,4.0392,3.9604,3.8738,3.7815,0.0,3.2855,0.0,0.0,3.2972,0.0,3.3785,3.3885,3.3558,3.2421,3.2464,3.2544,3.2349,3.2515,3.2544,3.2414,3.2125,3.1537,3.053,2.9759,2.8826,2.7523,2.6582,2.5673,2.4696,2.3484,2.2291,0.0,0.0,0.0,1.6467,1.5446,1.5183,1.5627,0.0,0.0,0.0,0.0,2.3751,2.5005,2.5619,2.6042,2.6404,2.6817,2.6817,2.6525,2.6336,2.5811,2.5061,2.4274,2.376,2.339,2.321,2.3138,2.3198,2.3403,2.3509,2.3628,2.3995,2.4216,2.435,2.4738,2.509,2.537,2.5673,2.5728,2.5783,2.5932,2.5656,2.4856,2.294,2.1713,0.0,0.0,0.0,0.0,0.0,0.0,0.0,0.0,0.0,0.0,0.0,0.0,0.0,0.0,0.0,0.0,0.0,0.0,0.0,0.0,0.0,3.3616,3.4861,0.0,3.6285,0.0,3.7148,3.7402,3.7539,3.6484,3.6482,3.7348,3.8159,3.902,3.9878,4.0364,4.0558,4.0492,4.0492,4.0492,4.0377,3.9569,3.8839,3.8108,0.0,0.0,0.0,0.0,0.0,0.0,3.4615,3.4996,3.4836,3.3522,3.401,3.4222,3.3609,3.4193,3.431,3.3579,3.3536,3.2753,3.1111,3.0758,2.9873,2.8249,2.7683,2.6786,2.5487,2.44,2.3202,0.0,0.0,0.0,0.0,1.6032,1.6243,0.0,0.0,0.0,0.0,2.2547,2.3594,2.4892,2.5508,2.6028,2.651,2.6884,2.6899,2.6712,2.6404,2.5811,2.5118,2.458,2.4073,2.3569,2.3403,2.3403,2.339,2.3509,2.3793,2.4131,2.4607,2.4835,2.5104,2.5797,2.6068,2.6283,2.6692,2.6849,2.7004,2.7093,2.6606,2.5885,2.5206,2.3717,2.2366,0.0,0.0,0.0,0.0,0.0,0.0,0.0,0.0,0.0,0.0,0.0,0.0,0.0,0.0,0.0,0.0,0.0,0.0,3.1131,0.0,3.3958,3.5756,3.5927,0.0,3.9512,3.8027,3.7715,3.8418,3.6758,3.6482,3.7348,3.8159,3.9295,4.059,4.0526,4.0511,4.0482,4.0432,4.0396,4.0317,3.9506,3.9157,3.885,0.0,0.0,0.0,0.0,0.0,0.0,0.0,3.5503,3.5285,3.4741,3.4999,3.5124,3.4942,3.5215,3.5275,3.507,3.4976,3.4332,3.3079,3.2373,3.1282,2.9781,2.8787,2.7657,2.6389,2.5615,2.456,0.0,0.0,0.0,0.0,1.7744,1.7763,0.0,0.0,2.144,2.2429,2.3022,2.3748,2.4593,2.5439,2.6042,2.6457,2.7026,2.7107,2.6884,2.6765,2.6272,2.555,2.5189,2.4408,2.3569,2.3509,2.3509,2.3569,2.3897,2.4247,2.4664,2.5174,2.555,2.592,2.6549,2.6849,2.7159,2.765,2.7715,2.7765,2.7963,2.7652,2.7139,2.6489,2.5726,2.4978,0.0,0.0,0.0,0.0,0.0,0.0,0.0,0.0,0.0,0.0,0.0,0.0,0.0,0.0,0.0,0.0,0.0,0.0,3.1673,0.0,3.4244,3.6653,3.7276,3.8359,3.9883,3.8652,3.8262,3.8555,3.7344,3.7515,3.8837,3.9604,4.0238,4.0681,4.0515,4.0392,4.0325,4.0289,4.0289,4.025,4.0013,3.9621,3.9119,3.9402,0.0,3.7664,0.0,3.6516,3.5769,3.6087,3.5861,3.5619,3.5619,3.5683,3.5733,3.5767,3.5894,3.5958,3.61,3.6022,3.548,3.4468,3.3547,3.2382,3.0864,2.9644,0.0,2.7258,2.6663,2.5647,2.4163,2.2916,0.0,0.0,1.9845,1.9844,0.0,2.193,2.2651,2.312,2.3526,2.4028,2.4593,2.5495,2.615,2.6578,2.7181,2.7248,2.7041,2.7003,2.6553,2.5893,2.5591,2.4808,2.391,2.3852,2.3793,2.3897,2.4408,2.4865,2.5328,2.592,2.6404,2.6797,2.7363,2.7665,2.7997,2.8496,2.8543,2.8605,2.9045,2.9077,2.8778,2.8107,2.7612,2.7041,2.6397,0.0,0.0,0.0,0.0,0.0,0.0,1.9821,1.8766,0.0,0.0,0.0,0.0,0.0,0.0,0.0,0.0,0.0,0.0,0.0,0.0,0.0,3.8395,3.9277,3.9862,3.9003,3.8476,3.8203,3.7851,3.8469,3.9837,4.059,4.084,4.0681,4.0466,4.0285,4.0139,4.01,4.01,4.012,4.0252,3.9959,3.9509,4.0033,3.9756,3.93,3.8113,3.7326,3.6784,3.6538,3.6226,3.5973,3.5973,3.6085,3.6148,3.6037,3.6289,3.6492,3.6492,3.6492,3.5998,3.4738,3.3967,3.2818,0.0,0.0,2.9093,2.7986,2.7351,2.6354,2.505,0.0,0.0,2.2262,2.2238,2.2445,2.2791,2.3274,2.3666,2.3954,2.3944,2.4345,2.5061,2.566,2.634,2.7003,2.7299,2.7335,2.7181,2.7055,2.6621,2.6056,2.5784,2.5286,2.4721,2.4408,2.4292,2.4408,2.5007,2.5618,2.6229,2.6916,2.7261,2.7665,2.8319,2.8606,2.8779,2.9198,2.938,2.9707,3.0502,3.0859,3.092,3.0478,2.9265,2.8236,2.7746,0.0,0.0,0.0,0.0,0.0,0.0,2.2011,2.098,1.9183,0.0,0.0,0.0,0.0,0.0,0.0,0.0,0.0,3.1131,3.4115,0.0,3.7185,3.8983,3.9856,3.9793,3.898,3.8143,3.7342,3.8202,3.9032,3.9841,4.0661,4.0885,4.0681,4.0466,4.023,4.0002,3.9851,3.9848,3.9895,3.9982,4.012,4.0191,4.1758,4.0769,3.9731,3.903,3.8057,3.7222,3.686,3.6569,3.6476,3.6476,3.6708,3.6937,3.7103,3.6997,3.7013,0.0,3.7118,3.6798,0.0,3.514,3.4162,3.3025,3.1521,3.0256,2.9222,2.8239,2.7206,2.6163,0.0,0.0,0.0,2.3857,2.3966,2.3863,2.4223,2.4343,2.4251,2.4321,2.465,2.523,2.5974,2.6592,2.7055,2.7386,2.7437,2.7335,2.7299,2.6989,2.6553,2.6312,2.5934,2.5564,2.555,2.5245,2.5063,2.5728,2.6428,2.7041,2.7615,2.811,2.8559,2.8951,2.9273,2.9556,2.9924,3.0629,3.1357,3.1615,3.1707,3.1707,3.1494,3.0573,2.9779,2.947,2.9207,0.0,0.0,0.0,0.0,0.0,0.0,2.2153,0.0,2.1722,0.0,0.0,0.0,0.0,0.0,0.0,0.0,0.0,3.5696,0.0,3.8964,3.9541,3.9825,3.9783,3.8975,3.8455,3.8203,3.8474,3.9364,4.0691,4.0857,4.082,4.0623,4.0422,4.0081,3.9721,3.967,3.9647,3.967,3.9895,4.01,4.0232,4.2642,4.1501,4.0407,3.9829,3.8739,3.787,3.7488,3.7282,3.7118,3.7118,3.7417,3.7711,3.7927,3.7927,0.0,3.7711,3.7637,3.7358,3.66,3.5707,3.4817,3.3947,3.2489,3.1254,3.0179,2.9141,0.0,2.7175,2.6413,2.5724,2.4987,2.5493,2.549,2.5059,2.5153,2.4999,2.4788,2.4718,2.5048,2.5605,2.6336,2.6893,2.7233,2.764,2.769,2.7539,2.7539,2.7284,2.6937,2.6803,2.6472,2.615,2.6351,2.6269,2.6133,2.664,2.7246,2.7849,2.8432,2.8919,2.9319,2.9633,2.9957,3.0241,3.0576,3.1756,3.2768,3.2727,3.2988,3.3107,3.2613,3.1873,3.1098,3.0434,3.0172,2.9793,2.9058,0.0,0.0,0.0,0.0,0.0,0.0,2.3803,0.0,0.0,0.0,0.0,0.0,0.0,0.0,3.5243,3.7117,0.0,3.9712,4.0047,3.9877,3.9209,3.8144,3.7788,3.8125,3.8455,3.9344,4.0613,4.0838,4.082,4.0577,4.0353,4.0021,3.9623,3.9502,3.9452,3.9452,3.9717,3.9937,4.0158,4.2998,4.2086,4.121,0.0,3.9424,0.0,3.8383,3.8173,3.8001,3.8001,3.8214,3.8455,3.8639,3.886,3.8788,3.8173,0.0,0.0,0.0,3.5815,3.4955,3.4327,3.3196,3.2095,3.0941,3.0034,2.9077,2.8039,2.7497,2.7162,2.7095,2.7124,2.6867,2.6311,2.5944,2.5678,2.5394,2.5179,2.5495,2.6165,2.6707,2.7188,2.7625,2.7905,2.7955,2.784,2.784,2.7575,2.7284,2.7284,2.6945,2.6616,2.6901,2.7261,2.7565,2.7565,2.8061,2.8701,2.9287,2.9645,2.9984,3.0426,3.0651,3.0855,3.119,3.2593,3.3837,3.3727,3.4461,3.48,3.384,3.2991,3.2026,3.075,3.0601,3.0375,2.9585,0.0,0.0,0.0,0.0,0.0,0.0,2.5727,2.63,0.0,0.0,0.0,0.0,0.0,3.4543,3.5752,3.8398,3.9759,3.9668,4.0474,4.0018,3.8272,3.6789,3.6516,3.7323,3.8201,3.9032,3.9841,4.0655,4.0839,4.0577,4.0315,4.0003,3.967,3.9324,3.9237,3.9298,3.9452,3.9693,4.0017,0.0,0.0,4.1672,4.1433,4.0226,3.9202,3.886,3.8788,3.8733,3.8733,3.8882,3.899,3.9148,3.9272,3.9148,3.8511,3.823,3.7754,3.6906,3.6276,3.5652,3.4976,3.4144,3.3112,3.1961,3.0984,2.9781,2.8352,2.8026,2.7762,2.7762,2.7314,2.6799,2.6281,2.5928,2.5576,2.5252,2.5675,2.6042,2.6457,2.7063,2.7473,2.779,2.8152,2.8314,2.825,2.8301,2.8107,2.7825,2.7825,2.761,2.7408,2.766,2.8076,2.84,2.8304,2.8779,2.9438,2.9897,3.0267,3.0601,3.0838,3.1196,3.1559,3.1651,3.2619,3.3619,3.3999,3.3963,3.3883,3.4051,3.2938,3.186,3.1213,3.1556,3.1604,3.0609,3.0907,0.0,0.0,2.8547,2.8094,2.7703,2.7918,2.8878,0.0,0.0,0.0,0.0,3.7404,3.8215,3.8622,3.9923,4.0551,4.0438,4.0629,3.9917,3.8291,3.7351,3.7058,3.7323,3.8196,3.9041,3.9837,4.0602,4.077,4.0511,4.03,3.9941,3.9526,3.935,3.9219,3.9183,3.935,3.9599,3.987,4.4212,4.3306,4.24,4.2047,4.0987,4.0027,3.9518,3.9345,3.9292,3.9292,3.9382,3.9398,3.9379,3.9325,3.9023,3.8511,3.823,3.7754,3.686,3.6445,3.5958,3.5359,3.4807,3.3977,3.2767,3.2043,3.0891,2.931,2.9107,2.9044,2.9044,2.8436,2.7875,2.7415,2.6903,2.6455,2.6068,2.6496,2.6774,2.7034,2.7575,2.7925,2.8155,2.8558,2.8748,2.8795,2.8904,2.8764,2.8479,2.8431,2.8238,2.8042,2.8253,2.8622,2.8982,2.915,2.9512,3.0011,3.0384,3.0757,3.1061,3.1351,3.1691,3.1965,3.1856,3.2591,3.3306,3.3515,3.3627,3.3685,3.3585,3.289,3.2087,3.138,3.1596,3.1817,3.1607,3.2038,3.211,3.1257,3.0976,3.062,3.0051,3.0552,3.1556,3.3104,0.0,0.0,3.7874,3.8873,3.9453,3.9554,4.0337,4.0679,4.0526,4.0154,3.9373,3.8199,3.7481,3.6999,3.6734,3.7604,3.8447,3.9243,3.9996,4.0408,4.0582,4.0336,4.0021,3.967,3.9427,3.9264,3.9129,3.9264,3.9427,3.9647,4.431,4.3721,4.3036,4.2422,4.1572,4.0794,4.0053,3.9833,3.9729,3.9729,3.9729,3.9625,3.9432,3.9094,3.8678,3.823,3.8042,3.7578,3.6785,3.6399,3.6037,3.5554,3.532,3.4614,3.3376,3.2815,3.186,3.0478,3.0493,3.0493,3.0478,2.9841,2.929,2.8899,2.8307,2.7712,2.7225,2.7348,2.753,2.766,2.8073,2.835,2.8606,2.9028,2.9273,2.9425,2.956,2.9454,2.9182,2.9044,2.8842,2.8622,2.8732,2.9059,2.947,2.9897,3.0182,3.0493,3.0814,3.1112,3.1368,3.1839,3.2073,3.2144,3.1948,3.2451,3.2896,3.281,3.3335,3.3619,3.2969,3.2779,3.2372,3.1448,3.1475,3.188,3.2591,0.0,3.3458,3.36,3.3669,3.3419,3.2594,3.3308,3.4137,3.4844,3.6182,3.7613,0.0,3.9452,3.9589,3.961,4.0215,4.0431,4.0215,3.9559,3.8839,3.8052,3.7525,3.6826,3.6018,3.6889,3.771,3.8536,3.9252,4.0001,4.0654,4.0411,4.0158,3.9892,3.9551,3.9298,3.9156,3.921,3.9317,3.9477,4.457,4.3888,4.3128,4.2422,4.1677,4.0898,4.0189,4.0037,3.9986,3.9901,3.9781,3.9573,3.9131,3.8678,3.823,3.7801,3.7492,3.7178,3.6723,3.6399,3.6148,3.5925,3.5379,3.4651,3.3864,3.2524,3.1717,3.145,3.1364,3.1306,3.1291,3.0761,3.0143,2.9567,2.9167,2.8536,2.775,2.7913,2.7978,2.7959,2.8286,2.8622,2.8904,2.9483,2.9766,2.993,3.0097,2.9968,2.9661,2.9544,2.9364,2.9198,2.9198,2.9454,2.9766,3.0087,3.0485,3.0814,3.0935,3.1329,3.1763,3.2001,3.2144,3.2144,3.1948,3.2071,3.2366,3.2724,3.2582,3.2558,3.2986,3.2589,3.214,3.1856,3.2485,3.312,3.353,0.0,3.5213,3.555,3.5611,3.5619,3.5473,3.569,3.6333,3.7517,3.818,3.9054,4.0201,4.0368,4.0315,4.0095,4.0202,4.012,3.9807,3.9829,3.9181,3.7849,3.7975,3.7299,3.5942,3.6816,3.7653,3.8455,3.9199,3.9932,4.0607,4.0392,4.0177,3.9954,3.9689,3.9477,3.935,3.9298,3.9401,3.9599,4.4587,4.4282,4.3809,4.3031,4.2286,4.1542,4.0695,4.0239,3.9935,3.9694,3.9468,3.9131,3.8678,3.8246,3.7844,3.7449,3.7314,3.7194,3.7058,3.6738,3.6507,3.6289,3.5769,3.5071,3.412,3.3168,3.2641,3.2516,3.2516,3.2461,3.2407,3.1949,3.1659,3.1416,3.0495,2.9816,2.9311,2.8857,2.8527,2.8365,2.8622,2.8858,2.9198,2.9782,3.0103,3.0231,3.0426,3.03,3.0,2.987,2.9621,2.9412,2.9412,2.9576,2.9798,3.0103,3.0568,3.0992,3.123,3.1538,3.1873,3.2037,3.2144,3.2144,3.1948,3.1948,3.2052,3.2211,3.2098,3.2088,3.2435,3.2246,3.2038,3.2073,3.2529,3.3299,3.4536,3.546,3.6258,3.7044,3.7324,3.7272,3.6831,3.7338,3.7966,3.8639,3.943,4.0067,4.0522,4.0516,4.0323,3.9945,3.9819,3.966,3.9427,3.9675,3.9047,3.7649,3.7912,3.7259,3.5807,3.6255,3.7164,3.8408,3.8674,3.9509,4.064,4.0427,4.0252,4.008,3.9851,3.9647,3.9502,3.9477,3.9245,3.8991,4.4587,4.4587,4.4333,4.3555,4.2794,4.1996,4.1148,4.0372,3.9746,3.9379,3.904,3.8623,3.8157,3.7786,3.7508,3.7238,3.7254,3.7373,3.7519,3.7445,3.7084,3.6597,3.6009,3.5203,3.4213,3.3898,3.3678,3.363,3.3716,3.3716,3.3649,3.3354,3.321,3.3142,3.205,3.1232,3.0587,2.9704,2.9014,2.8621,2.8779,2.9013,2.935,2.993,3.0248,3.0417,3.0568,3.0426,3.0146,2.9957,2.971,2.9502,2.9457,2.9563,2.977,3.006,3.0568,3.1095,3.144,3.1668,3.1819,3.2001,3.2108,3.2144,3.1984,3.1966,3.2002,3.1984,3.2056,3.2179,3.2282,3.2316,3.2384,3.2486,3.2841,3.3714,3.5502,3.6408,3.7293,3.8404,3.8809,3.8785,3.8191,3.8853,3.9361,3.951,4.0291,4.0701,4.0607,4.0442,4.0077,3.9548,3.9383,3.9264,3.9129,3.9401,3.8826,3.7395,3.7709,3.7076,3.5666,3.5935,3.6895,3.8352,3.8446,3.9329,4.066,4.0479,4.0227,3.9946,3.9755,3.9591,3.9463,3.9441,3.9069,3.8607,4.4587,4.4587,4.4333,4.3555,4.2794,4.1996,4.1148,4.0251,3.952,3.8914,3.8567,3.81,3.7519,3.7298,3.7254,3.7194,3.7508,3.7801,3.8042,3.8455,3.8091,3.6813,3.5614,3.4736,3.4217,3.4349,3.4561,3.4878,3.4878,3.4908,3.4968,3.5057,3.4643,3.3827,3.364,3.2544,3.0774,3.018,2.9421,2.8621,2.87,2.8967,2.935,2.9842,3.0205,3.0401,3.0368,3.0284,3.0146,2.9766,2.9544,2.9486,2.935,2.9502,2.9726,2.993,3.0568,3.123,3.144,3.1668,3.1837,3.1912,3.202,3.2108,3.2073,3.2197,3.23,3.2435,3.2695,3.2978,3.3178,3.3314,3.3382,3.3382,3.4191,3.5211,3.6356,3.7521,3.865,3.9732,4.0099,4.0268,4.0275,4.0447,4.0624,4.0764,4.084,4.0794,4.0613,4.03,3.9783,3.9073,3.9036,3.8979,3.8921,3.921,3.8589,3.7128,3.7525,3.694,3.555,3.6422,3.7323,3.8268,3.8988,3.9802,4.0607,4.0515,4.0005,3.926,3.912,3.9065,3.9044,3.8953,3.8984,3.9058,4.4587,4.4587,4.4485,4.4198,4.3061,4.2004,4.1502,4.0109,3.8969,3.8455,3.7985,3.7637,3.7298,3.7238,3.7254,3.7508,3.7844,3.823,3.8623,3.8632,3.8124,3.7032,3.6034,3.535,3.4944,3.5144,3.5357,3.5582,3.5786,3.5839,3.5778,3.6011,3.5805,3.523,3.4482,3.3425,3.2172,3.0625,2.9606,2.9079,2.8713,2.8764,2.909,2.9694,3.0,3.0146,3.0215,3.0103,2.9858,2.9605,2.9425,2.9259,2.9305,2.9515,2.987,3.0477,3.11,3.1651,3.1875,3.1965,3.2001,3.2073,3.2214,3.2353,3.2404,3.2586,3.2809,3.3009,3.3277,3.3478,3.3643,3.3697,3.3795,3.3854,3.4309,3.5179,3.6814,3.7583,3.8554,4.0178,4.054,4.068,4.0742,4.0831,4.0886,4.0897,4.0818,4.0665,4.0414,3.9846,3.9389,3.9007,3.8881,3.8822,3.891,3.9073,3.8745,3.7898,3.7719,3.7162,3.626,3.6665,3.73,3.8163,3.846,3.9069,3.9807,3.9259,3.8816,3.8521,3.8421,3.8705,3.9171,3.9168,3.9212,3.9301,4.4587,4.4587,4.4587,4.4587,4.3209,4.1997,4.1722,4.0073,3.8623,3.81,3.7711,3.7433,3.7298,3.7358,3.7594,3.8033,3.8399,3.8827,3.9312,3.8858,3.8098,3.7068,3.63,3.5836,3.5739,3.5933,3.6113,3.6381,3.6689,3.679,3.6733,3.6865,3.6701,3.619,3.5128,3.4089,3.2934,3.1005,2.9884,2.94,2.8773,2.8716,2.9013,2.9515,2.9798,2.9902,3.0033,2.9902,2.9681,2.9486,2.935,2.9259,2.9335,2.975,3.0318,3.1106,3.1657,3.2038,3.2317,3.247,3.247,3.2404,3.2488,3.2654,3.2798,3.3027,3.3288,3.3588,3.3828,3.4031,3.4176,3.4246,3.4297,3.4405,3.4762,3.5532,3.69,3.7737,3.8744,4.0095,4.0613,4.0894,4.0922,4.0971,4.0957,4.0877,4.074,4.0507,4.0101,3.9494,3.912,3.8921,3.878,3.878,3.8921,3.9045,3.8887,3.838,3.8115,3.7521,3.6642,3.7016,3.7372,3.7707,3.7983,3.8446,3.9013,3.8672,3.838,3.8186,3.8421,3.8869,3.9421,3.9393,3.9435,3.9511,4.4587,4.4587,4.4587,4.4587,4.3225,4.1997,4.1722,4.0034,3.8583,3.8001,3.7801,3.7626,3.7417,3.7711,3.8173,3.875,3.9044,3.9506,4.0153,3.9279,3.8171,3.6985,3.6174,3.6045,3.6502,3.662,3.6981,3.7505,3.7721,3.7843,3.7893,3.7792,3.7301,3.658,3.5812,3.4509,3.274,3.1394,3.0335,2.9549,2.8867,2.8811,2.9121,2.9382,2.9608,2.9697,2.9697,2.9697,2.9653,2.9396,2.938,2.9515,2.9589,3.0218,3.1033,3.1731,3.2162,3.2468,3.2809,3.3148,3.3284,3.2813,3.2795,3.2996,3.3255,3.3524,3.3802,3.4128,3.4423,3.4674,3.487,3.5018,3.5105,3.5105,3.5873,3.652,3.6589,3.8208,3.9428,3.949,4.0385,4.0998,4.1007,4.0995,4.0935,4.0809,4.0682,4.0303,3.9628,3.9272,3.8989,3.8822,3.875,3.881,3.8979,3.9129,3.8906,3.8319,3.8702,3.8058,3.6553,3.754,3.756,3.6851,3.7706,3.8125,3.8264,3.9127,3.9005,3.8396,3.9253,3.9642,3.9697,3.9624,3.9648,3.9705,4.4587,4.4587,4.4587,4.4587,4.3592,4.249,4.1805,4.0318,3.8991,3.8278,3.7918,3.7786,3.8124,3.8383,3.8772,3.9437,3.9851,3.989,3.9537,3.9225,3.8537,3.7365,3.6846,3.6701,3.7013,3.736,3.7685,3.7998,3.8249,3.8314,3.8267,3.8018,3.7469,3.6626,3.5856,3.4838,3.3612,3.239,3.1306,3.0382,2.9828,2.9454,2.9259,2.9547,2.9814,3.0033,2.993,2.993,2.987,2.9722,2.9766,2.9968,3.0584,3.1184,3.1714,3.2283,3.2716,3.3045,3.3364,3.3652,3.3725,3.3343,3.3458,3.3707,3.3828,3.408,3.4357,3.4632,3.4831,3.4982,3.5143,3.5207,3.5266,3.5297,3.5624,3.611,3.6801,3.7937,3.8926,3.9558,4.0496,4.1069,4.1073,4.1027,4.0916,4.0733,4.0335,3.9922,3.9477,3.9219,3.9017,3.8881,3.891,3.8979,3.9129,3.9183,3.9289,3.9425,3.9068,3.84,3.7479,3.7853,3.7564,3.682,3.7119,3.7644,3.8249,3.7941,3.8029,3.8391,3.8668,3.914,3.9697,3.9626,3.9994,4.0549,4.4587,4.4587,4.4587,4.4587,4.3777,4.278,4.1877,4.0611,3.9462,3.8649,3.8399,3.8439,3.8903,3.9172,3.9645,4.0285,4.0797,4.0796,4.0011,3.9802,3.9251,3.8241,3.7775,3.7524,3.7559,3.7929,3.8231,3.8491,3.8664,3.8646,3.846,3.8117,3.7487,3.6545,3.5795,3.5035,3.4102,3.2976,3.2024,3.1162,3.0609,3.0094,2.971,2.9886,3.0044,3.0258,3.0231,3.0215,3.0199,3.0156,3.0351,3.073,3.1432,3.1967,3.2368,3.2827,3.3225,3.3588,3.3891,3.4117,3.4255,3.4099,3.4136,3.4227,3.4353,3.4551,3.4773,3.4963,3.5126,3.5261,3.535,3.5416,3.5477,3.5504,3.5621,3.5918,3.6491,3.765,3.8649,3.9189,4.0346,4.1108,4.1091,4.103,4.0883,4.0609,4.0155,3.9743,3.9401,3.9219,3.9073,3.8979,3.9036,3.9156,3.9369,3.9401,3.9599,3.9935,3.9643,3.8946,3.7943,3.8007,3.7437,3.6385,3.6802,3.7325,3.7877,3.8073,3.8467,3.8944,3.9253,3.9687,4.013,4.0096,4.0392,4.081,4.4587,4.4587,4.4587,4.4587,4.3867,4.3014,4.2043,4.1067,4.0078,3.9176,3.9169,3.9348,3.9645,4.0053,4.0546,4.1237,4.1864,4.1917,4.1228,4.0853,4.0291,3.9418,3.8921,3.8533,3.8216,3.8428,3.8664,3.891,3.895,3.8844,3.8548,3.8062,3.7342,3.6381,3.5769,3.5081,3.4301,3.3453,3.2628,3.1882,3.1326,3.0745,3.0274,3.0351,3.0377,3.0418,3.0551,3.0593,3.0634,3.0757,3.1218,3.1768,3.2162,3.2601,3.3027,3.3372,3.3725,3.4099,3.4363,3.4588,3.4773,3.4889,3.4752,3.4607,3.4812,3.4926,3.5073,3.5193,3.532,3.5441,3.5502,3.5604,3.5699,3.5715,3.5813,3.5908,3.5914,3.7331,3.8441,3.8583,4.0015,4.1015,4.1089,4.1035,4.0832,4.0453,4.0101,3.9769,3.9452,3.9317,3.921,3.9156,3.9219,3.9401,3.9628,3.9785,3.9914,4.0038,4.0289,3.9618,3.8152,3.8202,3.7406,3.5979,3.6848,3.73,3.755,3.9131,3.9802,3.988,4.0617,4.0837,4.0779,4.0781,4.0745,4.0681,4.4587,4.4587,4.4587,4.4587,4.4305,4.362,4.2236,4.1682,4.1005,3.9845,3.9696,3.9919,4.0466,4.0802,4.122,4.1831,4.2315,4.2368,4.1851,4.1757,4.1214,4.005,3.9949,3.9647,3.9036,3.8942,3.8902,3.8997,3.8921,3.8707,3.8277,3.7702,3.7041,3.6326,3.581,3.5287,3.4739,3.4526,3.3656,3.2393,3.2442,3.1712,3.0683,3.0885,3.1044,3.1218,3.1274,3.1312,3.1411,3.164,3.2003,3.2437,3.2781,3.3142,3.3512,3.385,3.4154,3.4454,3.4711,3.4908,3.5038,3.5176,3.516,3.5107,3.5107,3.5176,3.5261,3.5335,3.5412,3.5495,3.5581,3.563,3.5724,3.5846,3.588,3.5929,3.5968,3.6891,3.7812,3.8515,3.9511,4.041,4.1043,4.0935,4.0742,4.0511,4.0174,3.9878,3.9647,3.9551,3.9502,3.9502,3.9656,3.9838,3.9985,4.0176,4.0251,4.0252,4.0392,4.0029,3.9168,3.9243,3.8734,3.7836,3.8085,3.8592,3.927,3.9584,4.0082,4.0648,4.0772,4.0773,4.072,4.066,4.0631,4.0598,4.4587,4.4587,4.4587,4.4587,4.4514,4.3934,4.2432,4.2142,4.162,4.0341,4.0303,4.0563,4.11,4.149,4.1924,4.2512,4.2862,4.2941,4.2736,4.2537,4.197,4.0969,4.0709,4.0192,3.9401,3.9192,3.9073,3.9007,3.8785,3.8442,3.7893,3.7451,3.6821,3.6131,3.5844,3.5458,3.5088,3.5088,3.4222,3.2944,3.3134,3.2411,3.1295,3.1432,3.1582,3.1748,3.1748,3.1821,3.1966,3.2179,3.2521,3.288,3.3111,3.3494,3.3895,3.4173,3.4454,3.4732,3.4945,3.5089,3.5226,3.5324,3.5373,3.5388,3.5304,3.5304,3.5369,3.5427,3.5495,3.5572,3.5626,3.5726,3.582,3.5895,3.5935,3.5954,3.5996,3.6756,3.7478,3.7928,3.875,3.9607,4.0394,4.0727,4.0801,4.0559,4.0329,4.0101,3.987,3.981,3.981,3.9832,4.0004,4.0155,4.029,4.0457,4.0535,4.0535,4.0596,4.0268,3.9557,3.9624,3.9213,3.8474,3.8928,3.9388,3.9823,4.0176,4.0526,4.0858,4.0792,4.0713,4.0646,4.0588,4.0539,4.0558,4.4587,4.4587,4.4587,4.4587,4.4587,4.4118,4.2594,4.2462,4.2091,4.0771,4.0901,4.1255,4.1675,4.2092,4.2595,4.3104,4.3305,4.3481,4.3548,4.3249,4.2675,4.181,4.1393,4.064,3.957,3.9324,3.9129,3.8942,3.8585,3.8117,3.756,3.7188,3.6713,3.6062,3.5949,3.5728,3.5475,3.5475,3.4756,3.366,3.3632,3.3002,3.2066,3.2054,3.2091,3.2127,3.2179,3.2283,3.2488,3.2606,3.2898,3.322,3.3379,3.377,3.4197,3.4409,3.4691,3.4964,3.5105,3.5219,3.533,3.5412,3.546,3.5493,3.5427,3.5412,3.5427,3.5488,3.556,3.5623,3.5698,3.5823,3.5894,3.5926,3.5954,3.5995,3.5987,3.6608,3.7136,3.7278,3.8063,3.8863,3.953,4.0311,4.0684,4.0452,4.0424,4.0319,4.0099,4.0081,4.012,4.0195,4.0329,4.0429,4.0572,4.0688,4.0791,4.0827,4.0829,4.0479,3.9835,3.9916,3.957,3.897,3.9701,4.0018,4.007,4.0688,4.0894,4.0779,4.0707,4.0646,4.0573,4.0523,4.0489,4.0504,4.4587,4.4587,4.4587,4.4587,4.4587,4.4118,4.27,4.2567,4.2261,4.1091,4.1272,4.1657,4.2092,4.2655,4.3123,4.334,4.3497,4.3667,4.3832,4.4009,4.3521,4.2203,4.2181,4.1434,3.9796,3.9376,3.9055,3.873,3.8281,3.7862,3.7413,3.7031,3.669,3.6419,3.6301,3.6191,3.6096,3.6096,3.5583,3.4751,3.4295,3.3717,3.3034,3.2717,3.2619,3.2699,3.2894,3.3006,3.3129,3.3298,3.3491,3.3652,3.3902,3.4173,3.4409,3.4672,3.4908,3.5091,3.5239,3.5315,3.5412,3.546,3.5493,3.5493,3.5493,3.5493,3.5488,3.5489,3.5553,3.5646,3.5765,3.5859,3.5919,3.5973,3.5995,3.5982,3.5927,3.6052,3.6437,3.7128,3.802,3.8648,3.8756,3.9442,3.9844,3.9743,4.0261,4.054,4.0441,4.0422,4.0454,4.053,4.0648,4.0762,4.0852,4.0922,4.0949,4.0977,4.0967,4.0912,4.0811,4.0879,4.0845,4.0758,4.0874,4.0886,4.0847,4.0835,4.0779,4.0706,4.0626,4.0573,4.0504,4.0504,4.0489,4.0523,4.4587,4.4587,4.4587,4.4587,4.4682,4.4228,4.2858,4.286,4.2627,4.1464,4.1701,4.205,4.2458,4.2957,4.334,4.3446,4.3548,4.3701,4.3883,4.3741,4.3192,4.2184,4.1841,4.1028,3.9613,3.9173,3.8789,3.8423,3.8086,3.7757,3.7411,3.7164,3.697,3.6736,3.6638,3.655,3.6377,3.6402,3.5994,3.5215,3.4708,3.4144,3.365,3.3102,3.3006,3.3147,3.3226,3.3316,3.3386,3.352,3.3671,3.3842,3.4074,3.4316,3.4561,3.4792,3.5001,3.5176,3.527,3.5379,3.546,3.5493,3.5493,3.5493,3.5493,3.5501,3.5509,3.5502,3.5589,3.5688,3.5782,3.5852,3.5929,3.5995,3.5964,3.5931,3.5904,3.5924,3.6079,3.6489,3.7323,3.7871,3.787,3.9025,3.9726,3.9656,4.0306,4.0672,4.0623,4.0649,4.0692,4.071,4.0843,4.0928,4.0957,4.099,4.0996,4.0994,4.0962,4.0972,4.1064,4.1093,4.1092,4.1103,4.1055,4.1006,4.0937,4.0849,4.075,4.0629,4.0617,4.0573,4.0489,4.0489,4.0489,4.0504]}]]